<?xml version="1.0" encoding="UTF-8" standalone="no" ?>
<gpx xmlns="http://www.topografix.com/GPX/1/1" xmlns:xsi="http://www.w3.org/2001/XMLSchema-instance" xsi:schemaLocation="http://www.topografix.com/GPX/1/1 http://www.topografix.com/GPX/1/1/gpx.xsd" version="1.1" creator="VisuGPX - https://www.visugpx.com">
  <metadata>
    <name>Pont des chèvres- Ranc de Bannes</name>
    <desc><![CDATA[2019-01 - Cévennes méridionales - Pont des chèvres - Ranc de Bannes

[b]album[/b] : [url]https://photos.app.goo.gl/kagdVU7vASZrtK3bA[/url]
[img]https://blogger.googleusercontent.com/img/b/R29vZ2xl/AVvXsEgHXxgl8JMTf8oqn3DB7XpMNATEbp6cJ_W1IT9rRKTN2fwe8j_tBwE-O_ugtrLs97MO0JMeosXw9RhX5e6RzV_DOIlT4_VGgzGj7sejq6ShF5r3WN0enlLPapm1aP8FWGps0rFex4wdToLAatkc95kjtYFTXEFwwFZN-ZtYXN0rhrWukTwwPkZV99f691ge/s600/2019-1-12%20-%20Ranc%20Banes.JPG[/img]
[b]Idées de randonnées dans la même région[/b]
Parcours : [url]https://www.visugpx.com/membres/24856/montagne/cevennes/[/url]
Photos : [url]https://jcvertygo.blogspot.com/p/cevennes-meridionales.html[/url]]]></desc>
  </metadata>
  <trk>
    <name><![CDATA[2019-01-12_16h00m43_pont des chèvres- ranc de bannes]]></name>
    <extensions>
      <line xmlns="http://www.topografix.com/GPX/gpx_style/0/2">
        <color>0000FF</color>
        <width>4</width>
      </line>
    </extensions>
    <trkseg>
      <trkpt lat="43.95203" lon="3.70934">
        <ele>172</ele>
        <time>2019-01-12T11:40:29Z</time>
      </trkpt>
      <trkpt lat="43.952" lon="3.7093">
        <ele>172</ele>
        <time>2019-01-12T11:40:30Z</time>
      </trkpt>
      <trkpt lat="43.95198" lon="3.70925">
        <ele>172</ele>
        <time>2019-01-12T11:40:30Z</time>
      </trkpt>
      <trkpt lat="43.95193" lon="3.70922">
        <ele>172</ele>
        <time>2019-01-12T11:40:30Z</time>
      </trkpt>
      <trkpt lat="43.9519" lon="3.70916">
        <ele>172</ele>
        <time>2019-01-12T11:40:30Z</time>
      </trkpt>
      <trkpt lat="43.95185" lon="3.70912">
        <ele>172</ele>
        <time>2019-01-12T11:40:45Z</time>
      </trkpt>
      <trkpt lat="43.95183" lon="3.70908">
        <ele>172</ele>
        <time>2019-01-12T11:40:46Z</time>
      </trkpt>
      <trkpt lat="43.9518" lon="3.70904">
        <ele>172</ele>
        <time>2019-01-12T11:40:46Z</time>
      </trkpt>
      <trkpt lat="43.95172" lon="3.70903">
        <ele>172</ele>
        <time>2019-01-12T11:40:46Z</time>
      </trkpt>
      <trkpt lat="43.9517" lon="3.70899">
        <ele>172</ele>
        <time>2019-01-12T11:41:05Z</time>
      </trkpt>
      <trkpt lat="43.9517" lon="3.70895">
        <ele>172</ele>
        <time>2019-01-12T11:41:06Z</time>
      </trkpt>
      <trkpt lat="43.95168" lon="3.70892">
        <ele>172</ele>
        <time>2019-01-12T11:41:06Z</time>
      </trkpt>
      <trkpt lat="43.95165" lon="3.7089">
        <ele>172</ele>
        <time>2019-01-12T11:41:06Z</time>
      </trkpt>
      <trkpt lat="43.95161" lon="3.70888">
        <ele>172</ele>
        <time>2019-01-12T11:41:06Z</time>
      </trkpt>
      <trkpt lat="43.95157" lon="3.70885">
        <ele>172</ele>
        <time>2019-01-12T11:41:21Z</time>
      </trkpt>
      <trkpt lat="43.95153" lon="3.70881">
        <ele>172</ele>
        <time>2019-01-12T11:41:22Z</time>
      </trkpt>
      <trkpt lat="43.9515" lon="3.70877">
        <ele>172</ele>
        <time>2019-01-12T11:41:22Z</time>
      </trkpt>
      <trkpt lat="43.95146" lon="3.70873">
        <ele>197</ele>
        <time>2019-01-12T11:41:22Z</time>
      </trkpt>
      <trkpt lat="43.95143" lon="3.70871">
        <ele>197</ele>
        <time>2019-01-12T11:41:37Z</time>
      </trkpt>
      <trkpt lat="43.95139" lon="3.70868">
        <ele>197</ele>
        <time>2019-01-12T11:41:38Z</time>
      </trkpt>
      <trkpt lat="43.95134" lon="3.70865">
        <ele>197</ele>
        <time>2019-01-12T11:41:38Z</time>
      </trkpt>
      <trkpt lat="43.95131" lon="3.70862">
        <ele>197</ele>
        <time>2019-01-12T11:41:38Z</time>
      </trkpt>
      <trkpt lat="43.95127" lon="3.7086">
        <ele>197</ele>
        <time>2019-01-12T11:41:53Z</time>
      </trkpt>
      <trkpt lat="43.95122" lon="3.70857">
        <ele>176</ele>
        <time>2019-01-12T11:41:54Z</time>
      </trkpt>
      <trkpt lat="43.95118" lon="3.70853">
        <ele>176</ele>
        <time>2019-01-12T11:41:54Z</time>
      </trkpt>
      <trkpt lat="43.95114" lon="3.7085">
        <ele>176</ele>
        <time>2019-01-12T11:41:54Z</time>
      </trkpt>
      <trkpt lat="43.9511" lon="3.70847">
        <ele>176</ele>
        <time>2019-01-12T11:42:09Z</time>
      </trkpt>
      <trkpt lat="43.95106" lon="3.70845">
        <ele>176</ele>
        <time>2019-01-12T11:42:10Z</time>
      </trkpt>
      <trkpt lat="43.95101" lon="3.70843">
        <ele>176</ele>
        <time>2019-01-12T11:42:10Z</time>
      </trkpt>
      <trkpt lat="43.95097" lon="3.70841">
        <ele>176</ele>
        <time>2019-01-12T11:42:10Z</time>
      </trkpt>
      <trkpt lat="43.95091" lon="3.70836">
        <ele>176</ele>
        <time>2019-01-12T11:42:25Z</time>
      </trkpt>
      <trkpt lat="43.95086" lon="3.70833">
        <ele>176</ele>
        <time>2019-01-12T11:42:26Z</time>
      </trkpt>
      <trkpt lat="43.95081" lon="3.70833">
        <ele>176</ele>
        <time>2019-01-12T11:42:26Z</time>
      </trkpt>
      <trkpt lat="43.9508" lon="3.70833">
        <ele>176</ele>
        <time>2019-01-12T11:42:26Z</time>
      </trkpt>
      <trkpt lat="43.95069" lon="3.70825">
        <ele>176</ele>
        <time>2019-01-12T11:43:17Z</time>
      </trkpt>
      <trkpt lat="43.95065" lon="3.70821">
        <ele>176</ele>
        <time>2019-01-12T11:43:18Z</time>
      </trkpt>
      <trkpt lat="43.95061" lon="3.70818">
        <ele>176</ele>
        <time>2019-01-12T11:43:18Z</time>
      </trkpt>
      <trkpt lat="43.95056" lon="3.70814">
        <ele>176</ele>
        <time>2019-01-12T11:43:18Z</time>
      </trkpt>
      <trkpt lat="43.95051" lon="3.7081">
        <ele>176</ele>
        <time>2019-01-12T11:43:18Z</time>
      </trkpt>
      <trkpt lat="43.95055" lon="3.70827">
        <ele>176</ele>
        <time>2019-01-12T11:45:13Z</time>
      </trkpt>
      <trkpt lat="43.95056" lon="3.70827">
        <ele>176</ele>
        <time>2019-01-12T11:45:14Z</time>
      </trkpt>
      <trkpt lat="43.95055" lon="3.70831">
        <ele>176</ele>
        <time>2019-01-12T11:45:14Z</time>
      </trkpt>
      <trkpt lat="43.95055" lon="3.70831">
        <ele>176</ele>
        <time>2019-01-12T11:45:14Z</time>
      </trkpt>
      <trkpt lat="43.95054" lon="3.70831">
        <ele>176</ele>
        <time>2019-01-12T11:45:14Z</time>
      </trkpt>
      <trkpt lat="43.95053" lon="3.70834">
        <ele>176</ele>
        <time>2019-01-12T11:45:29Z</time>
      </trkpt>
      <trkpt lat="43.95053" lon="3.70837">
        <ele>176</ele>
        <time>2019-01-12T11:45:30Z</time>
      </trkpt>
      <trkpt lat="43.95051" lon="3.70841">
        <ele>176</ele>
        <time>2019-01-12T11:45:30Z</time>
      </trkpt>
      <trkpt lat="43.95049" lon="3.70846">
        <ele>176</ele>
        <time>2019-01-12T11:45:30Z</time>
      </trkpt>
      <trkpt lat="43.95048" lon="3.70851">
        <ele>176</ele>
        <time>2019-01-12T11:45:45Z</time>
      </trkpt>
      <trkpt lat="43.95046" lon="3.70857">
        <ele>176</ele>
        <time>2019-01-12T11:45:46Z</time>
      </trkpt>
      <trkpt lat="43.95047" lon="3.70861">
        <ele>176</ele>
        <time>2019-01-12T11:45:46Z</time>
      </trkpt>
      <trkpt lat="43.9505" lon="3.70866">
        <ele>176</ele>
        <time>2019-01-12T11:45:46Z</time>
      </trkpt>
      <trkpt lat="43.95053" lon="3.70869">
        <ele>176</ele>
        <time>2019-01-12T11:47:13Z</time>
      </trkpt>
      <trkpt lat="43.95053" lon="3.7087">
        <ele>176</ele>
        <time>2019-01-12T11:47:14Z</time>
      </trkpt>
      <trkpt lat="43.95054" lon="3.70871">
        <ele>176</ele>
        <time>2019-01-12T11:47:14Z</time>
      </trkpt>
      <trkpt lat="43.95056" lon="3.70874">
        <ele>176</ele>
        <time>2019-01-12T11:47:14Z</time>
      </trkpt>
      <trkpt lat="43.95058" lon="3.70877">
        <ele>180</ele>
        <time>2019-01-12T11:47:14Z</time>
      </trkpt>
      <trkpt lat="43.95061" lon="3.70882">
        <ele>180</ele>
        <time>2019-01-12T11:47:29Z</time>
      </trkpt>
      <trkpt lat="43.95064" lon="3.70885">
        <ele>180</ele>
        <time>2019-01-12T11:47:30Z</time>
      </trkpt>
      <trkpt lat="43.95068" lon="3.70889">
        <ele>180</ele>
        <time>2019-01-12T11:47:30Z</time>
      </trkpt>
      <trkpt lat="43.9507" lon="3.70894">
        <ele>180</ele>
        <time>2019-01-12T11:47:30Z</time>
      </trkpt>
      <trkpt lat="43.95073" lon="3.70897">
        <ele>180</ele>
        <time>2019-01-12T11:47:45Z</time>
      </trkpt>
      <trkpt lat="43.95077" lon="3.709">
        <ele>180</ele>
        <time>2019-01-12T11:47:46Z</time>
      </trkpt>
      <trkpt lat="43.9508" lon="3.70904">
        <ele>180</ele>
        <time>2019-01-12T11:47:46Z</time>
      </trkpt>
      <trkpt lat="43.95084" lon="3.70908">
        <ele>180</ele>
        <time>2019-01-12T11:47:46Z</time>
      </trkpt>
      <trkpt lat="43.95086" lon="3.70912">
        <ele>180</ele>
        <time>2019-01-12T11:48:02Z</time>
      </trkpt>
      <trkpt lat="43.95089" lon="3.70915">
        <ele>180</ele>
        <time>2019-01-12T11:48:02Z</time>
      </trkpt>
      <trkpt lat="43.95093" lon="3.7092">
        <ele>180</ele>
        <time>2019-01-12T11:48:02Z</time>
      </trkpt>
      <trkpt lat="43.95097" lon="3.70925">
        <ele>180</ele>
        <time>2019-01-12T11:48:02Z</time>
      </trkpt>
      <trkpt lat="43.951" lon="3.7093">
        <ele>180</ele>
        <time>2019-01-12T11:48:17Z</time>
      </trkpt>
      <trkpt lat="43.95104" lon="3.70933">
        <ele>180</ele>
        <time>2019-01-12T11:48:18Z</time>
      </trkpt>
      <trkpt lat="43.95108" lon="3.70934">
        <ele>180</ele>
        <time>2019-01-12T11:48:18Z</time>
      </trkpt>
      <trkpt lat="43.95111" lon="3.70938">
        <ele>180</ele>
        <time>2019-01-12T11:48:18Z</time>
      </trkpt>
      <trkpt lat="43.95113" lon="3.70941">
        <ele>180</ele>
        <time>2019-01-12T11:48:33Z</time>
      </trkpt>
      <trkpt lat="43.95115" lon="3.70945">
        <ele>180</ele>
        <time>2019-01-12T11:48:34Z</time>
      </trkpt>
      <trkpt lat="43.95117" lon="3.7095">
        <ele>180</ele>
        <time>2019-01-12T11:48:34Z</time>
      </trkpt>
      <trkpt lat="43.9512" lon="3.70955">
        <ele>180</ele>
        <time>2019-01-12T11:48:34Z</time>
      </trkpt>
      <trkpt lat="43.95123" lon="3.70958">
        <ele>180</ele>
        <time>2019-01-12T11:48:49Z</time>
      </trkpt>
      <trkpt lat="43.95126" lon="3.70961">
        <ele>183</ele>
        <time>2019-01-12T11:48:50Z</time>
      </trkpt>
      <trkpt lat="43.95129" lon="3.70963">
        <ele>183</ele>
        <time>2019-01-12T11:48:50Z</time>
      </trkpt>
      <trkpt lat="43.95133" lon="3.70966">
        <ele>183</ele>
        <time>2019-01-12T11:48:50Z</time>
      </trkpt>
      <trkpt lat="43.95136" lon="3.70969">
        <ele>183</ele>
        <time>2019-01-12T11:49:30Z</time>
      </trkpt>
      <trkpt lat="43.9514" lon="3.70975">
        <ele>183</ele>
        <time>2019-01-12T11:49:30Z</time>
      </trkpt>
      <trkpt lat="43.9514" lon="3.70976">
        <ele>183</ele>
        <time>2019-01-12T11:49:30Z</time>
      </trkpt>
      <trkpt lat="43.9514" lon="3.70976">
        <ele>183</ele>
        <time>2019-01-12T11:49:30Z</time>
      </trkpt>
      <trkpt lat="43.95143" lon="3.70978">
        <ele>183</ele>
        <time>2019-01-12T11:49:30Z</time>
      </trkpt>
      <trkpt lat="43.95145" lon="3.70982">
        <ele>183</ele>
        <time>2019-01-12T11:49:46Z</time>
      </trkpt>
      <trkpt lat="43.95147" lon="3.70984">
        <ele>183</ele>
        <time>2019-01-12T11:49:46Z</time>
      </trkpt>
      <trkpt lat="43.95149" lon="3.70987">
        <ele>183</ele>
        <time>2019-01-12T11:49:46Z</time>
      </trkpt>
      <trkpt lat="43.95152" lon="3.70992">
        <ele>183</ele>
        <time>2019-01-12T11:49:46Z</time>
      </trkpt>
      <trkpt lat="43.95156" lon="3.70998">
        <ele>183</ele>
        <time>2019-01-12T11:50:01Z</time>
      </trkpt>
      <trkpt lat="43.95159" lon="3.71002">
        <ele>183</ele>
        <time>2019-01-12T11:50:02Z</time>
      </trkpt>
      <trkpt lat="43.95164" lon="3.71007">
        <ele>183</ele>
        <time>2019-01-12T11:50:02Z</time>
      </trkpt>
      <trkpt lat="43.95167" lon="3.71009">
        <ele>183</ele>
        <time>2019-01-12T11:50:02Z</time>
      </trkpt>
      <trkpt lat="43.95173" lon="3.7101">
        <ele>183</ele>
        <time>2019-01-12T11:50:29Z</time>
      </trkpt>
      <trkpt lat="43.95174" lon="3.7101">
        <ele>183</ele>
        <time>2019-01-12T11:50:30Z</time>
      </trkpt>
      <trkpt lat="43.95174" lon="3.71014">
        <ele>183</ele>
        <time>2019-01-12T11:50:30Z</time>
      </trkpt>
      <trkpt lat="43.95174" lon="3.71019">
        <ele>183</ele>
        <time>2019-01-12T11:50:30Z</time>
      </trkpt>
      <trkpt lat="43.95176" lon="3.71026">
        <ele>183</ele>
        <time>2019-01-12T11:50:30Z</time>
      </trkpt>
      <trkpt lat="43.95179" lon="3.71036">
        <ele>183</ele>
        <time>2019-01-12T11:50:45Z</time>
      </trkpt>
      <trkpt lat="43.95185" lon="3.71044">
        <ele>228</ele>
        <time>2019-01-12T11:50:46Z</time>
      </trkpt>
      <trkpt lat="43.9519" lon="3.71048">
        <ele>228</ele>
        <time>2019-01-12T11:50:46Z</time>
      </trkpt>
      <trkpt lat="43.95193" lon="3.71052">
        <ele>228</ele>
        <time>2019-01-12T11:50:46Z</time>
      </trkpt>
      <trkpt lat="43.95195" lon="3.71056">
        <ele>228</ele>
        <time>2019-01-12T11:51:25Z</time>
      </trkpt>
      <trkpt lat="43.95197" lon="3.71056">
        <ele>228</ele>
        <time>2019-01-12T11:51:26Z</time>
      </trkpt>
      <trkpt lat="43.95199" lon="3.71058">
        <ele>228</ele>
        <time>2019-01-12T11:51:26Z</time>
      </trkpt>
      <trkpt lat="43.95201" lon="3.71059">
        <ele>228</ele>
        <time>2019-01-12T11:51:26Z</time>
      </trkpt>
      <trkpt lat="43.95203" lon="3.71062">
        <ele>228</ele>
        <time>2019-01-12T11:51:26Z</time>
      </trkpt>
      <trkpt lat="43.95205" lon="3.71063">
        <ele>228</ele>
        <time>2019-01-12T11:52:05Z</time>
      </trkpt>
      <trkpt lat="43.95209" lon="3.71066">
        <ele>196</ele>
        <time>2019-01-12T11:52:06Z</time>
      </trkpt>
      <trkpt lat="43.95211" lon="3.71071">
        <ele>196</ele>
        <time>2019-01-12T11:52:06Z</time>
      </trkpt>
      <trkpt lat="43.95214" lon="3.71076">
        <ele>196</ele>
        <time>2019-01-12T11:52:06Z</time>
      </trkpt>
      <trkpt lat="43.95218" lon="3.7108">
        <ele>196</ele>
        <time>2019-01-12T11:52:21Z</time>
      </trkpt>
      <trkpt lat="43.95222" lon="3.71083">
        <ele>196</ele>
        <time>2019-01-12T11:52:22Z</time>
      </trkpt>
      <trkpt lat="43.95225" lon="3.71084">
        <ele>196</ele>
        <time>2019-01-12T11:52:22Z</time>
      </trkpt>
      <trkpt lat="43.95229" lon="3.71087">
        <ele>196</ele>
        <time>2019-01-12T11:52:22Z</time>
      </trkpt>
      <trkpt lat="43.95232" lon="3.71088">
        <ele>196</ele>
        <time>2019-01-12T11:52:41Z</time>
      </trkpt>
      <trkpt lat="43.95235" lon="3.71091">
        <ele>196</ele>
        <time>2019-01-12T11:52:42Z</time>
      </trkpt>
      <trkpt lat="43.95237" lon="3.71092">
        <ele>196</ele>
        <time>2019-01-12T11:52:42Z</time>
      </trkpt>
      <trkpt lat="43.95238" lon="3.71093">
        <ele>196</ele>
        <time>2019-01-12T11:52:42Z</time>
      </trkpt>
      <trkpt lat="43.95242" lon="3.71096">
        <ele>196</ele>
        <time>2019-01-12T11:52:42Z</time>
      </trkpt>
      <trkpt lat="43.95244" lon="3.71097">
        <ele>196</ele>
        <time>2019-01-12T11:53:01Z</time>
      </trkpt>
      <trkpt lat="43.95248" lon="3.71102">
        <ele>196</ele>
        <time>2019-01-12T11:53:02Z</time>
      </trkpt>
      <trkpt lat="43.9525" lon="3.71104">
        <ele>196</ele>
        <time>2019-01-12T11:53:02Z</time>
      </trkpt>
      <trkpt lat="43.95252" lon="3.71107">
        <ele>196</ele>
        <time>2019-01-12T11:53:02Z</time>
      </trkpt>
      <trkpt lat="43.95252" lon="3.71108">
        <ele>196</ele>
        <time>2019-01-12T11:54:22Z</time>
      </trkpt>
      <trkpt lat="43.95254" lon="3.71109">
        <ele>196</ele>
        <time>2019-01-12T11:54:22Z</time>
      </trkpt>
      <trkpt lat="43.95258" lon="3.71121">
        <ele>196</ele>
        <time>2019-01-12T11:54:22Z</time>
      </trkpt>
      <trkpt lat="43.95263" lon="3.71132">
        <ele>231</ele>
        <time>2019-01-12T11:54:22Z</time>
      </trkpt>
      <trkpt lat="43.9527" lon="3.71143">
        <ele>231</ele>
        <time>2019-01-12T11:54:49Z</time>
      </trkpt>
      <trkpt lat="43.95274" lon="3.71147">
        <ele>231</ele>
        <time>2019-01-12T11:54:50Z</time>
      </trkpt>
      <trkpt lat="43.95276" lon="3.71148">
        <ele>231</ele>
        <time>2019-01-12T11:54:50Z</time>
      </trkpt>
      <trkpt lat="43.95278" lon="3.71151">
        <ele>231</ele>
        <time>2019-01-12T11:54:50Z</time>
      </trkpt>
      <trkpt lat="43.95282" lon="3.71153">
        <ele>231</ele>
        <time>2019-01-12T11:55:14Z</time>
      </trkpt>
      <trkpt lat="43.95284" lon="3.71158">
        <ele>231</ele>
        <time>2019-01-12T11:55:14Z</time>
      </trkpt>
      <trkpt lat="43.95289" lon="3.71162">
        <ele>231</ele>
        <time>2019-01-12T11:55:14Z</time>
      </trkpt>
      <trkpt lat="43.95293" lon="3.71166">
        <ele>232</ele>
        <time>2019-01-12T11:55:14Z</time>
      </trkpt>
      <trkpt lat="43.95294" lon="3.71167">
        <ele>232</ele>
        <time>2019-01-12T11:55:37Z</time>
      </trkpt>
      <trkpt lat="43.95296" lon="3.7117">
        <ele>232</ele>
        <time>2019-01-12T11:55:38Z</time>
      </trkpt>
      <trkpt lat="43.95299" lon="3.71171">
        <ele>232</ele>
        <time>2019-01-12T11:55:38Z</time>
      </trkpt>
      <trkpt lat="43.95302" lon="3.71173">
        <ele>232</ele>
        <time>2019-01-12T11:55:38Z</time>
      </trkpt>
      <trkpt lat="43.95305" lon="3.71175">
        <ele>232</ele>
        <time>2019-01-12T11:55:38Z</time>
      </trkpt>
      <trkpt lat="43.95307" lon="3.71176">
        <ele>232</ele>
        <time>2019-01-12T11:56:46Z</time>
      </trkpt>
      <trkpt lat="43.9531" lon="3.71178">
        <ele>232</ele>
        <time>2019-01-12T11:56:46Z</time>
      </trkpt>
      <trkpt lat="43.9532" lon="3.71184">
        <ele>232</ele>
        <time>2019-01-12T11:56:46Z</time>
      </trkpt>
      <trkpt lat="43.95337" lon="3.71193">
        <ele>232</ele>
        <time>2019-01-12T11:56:46Z</time>
      </trkpt>
      <trkpt lat="43.95341" lon="3.71194">
        <ele>232</ele>
        <time>2019-01-12T12:00:33Z</time>
      </trkpt>
      <trkpt lat="43.95365" lon="3.71216">
        <ele>265</ele>
        <time>2019-01-12T12:00:34Z</time>
      </trkpt>
      <trkpt lat="43.95369" lon="3.71219">
        <ele>265</ele>
        <time>2019-01-12T12:00:34Z</time>
      </trkpt>
      <trkpt lat="43.95394" lon="3.71234">
        <ele>283</ele>
        <time>2019-01-12T12:00:34Z</time>
      </trkpt>
      <trkpt lat="43.95419" lon="3.71254">
        <ele>283</ele>
        <time>2019-01-12T12:02:53Z</time>
      </trkpt>
      <trkpt lat="43.95429" lon="3.71261">
        <ele>283</ele>
        <time>2019-01-12T12:02:54Z</time>
      </trkpt>
      <trkpt lat="43.95437" lon="3.71273">
        <ele>283</ele>
        <time>2019-01-12T12:02:54Z</time>
      </trkpt>
      <trkpt lat="43.95447" lon="3.71282">
        <ele>283</ele>
        <time>2019-01-12T12:02:54Z</time>
      </trkpt>
      <trkpt lat="43.9546" lon="3.71291">
        <ele>291</ele>
        <time>2019-01-12T12:04:34Z</time>
      </trkpt>
      <trkpt lat="43.95476" lon="3.71309">
        <ele>324</ele>
        <time>2019-01-12T12:04:34Z</time>
      </trkpt>
      <trkpt lat="43.95487" lon="3.71327">
        <ele>324</ele>
        <time>2019-01-12T12:04:34Z</time>
      </trkpt>
      <trkpt lat="43.9549" lon="3.71331">
        <ele>324</ele>
        <time>2019-01-12T12:04:34Z</time>
      </trkpt>
      <trkpt lat="43.95502" lon="3.71338">
        <ele>324</ele>
        <time>2019-01-12T12:05:18Z</time>
      </trkpt>
      <trkpt lat="43.95507" lon="3.71345">
        <ele>324</ele>
        <time>2019-01-12T12:05:18Z</time>
      </trkpt>
      <trkpt lat="43.95511" lon="3.71348">
        <ele>324</ele>
        <time>2019-01-12T12:05:18Z</time>
      </trkpt>
      <trkpt lat="43.95513" lon="3.7135">
        <ele>324</ele>
        <time>2019-01-12T12:05:18Z</time>
      </trkpt>
      <trkpt lat="43.95529" lon="3.71358">
        <ele>324</ele>
        <time>2019-01-12T12:05:18Z</time>
      </trkpt>
      <trkpt lat="43.9554" lon="3.71357">
        <ele>324</ele>
        <time>2019-01-12T12:05:33Z</time>
      </trkpt>
      <trkpt lat="43.95542" lon="3.71356">
        <ele>327</ele>
        <time>2019-01-12T12:05:34Z</time>
      </trkpt>
      <trkpt lat="43.95548" lon="3.71355">
        <ele>327</ele>
        <time>2019-01-12T12:05:34Z</time>
      </trkpt>
      <trkpt lat="43.95552" lon="3.71355">
        <ele>327</ele>
        <time>2019-01-12T12:05:34Z</time>
      </trkpt>
      <trkpt lat="43.95555" lon="3.71354">
        <ele>327</ele>
        <time>2019-01-12T12:06:58Z</time>
      </trkpt>
      <trkpt lat="43.95561" lon="3.71355">
        <ele>327</ele>
        <time>2019-01-12T12:06:58Z</time>
      </trkpt>
      <trkpt lat="43.95563" lon="3.71356">
        <ele>327</ele>
        <time>2019-01-12T12:06:58Z</time>
      </trkpt>
      <trkpt lat="43.95566" lon="3.71356">
        <ele>327</ele>
        <time>2019-01-12T12:06:58Z</time>
      </trkpt>
      <trkpt lat="43.95573" lon="3.71357">
        <ele>327</ele>
        <time>2019-01-12T12:07:13Z</time>
      </trkpt>
      <trkpt lat="43.95577" lon="3.7136">
        <ele>327</ele>
        <time>2019-01-12T12:07:14Z</time>
      </trkpt>
      <trkpt lat="43.95584" lon="3.71364">
        <ele>327</ele>
        <time>2019-01-12T12:07:14Z</time>
      </trkpt>
      <trkpt lat="43.95587" lon="3.71365">
        <ele>327</ele>
        <time>2019-01-12T12:07:14Z</time>
      </trkpt>
      <trkpt lat="43.95589" lon="3.71365">
        <ele>327</ele>
        <time>2019-01-12T12:07:33Z</time>
      </trkpt>
      <trkpt lat="43.9559" lon="3.71365">
        <ele>327</ele>
        <time>2019-01-12T12:07:34Z</time>
      </trkpt>
      <trkpt lat="43.95594" lon="3.71366">
        <ele>327</ele>
        <time>2019-01-12T12:07:34Z</time>
      </trkpt>
      <trkpt lat="43.95597" lon="3.71367">
        <ele>327</ele>
        <time>2019-01-12T12:07:34Z</time>
      </trkpt>
      <trkpt lat="43.95601" lon="3.7137">
        <ele>327</ele>
        <time>2019-01-12T12:07:34Z</time>
      </trkpt>
      <trkpt lat="43.95602" lon="3.7137">
        <ele>327</ele>
        <time>2019-01-12T12:08:01Z</time>
      </trkpt>
      <trkpt lat="43.95605" lon="3.71373">
        <ele>327</ele>
        <time>2019-01-12T12:08:02Z</time>
      </trkpt>
      <trkpt lat="43.95607" lon="3.71375">
        <ele>371</ele>
        <time>2019-01-12T12:08:02Z</time>
      </trkpt>
      <trkpt lat="43.95608" lon="3.71376">
        <ele>371</ele>
        <time>2019-01-12T12:08:02Z</time>
      </trkpt>
      <trkpt lat="43.95614" lon="3.71383">
        <ele>371</ele>
        <time>2019-01-12T12:08:02Z</time>
      </trkpt>
      <trkpt lat="43.95616" lon="3.71389">
        <ele>371</ele>
        <time>2019-01-12T12:08:21Z</time>
      </trkpt>
      <trkpt lat="43.95617" lon="3.7139">
        <ele>371</ele>
        <time>2019-01-12T12:08:22Z</time>
      </trkpt>
      <trkpt lat="43.95624" lon="3.71398">
        <ele>371</ele>
        <time>2019-01-12T12:08:22Z</time>
      </trkpt>
      <trkpt lat="43.95625" lon="3.714">
        <ele>365</ele>
        <time>2019-01-12T12:08:22Z</time>
      </trkpt>
      <trkpt lat="43.95637" lon="3.71416">
        <ele>365</ele>
        <time>2019-01-12T12:11:21Z</time>
      </trkpt>
      <trkpt lat="43.95642" lon="3.71424">
        <ele>365</ele>
        <time>2019-01-12T12:11:22Z</time>
      </trkpt>
      <trkpt lat="43.95668" lon="3.71455">
        <ele>365</ele>
        <time>2019-01-12T12:11:22Z</time>
      </trkpt>
      <trkpt lat="43.95669" lon="3.71457">
        <ele>365</ele>
        <time>2019-01-12T12:11:22Z</time>
      </trkpt>
      <trkpt lat="43.95671" lon="3.71458">
        <ele>365</ele>
        <time>2019-01-12T12:14:41Z</time>
      </trkpt>
      <trkpt lat="43.95687" lon="3.71478">
        <ele>399</ele>
        <time>2019-01-12T12:14:42Z</time>
      </trkpt>
      <trkpt lat="43.95691" lon="3.7149">
        <ele>399</ele>
        <time>2019-01-12T12:14:42Z</time>
      </trkpt>
      <trkpt lat="43.95693" lon="3.71496">
        <ele>399</ele>
        <time>2019-01-12T12:14:42Z</time>
      </trkpt>
      <trkpt lat="43.95694" lon="3.71501">
        <ele>399</ele>
        <time>2019-01-12T12:16:25Z</time>
      </trkpt>
      <trkpt lat="43.957" lon="3.71506">
        <ele>399</ele>
        <time>2019-01-12T12:16:26Z</time>
      </trkpt>
      <trkpt lat="43.9571" lon="3.71509">
        <ele>417</ele>
        <time>2019-01-12T12:16:26Z</time>
      </trkpt>
      <trkpt lat="43.95728" lon="3.71513">
        <ele>417</ele>
        <time>2019-01-12T12:16:26Z</time>
      </trkpt>
      <trkpt lat="43.95742" lon="3.71521">
        <ele>417</ele>
        <time>2019-01-12T12:19:45Z</time>
      </trkpt>
      <trkpt lat="43.95753" lon="3.71523">
        <ele>417</ele>
        <time>2019-01-12T12:19:46Z</time>
      </trkpt>
      <trkpt lat="43.95761" lon="3.71524">
        <ele>417</ele>
        <time>2019-01-12T12:19:46Z</time>
      </trkpt>
      <trkpt lat="43.95775" lon="3.7151">
        <ele>417</ele>
        <time>2019-01-12T12:19:46Z</time>
      </trkpt>
      <trkpt lat="43.9578" lon="3.71506">
        <ele>417</ele>
        <time>2019-01-12T12:19:46Z</time>
      </trkpt>
      <trkpt lat="43.95791" lon="3.71501">
        <ele>417</ele>
        <time>2019-01-12T12:20:05Z</time>
      </trkpt>
      <trkpt lat="43.95795" lon="3.71499">
        <ele>450</ele>
        <time>2019-01-12T12:20:06Z</time>
      </trkpt>
      <trkpt lat="43.95801" lon="3.71495">
        <ele>450</ele>
        <time>2019-01-12T12:20:06Z</time>
      </trkpt>
      <trkpt lat="43.95805" lon="3.71489">
        <ele>450</ele>
        <time>2019-01-12T12:20:06Z</time>
      </trkpt>
      <trkpt lat="43.95808" lon="3.71484">
        <ele>450</ele>
        <time>2019-01-12T12:20:45Z</time>
      </trkpt>
      <trkpt lat="43.95809" lon="3.71483">
        <ele>450</ele>
        <time>2019-01-12T12:20:46Z</time>
      </trkpt>
      <trkpt lat="43.95811" lon="3.71478">
        <ele>450</ele>
        <time>2019-01-12T12:20:46Z</time>
      </trkpt>
      <trkpt lat="43.95812" lon="3.71477">
        <ele>450</ele>
        <time>2019-01-12T12:20:46Z</time>
      </trkpt>
      <trkpt lat="43.95812" lon="3.71476">
        <ele>450</ele>
        <time>2019-01-12T12:20:46Z</time>
      </trkpt>
      <trkpt lat="43.95816" lon="3.71475">
        <ele>450</ele>
        <time>2019-01-12T12:24:25Z</time>
      </trkpt>
      <trkpt lat="43.95819" lon="3.71474">
        <ele>450</ele>
        <time>2019-01-12T12:24:26Z</time>
      </trkpt>
      <trkpt lat="43.9582" lon="3.71475">
        <ele>450</ele>
        <time>2019-01-12T12:24:26Z</time>
      </trkpt>
      <trkpt lat="43.95823" lon="3.71473">
        <ele>450</ele>
        <time>2019-01-12T12:24:26Z</time>
      </trkpt>
      <trkpt lat="43.95826" lon="3.71468">
        <ele>450</ele>
        <time>2019-01-12T12:24:26Z</time>
      </trkpt>
      <trkpt lat="43.95831" lon="3.71461">
        <ele>450</ele>
        <time>2019-01-12T12:25:49Z</time>
      </trkpt>
      <trkpt lat="43.95833" lon="3.71458">
        <ele>447</ele>
        <time>2019-01-12T12:25:50Z</time>
      </trkpt>
      <trkpt lat="43.95843" lon="3.7145">
        <ele>447</ele>
        <time>2019-01-12T12:25:50Z</time>
      </trkpt>
      <trkpt lat="43.95847" lon="3.71444">
        <ele>447</ele>
        <time>2019-01-12T12:25:50Z</time>
      </trkpt>
      <trkpt lat="43.9585" lon="3.71438">
        <ele>447</ele>
        <time>2019-01-12T12:26:05Z</time>
      </trkpt>
      <trkpt lat="43.95854" lon="3.71433">
        <ele>447</ele>
        <time>2019-01-12T12:26:06Z</time>
      </trkpt>
      <trkpt lat="43.95858" lon="3.7143">
        <ele>447</ele>
        <time>2019-01-12T12:26:06Z</time>
      </trkpt>
      <trkpt lat="43.95861" lon="3.71425">
        <ele>447</ele>
        <time>2019-01-12T12:26:06Z</time>
      </trkpt>
      <trkpt lat="43.95866" lon="3.71418">
        <ele>447</ele>
        <time>2019-01-12T12:26:46Z</time>
      </trkpt>
      <trkpt lat="43.95867" lon="3.71418">
        <ele>447</ele>
        <time>2019-01-12T12:26:46Z</time>
      </trkpt>
      <trkpt lat="43.95871" lon="3.71419">
        <ele>447</ele>
        <time>2019-01-12T12:26:46Z</time>
      </trkpt>
      <trkpt lat="43.95871" lon="3.71418">
        <ele>447</ele>
        <time>2019-01-12T12:26:46Z</time>
      </trkpt>
      <trkpt lat="43.95872" lon="3.71419">
        <ele>447</ele>
        <time>2019-01-12T12:26:46Z</time>
      </trkpt>
      <trkpt lat="43.95876" lon="3.7142">
        <ele>481</ele>
        <time>2019-01-12T12:27:21Z</time>
      </trkpt>
      <trkpt lat="43.95877" lon="3.7142">
        <ele>481</ele>
        <time>2019-01-12T12:27:22Z</time>
      </trkpt>
      <trkpt lat="43.95881" lon="3.71421">
        <ele>481</ele>
        <time>2019-01-12T12:27:22Z</time>
      </trkpt>
      <trkpt lat="43.95884" lon="3.7142">
        <ele>481</ele>
        <time>2019-01-12T12:27:22Z</time>
      </trkpt>
      <trkpt lat="43.95893" lon="3.71418">
        <ele>481</ele>
        <time>2019-01-12T12:27:22Z</time>
      </trkpt>
      <trkpt lat="43.95896" lon="3.71417">
        <ele>481</ele>
        <time>2019-01-12T12:27:41Z</time>
      </trkpt>
      <trkpt lat="43.95904" lon="3.71414">
        <ele>481</ele>
        <time>2019-01-12T12:27:42Z</time>
      </trkpt>
      <trkpt lat="43.95909" lon="3.71413">
        <ele>481</ele>
        <time>2019-01-12T12:27:42Z</time>
      </trkpt>
      <trkpt lat="43.95915" lon="3.71408">
        <ele>481</ele>
        <time>2019-01-12T12:27:42Z</time>
      </trkpt>
      <trkpt lat="43.95919" lon="3.71406">
        <ele>481</ele>
        <time>2019-01-12T12:28:01Z</time>
      </trkpt>
      <trkpt lat="43.95928" lon="3.71399">
        <ele>481</ele>
        <time>2019-01-12T12:28:02Z</time>
      </trkpt>
      <trkpt lat="43.95935" lon="3.71395">
        <ele>481</ele>
        <time>2019-01-12T12:28:02Z</time>
      </trkpt>
      <trkpt lat="43.95938" lon="3.71389">
        <ele>481</ele>
        <time>2019-01-12T12:28:02Z</time>
      </trkpt>
      <trkpt lat="43.9594" lon="3.71387">
        <ele>481</ele>
        <time>2019-01-12T12:28:58Z</time>
      </trkpt>
      <trkpt lat="43.95945" lon="3.71383">
        <ele>481</ele>
        <time>2019-01-12T12:28:58Z</time>
      </trkpt>
      <trkpt lat="43.95949" lon="3.71377">
        <ele>481</ele>
        <time>2019-01-12T12:28:58Z</time>
      </trkpt>
      <trkpt lat="43.95953" lon="3.71373">
        <ele>474</ele>
        <time>2019-01-12T12:28:58Z</time>
      </trkpt>
      <trkpt lat="43.95956" lon="3.71371">
        <ele>474</ele>
        <time>2019-01-12T12:29:26Z</time>
      </trkpt>
      <trkpt lat="43.95958" lon="3.71368">
        <ele>474</ele>
        <time>2019-01-12T12:29:26Z</time>
      </trkpt>
      <trkpt lat="43.9596" lon="3.71365">
        <ele>473</ele>
        <time>2019-01-12T12:29:26Z</time>
      </trkpt>
      <trkpt lat="43.95961" lon="3.71364">
        <ele>473</ele>
        <time>2019-01-12T12:29:26Z</time>
      </trkpt>
      <trkpt lat="43.95964" lon="3.71362">
        <ele>473</ele>
        <time>2019-01-12T12:29:26Z</time>
      </trkpt>
      <trkpt lat="43.95969" lon="3.7136">
        <ele>473</ele>
        <time>2019-01-12T12:30:25Z</time>
      </trkpt>
      <trkpt lat="43.95976" lon="3.71354">
        <ele>473</ele>
        <time>2019-01-12T12:30:26Z</time>
      </trkpt>
      <trkpt lat="43.95978" lon="3.71353">
        <ele>473</ele>
        <time>2019-01-12T12:30:26Z</time>
      </trkpt>
      <trkpt lat="43.95999" lon="3.71358">
        <ele>473</ele>
        <time>2019-01-12T12:30:26Z</time>
      </trkpt>
      <trkpt lat="43.96007" lon="3.71358">
        <ele>473</ele>
        <time>2019-01-12T12:30:41Z</time>
      </trkpt>
      <trkpt lat="43.96012" lon="3.7136">
        <ele>473</ele>
        <time>2019-01-12T12:30:42Z</time>
      </trkpt>
      <trkpt lat="43.96015" lon="3.71362">
        <ele>473</ele>
        <time>2019-01-12T12:30:42Z</time>
      </trkpt>
      <trkpt lat="43.96019" lon="3.71363">
        <ele>473</ele>
        <time>2019-01-12T12:30:42Z</time>
      </trkpt>
      <trkpt lat="43.96029" lon="3.71361">
        <ele>473</ele>
        <time>2019-01-12T12:31:29Z</time>
      </trkpt>
      <trkpt lat="43.96036" lon="3.71359">
        <ele>473</ele>
        <time>2019-01-12T12:31:30Z</time>
      </trkpt>
      <trkpt lat="43.96046" lon="3.7136">
        <ele>475</ele>
        <time>2019-01-12T12:31:30Z</time>
      </trkpt>
      <trkpt lat="43.96056" lon="3.71361">
        <ele>475</ele>
        <time>2019-01-12T12:31:30Z</time>
      </trkpt>
      <trkpt lat="43.96061" lon="3.71361">
        <ele>475</ele>
        <time>2019-01-12T12:31:49Z</time>
      </trkpt>
      <trkpt lat="43.96063" lon="3.71361">
        <ele>475</ele>
        <time>2019-01-12T12:31:50Z</time>
      </trkpt>
      <trkpt lat="43.96068" lon="3.71361">
        <ele>475</ele>
        <time>2019-01-12T12:31:50Z</time>
      </trkpt>
      <trkpt lat="43.96069" lon="3.71361">
        <ele>475</ele>
        <time>2019-01-12T12:31:50Z</time>
      </trkpt>
      <trkpt lat="43.96073" lon="3.71362">
        <ele>475</ele>
        <time>2019-01-12T12:31:50Z</time>
      </trkpt>
      <trkpt lat="43.96077" lon="3.71363">
        <ele>475</ele>
        <time>2019-01-12T12:32:05Z</time>
      </trkpt>
      <trkpt lat="43.96083" lon="3.71364">
        <ele>475</ele>
        <time>2019-01-12T12:32:06Z</time>
      </trkpt>
      <trkpt lat="43.96089" lon="3.71364">
        <ele>475</ele>
        <time>2019-01-12T12:32:06Z</time>
      </trkpt>
      <trkpt lat="43.96098" lon="3.71362">
        <ele>475</ele>
        <time>2019-01-12T12:32:06Z</time>
      </trkpt>
      <trkpt lat="43.96102" lon="3.71361">
        <ele>475</ele>
        <time>2019-01-12T12:32:25Z</time>
      </trkpt>
      <trkpt lat="43.96103" lon="3.71362">
        <ele>475</ele>
        <time>2019-01-12T12:32:26Z</time>
      </trkpt>
      <trkpt lat="43.96105" lon="3.71364">
        <ele>475</ele>
        <time>2019-01-12T12:32:26Z</time>
      </trkpt>
      <trkpt lat="43.9611" lon="3.71366">
        <ele>475</ele>
        <time>2019-01-12T12:32:26Z</time>
      </trkpt>
      <trkpt lat="43.96113" lon="3.71367">
        <ele>475</ele>
        <time>2019-01-12T12:32:26Z</time>
      </trkpt>
      <trkpt lat="43.9612" lon="3.71372">
        <ele>475</ele>
        <time>2019-01-12T12:32:50Z</time>
      </trkpt>
      <trkpt lat="43.96121" lon="3.71374">
        <ele>475</ele>
        <time>2019-01-12T12:32:50Z</time>
      </trkpt>
      <trkpt lat="43.96121" lon="3.71375">
        <ele>475</ele>
        <time>2019-01-12T12:32:50Z</time>
      </trkpt>
      <trkpt lat="43.96122" lon="3.71378">
        <ele>508</ele>
        <time>2019-01-12T12:32:50Z</time>
      </trkpt>
      <trkpt lat="43.96124" lon="3.71382">
        <ele>508</ele>
        <time>2019-01-12T12:32:50Z</time>
      </trkpt>
      <trkpt lat="43.96131" lon="3.71386">
        <ele>464</ele>
        <time>2019-01-12T12:33:10Z</time>
      </trkpt>
      <trkpt lat="43.96131" lon="3.7139">
        <ele>464</ele>
        <time>2019-01-12T12:33:10Z</time>
      </trkpt>
      <trkpt lat="43.96131" lon="3.71395">
        <ele>464</ele>
        <time>2019-01-12T12:33:10Z</time>
      </trkpt>
      <trkpt lat="43.96132" lon="3.71397">
        <ele>464</ele>
        <time>2019-01-12T12:33:10Z</time>
      </trkpt>
      <trkpt lat="43.96131" lon="3.71405">
        <ele>464</ele>
        <time>2019-01-12T12:33:10Z</time>
      </trkpt>
      <trkpt lat="43.96131" lon="3.71412">
        <ele>464</ele>
        <time>2019-01-12T12:33:25Z</time>
      </trkpt>
      <trkpt lat="43.9613" lon="3.71418">
        <ele>464</ele>
        <time>2019-01-12T12:33:26Z</time>
      </trkpt>
      <trkpt lat="43.96133" lon="3.71424">
        <ele>464</ele>
        <time>2019-01-12T12:33:26Z</time>
      </trkpt>
      <trkpt lat="43.96134" lon="3.71427">
        <ele>464</ele>
        <time>2019-01-12T12:33:26Z</time>
      </trkpt>
      <trkpt lat="43.96135" lon="3.7143">
        <ele>464</ele>
        <time>2019-01-12T12:34:30Z</time>
      </trkpt>
      <trkpt lat="43.96135" lon="3.71436">
        <ele>464</ele>
        <time>2019-01-12T12:34:30Z</time>
      </trkpt>
      <trkpt lat="43.96136" lon="3.71437">
        <ele>464</ele>
        <time>2019-01-12T12:34:30Z</time>
      </trkpt>
      <trkpt lat="43.96136" lon="3.71439">
        <ele>464</ele>
        <time>2019-01-12T12:34:30Z</time>
      </trkpt>
      <trkpt lat="43.96138" lon="3.71442">
        <ele>464</ele>
        <time>2019-01-12T12:34:30Z</time>
      </trkpt>
      <trkpt lat="43.96137" lon="3.71444">
        <ele>464</ele>
        <time>2019-01-12T12:35:09Z</time>
      </trkpt>
      <trkpt lat="43.96139" lon="3.71445">
        <ele>464</ele>
        <time>2019-01-12T12:35:10Z</time>
      </trkpt>
      <trkpt lat="43.9614" lon="3.71446">
        <ele>464</ele>
        <time>2019-01-12T12:35:10Z</time>
      </trkpt>
      <trkpt lat="43.96142" lon="3.71449">
        <ele>464</ele>
        <time>2019-01-12T12:35:10Z</time>
      </trkpt>
      <trkpt lat="43.96146" lon="3.71454">
        <ele>464</ele>
        <time>2019-01-12T12:35:10Z</time>
      </trkpt>
      <trkpt lat="43.96144" lon="3.71456">
        <ele>464</ele>
        <time>2019-01-12T12:37:45Z</time>
      </trkpt>
      <trkpt lat="43.96142" lon="3.71458">
        <ele>464</ele>
        <time>2019-01-12T12:37:46Z</time>
      </trkpt>
      <trkpt lat="43.9614" lon="3.71459">
        <ele>472</ele>
        <time>2019-01-12T12:37:46Z</time>
      </trkpt>
      <trkpt lat="43.96149" lon="3.71505">
        <ele>472</ele>
        <time>2019-01-12T12:37:46Z</time>
      </trkpt>
      <trkpt lat="43.96148" lon="3.71505">
        <ele>472</ele>
        <time>2019-01-12T12:42:41Z</time>
      </trkpt>
      <trkpt lat="43.96148" lon="3.71508">
        <ele>472</ele>
        <time>2019-01-12T12:42:42Z</time>
      </trkpt>
      <trkpt lat="43.96148" lon="3.71512">
        <ele>472</ele>
        <time>2019-01-12T12:42:42Z</time>
      </trkpt>
      <trkpt lat="43.9615" lon="3.71518">
        <ele>472</ele>
        <time>2019-01-12T12:42:42Z</time>
      </trkpt>
      <trkpt lat="43.96153" lon="3.71527">
        <ele>472</ele>
        <time>2019-01-12T12:42:42Z</time>
      </trkpt>
      <trkpt lat="43.96147" lon="3.71532">
        <ele>472</ele>
        <time>2019-01-12T12:43:53Z</time>
      </trkpt>
      <trkpt lat="43.96145" lon="3.71532">
        <ele>472</ele>
        <time>2019-01-12T12:43:54Z</time>
      </trkpt>
      <trkpt lat="43.96144" lon="3.71532">
        <ele>472</ele>
        <time>2019-01-12T12:43:54Z</time>
      </trkpt>
      <trkpt lat="43.96144" lon="3.71531">
        <ele>472</ele>
        <time>2019-01-12T12:43:54Z</time>
      </trkpt>
      <trkpt lat="43.96143" lon="3.7153">
        <ele>472</ele>
        <time>2019-01-12T12:43:54Z</time>
      </trkpt>
      <trkpt lat="43.9614" lon="3.71528">
        <ele>472</ele>
        <time>2019-01-12T12:44:21Z</time>
      </trkpt>
      <trkpt lat="43.96138" lon="3.71527">
        <ele>472</ele>
        <time>2019-01-12T12:44:22Z</time>
      </trkpt>
      <trkpt lat="43.96135" lon="3.71524">
        <ele>472</ele>
        <time>2019-01-12T12:44:22Z</time>
      </trkpt>
      <trkpt lat="43.96135" lon="3.71523">
        <ele>472</ele>
        <time>2019-01-12T12:44:22Z</time>
      </trkpt>
      <trkpt lat="43.9613" lon="3.71521">
        <ele>472</ele>
        <time>2019-01-12T12:44:22Z</time>
      </trkpt>
      <trkpt lat="43.96128" lon="3.7152">
        <ele>472</ele>
        <time>2019-01-12T12:44:53Z</time>
      </trkpt>
      <trkpt lat="43.96127" lon="3.71519">
        <ele>472</ele>
        <time>2019-01-12T12:44:54Z</time>
      </trkpt>
      <trkpt lat="43.96125" lon="3.71519">
        <ele>514</ele>
        <time>2019-01-12T12:44:54Z</time>
      </trkpt>
      <trkpt lat="43.9612" lon="3.71519">
        <ele>514</ele>
        <time>2019-01-12T12:44:54Z</time>
      </trkpt>
      <trkpt lat="43.96118" lon="3.71519">
        <ele>514</ele>
        <time>2019-01-12T12:44:54Z</time>
      </trkpt>
      <trkpt lat="43.96113" lon="3.71519">
        <ele>514</ele>
        <time>2019-01-12T12:45:09Z</time>
      </trkpt>
      <trkpt lat="43.96107" lon="3.7152">
        <ele>514</ele>
        <time>2019-01-12T12:45:10Z</time>
      </trkpt>
      <trkpt lat="43.96104" lon="3.71521">
        <ele>514</ele>
        <time>2019-01-12T12:45:10Z</time>
      </trkpt>
      <trkpt lat="43.96101" lon="3.71523">
        <ele>514</ele>
        <time>2019-01-12T12:45:10Z</time>
      </trkpt>
      <trkpt lat="43.96097" lon="3.71527">
        <ele>514</ele>
        <time>2019-01-12T12:45:45Z</time>
      </trkpt>
      <trkpt lat="43.96097" lon="3.71526">
        <ele>514</ele>
        <time>2019-01-12T12:45:46Z</time>
      </trkpt>
      <trkpt lat="43.96096" lon="3.71527">
        <ele>514</ele>
        <time>2019-01-12T12:45:46Z</time>
      </trkpt>
      <trkpt lat="43.96093" lon="3.71531">
        <ele>514</ele>
        <time>2019-01-12T12:45:46Z</time>
      </trkpt>
      <trkpt lat="43.96089" lon="3.71534">
        <ele>514</ele>
        <time>2019-01-12T12:45:46Z</time>
      </trkpt>
      <trkpt lat="43.96088" lon="3.71539">
        <ele>514</ele>
        <time>2019-01-12T12:46:01Z</time>
      </trkpt>
      <trkpt lat="43.96086" lon="3.71544">
        <ele>516</ele>
        <time>2019-01-12T12:46:02Z</time>
      </trkpt>
      <trkpt lat="43.96084" lon="3.7155">
        <ele>516</ele>
        <time>2019-01-12T12:46:02Z</time>
      </trkpt>
      <trkpt lat="43.96083" lon="3.71555">
        <ele>516</ele>
        <time>2019-01-12T12:46:02Z</time>
      </trkpt>
      <trkpt lat="43.96084" lon="3.71562">
        <ele>516</ele>
        <time>2019-01-12T12:46:17Z</time>
      </trkpt>
      <trkpt lat="43.96084" lon="3.71567">
        <ele>516</ele>
        <time>2019-01-12T12:46:18Z</time>
      </trkpt>
      <trkpt lat="43.96082" lon="3.71573">
        <ele>516</ele>
        <time>2019-01-12T12:46:18Z</time>
      </trkpt>
      <trkpt lat="43.96081" lon="3.71576">
        <ele>516</ele>
        <time>2019-01-12T12:46:18Z</time>
      </trkpt>
      <trkpt lat="43.96081" lon="3.71577">
        <ele>516</ele>
        <time>2019-01-12T12:46:37Z</time>
      </trkpt>
      <trkpt lat="43.96079" lon="3.71579">
        <ele>516</ele>
        <time>2019-01-12T12:46:38Z</time>
      </trkpt>
      <trkpt lat="43.96078" lon="3.71582">
        <ele>516</ele>
        <time>2019-01-12T12:46:38Z</time>
      </trkpt>
      <trkpt lat="43.96078" lon="3.71585">
        <ele>516</ele>
        <time>2019-01-12T12:46:38Z</time>
      </trkpt>
      <trkpt lat="43.96076" lon="3.71589">
        <ele>516</ele>
        <time>2019-01-12T12:46:38Z</time>
      </trkpt>
      <trkpt lat="43.96075" lon="3.71592">
        <ele>516</ele>
        <time>2019-01-12T12:47:01Z</time>
      </trkpt>
      <trkpt lat="43.96073" lon="3.71598">
        <ele>516</ele>
        <time>2019-01-12T12:47:02Z</time>
      </trkpt>
      <trkpt lat="43.96072" lon="3.71601">
        <ele>516</ele>
        <time>2019-01-12T12:47:02Z</time>
      </trkpt>
      <trkpt lat="43.96071" lon="3.71603">
        <ele>516</ele>
        <time>2019-01-12T12:47:02Z</time>
      </trkpt>
      <trkpt lat="43.9607" lon="3.71604">
        <ele>516</ele>
        <time>2019-01-12T12:47:46Z</time>
      </trkpt>
      <trkpt lat="43.9607" lon="3.71607">
        <ele>516</ele>
        <time>2019-01-12T12:47:46Z</time>
      </trkpt>
      <trkpt lat="43.96069" lon="3.71611">
        <ele>516</ele>
        <time>2019-01-12T12:47:46Z</time>
      </trkpt>
      <trkpt lat="43.96069" lon="3.71616">
        <ele>516</ele>
        <time>2019-01-12T12:47:46Z</time>
      </trkpt>
      <trkpt lat="43.96067" lon="3.71619">
        <ele>516</ele>
        <time>2019-01-12T12:47:46Z</time>
      </trkpt>
      <trkpt lat="43.96065" lon="3.7162">
        <ele>516</ele>
        <time>2019-01-12T12:48:05Z</time>
      </trkpt>
      <trkpt lat="43.96067" lon="3.71621">
        <ele>516</ele>
        <time>2019-01-12T12:48:06Z</time>
      </trkpt>
      <trkpt lat="43.96068" lon="3.71624">
        <ele>516</ele>
        <time>2019-01-12T12:48:06Z</time>
      </trkpt>
      <trkpt lat="43.96069" lon="3.71628">
        <ele>527</ele>
        <time>2019-01-12T12:48:06Z</time>
      </trkpt>
      <trkpt lat="43.96073" lon="3.7163">
        <ele>527</ele>
        <time>2019-01-12T12:48:06Z</time>
      </trkpt>
      <trkpt lat="43.96075" lon="3.71634">
        <ele>527</ele>
        <time>2019-01-12T12:49:01Z</time>
      </trkpt>
      <trkpt lat="43.96076" lon="3.71635">
        <ele>527</ele>
        <time>2019-01-12T12:49:02Z</time>
      </trkpt>
      <trkpt lat="43.96077" lon="3.71638">
        <ele>527</ele>
        <time>2019-01-12T12:49:02Z</time>
      </trkpt>
      <trkpt lat="43.96077" lon="3.71638">
        <ele>527</ele>
        <time>2019-01-12T12:49:02Z</time>
      </trkpt>
      <trkpt lat="43.96078" lon="3.71648">
        <ele>527</ele>
        <time>2019-01-12T12:49:02Z</time>
      </trkpt>
      <trkpt lat="43.96077" lon="3.71658">
        <ele>527</ele>
        <time>2019-01-12T12:49:29Z</time>
      </trkpt>
      <trkpt lat="43.96077" lon="3.71663">
        <ele>527</ele>
        <time>2019-01-12T12:49:30Z</time>
      </trkpt>
      <trkpt lat="43.9608" lon="3.71666">
        <ele>527</ele>
        <time>2019-01-12T12:49:30Z</time>
      </trkpt>
      <trkpt lat="43.96082" lon="3.71668">
        <ele>527</ele>
        <time>2019-01-12T12:49:30Z</time>
      </trkpt>
      <trkpt lat="43.96083" lon="3.71669">
        <ele>527</ele>
        <time>2019-01-12T12:49:30Z</time>
      </trkpt>
      <trkpt lat="43.96085" lon="3.71672">
        <ele>527</ele>
        <time>2019-01-12T12:50:21Z</time>
      </trkpt>
      <trkpt lat="43.96085" lon="3.71674">
        <ele>527</ele>
        <time>2019-01-12T12:50:22Z</time>
      </trkpt>
      <trkpt lat="43.96087" lon="3.71682">
        <ele>527</ele>
        <time>2019-01-12T12:50:22Z</time>
      </trkpt>
      <trkpt lat="43.96088" lon="3.71686">
        <ele>527</ele>
        <time>2019-01-12T12:50:22Z</time>
      </trkpt>
      <trkpt lat="43.9609" lon="3.71689">
        <ele>527</ele>
        <time>2019-01-12T12:50:38Z</time>
      </trkpt>
      <trkpt lat="43.96092" lon="3.71693">
        <ele>527</ele>
        <time>2019-01-12T12:50:38Z</time>
      </trkpt>
      <trkpt lat="43.96093" lon="3.71698">
        <ele>527</ele>
        <time>2019-01-12T12:50:38Z</time>
      </trkpt>
      <trkpt lat="43.96095" lon="3.71699">
        <ele>527</ele>
        <time>2019-01-12T12:50:38Z</time>
      </trkpt>
      <trkpt lat="43.96096" lon="3.71698">
        <ele>527</ele>
        <time>2019-01-12T12:51:02Z</time>
      </trkpt>
      <trkpt lat="43.96097" lon="3.71703">
        <ele>527</ele>
        <time>2019-01-12T12:51:02Z</time>
      </trkpt>
      <trkpt lat="43.96098" lon="3.71705">
        <ele>527</ele>
        <time>2019-01-12T12:51:02Z</time>
      </trkpt>
      <trkpt lat="43.961" lon="3.71709">
        <ele>529</ele>
        <time>2019-01-12T12:51:02Z</time>
      </trkpt>
      <trkpt lat="43.96102" lon="3.71714">
        <ele>529</ele>
        <time>2019-01-12T12:51:02Z</time>
      </trkpt>
      <trkpt lat="43.96103" lon="3.71719">
        <ele>529</ele>
        <time>2019-01-12T12:51:17Z</time>
      </trkpt>
      <trkpt lat="43.96102" lon="3.71724">
        <ele>529</ele>
        <time>2019-01-12T12:51:18Z</time>
      </trkpt>
      <trkpt lat="43.96103" lon="3.7173">
        <ele>529</ele>
        <time>2019-01-12T12:51:18Z</time>
      </trkpt>
      <trkpt lat="43.96103" lon="3.71737">
        <ele>529</ele>
        <time>2019-01-12T12:51:18Z</time>
      </trkpt>
      <trkpt lat="43.96105" lon="3.71742">
        <ele>529</ele>
        <time>2019-01-12T12:51:33Z</time>
      </trkpt>
      <trkpt lat="43.96106" lon="3.71747">
        <ele>529</ele>
        <time>2019-01-12T12:51:34Z</time>
      </trkpt>
      <trkpt lat="43.96108" lon="3.71752">
        <ele>529</ele>
        <time>2019-01-12T12:51:34Z</time>
      </trkpt>
      <trkpt lat="43.96109" lon="3.71757">
        <ele>529</ele>
        <time>2019-01-12T12:51:34Z</time>
      </trkpt>
      <trkpt lat="43.96112" lon="3.71761">
        <ele>529</ele>
        <time>2019-01-12T12:52:22Z</time>
      </trkpt>
      <trkpt lat="43.96114" lon="3.71763">
        <ele>529</ele>
        <time>2019-01-12T12:52:22Z</time>
      </trkpt>
      <trkpt lat="43.96115" lon="3.71764">
        <ele>529</ele>
        <time>2019-01-12T12:52:22Z</time>
      </trkpt>
      <trkpt lat="43.96118" lon="3.71768">
        <ele>529</ele>
        <time>2019-01-12T12:52:22Z</time>
      </trkpt>
      <trkpt lat="43.9612" lon="3.71771">
        <ele>529</ele>
        <time>2019-01-12T12:52:22Z</time>
      </trkpt>
      <trkpt lat="43.96123" lon="3.71776">
        <ele>529</ele>
        <time>2019-01-12T12:52:41Z</time>
      </trkpt>
      <trkpt lat="43.96125" lon="3.7178">
        <ele>529</ele>
        <time>2019-01-12T12:52:42Z</time>
      </trkpt>
      <trkpt lat="43.96125" lon="3.71781">
        <ele>529</ele>
        <time>2019-01-12T12:52:42Z</time>
      </trkpt>
      <trkpt lat="43.96126" lon="3.71787">
        <ele>509</ele>
        <time>2019-01-12T12:52:42Z</time>
      </trkpt>
      <trkpt lat="43.96125" lon="3.71793">
        <ele>525</ele>
        <time>2019-01-12T12:52:42Z</time>
      </trkpt>
      <trkpt lat="43.96124" lon="3.71797">
        <ele>525</ele>
        <time>2019-01-12T12:52:57Z</time>
      </trkpt>
      <trkpt lat="43.96123" lon="3.71801">
        <ele>525</ele>
        <time>2019-01-12T12:52:58Z</time>
      </trkpt>
      <trkpt lat="43.9612" lon="3.71805">
        <ele>525</ele>
        <time>2019-01-12T12:52:58Z</time>
      </trkpt>
      <trkpt lat="43.96116" lon="3.71809">
        <ele>525</ele>
        <time>2019-01-12T12:52:58Z</time>
      </trkpt>
      <trkpt lat="43.96113" lon="3.71813">
        <ele>525</ele>
        <time>2019-01-12T12:53:13Z</time>
      </trkpt>
      <trkpt lat="43.96111" lon="3.71818">
        <ele>525</ele>
        <time>2019-01-12T12:53:14Z</time>
      </trkpt>
      <trkpt lat="43.9611" lon="3.71823">
        <ele>525</ele>
        <time>2019-01-12T12:53:14Z</time>
      </trkpt>
      <trkpt lat="43.96109" lon="3.71828">
        <ele>525</ele>
        <time>2019-01-12T12:53:14Z</time>
      </trkpt>
      <trkpt lat="43.9611" lon="3.71833">
        <ele>525</ele>
        <time>2019-01-12T12:53:30Z</time>
      </trkpt>
      <trkpt lat="43.96109" lon="3.71839">
        <ele>525</ele>
        <time>2019-01-12T12:53:30Z</time>
      </trkpt>
      <trkpt lat="43.9611" lon="3.71845">
        <ele>525</ele>
        <time>2019-01-12T12:53:30Z</time>
      </trkpt>
      <trkpt lat="43.96109" lon="3.71849">
        <ele>525</ele>
        <time>2019-01-12T12:53:30Z</time>
      </trkpt>
      <trkpt lat="43.96109" lon="3.71855">
        <ele>525</ele>
        <time>2019-01-12T12:53:45Z</time>
      </trkpt>
      <trkpt lat="43.96107" lon="3.7186">
        <ele>525</ele>
        <time>2019-01-12T12:53:46Z</time>
      </trkpt>
      <trkpt lat="43.96106" lon="3.71865">
        <ele>525</ele>
        <time>2019-01-12T12:53:46Z</time>
      </trkpt>
      <trkpt lat="43.96106" lon="3.71871">
        <ele>525</ele>
        <time>2019-01-12T12:53:46Z</time>
      </trkpt>
      <trkpt lat="43.96107" lon="3.71876">
        <ele>524</ele>
        <time>2019-01-12T12:54:01Z</time>
      </trkpt>
      <trkpt lat="43.96107" lon="3.7188">
        <ele>524</ele>
        <time>2019-01-12T12:54:02Z</time>
      </trkpt>
      <trkpt lat="43.96109" lon="3.71883">
        <ele>524</ele>
        <time>2019-01-12T12:54:02Z</time>
      </trkpt>
      <trkpt lat="43.96111" lon="3.71888">
        <ele>524</ele>
        <time>2019-01-12T12:54:02Z</time>
      </trkpt>
      <trkpt lat="43.96113" lon="3.71892">
        <ele>524</ele>
        <time>2019-01-12T12:54:17Z</time>
      </trkpt>
      <trkpt lat="43.96115" lon="3.71896">
        <ele>524</ele>
        <time>2019-01-12T12:54:18Z</time>
      </trkpt>
      <trkpt lat="43.96115" lon="3.71898">
        <ele>524</ele>
        <time>2019-01-12T12:54:18Z</time>
      </trkpt>
      <trkpt lat="43.96118" lon="3.71903">
        <ele>524</ele>
        <time>2019-01-12T12:54:18Z</time>
      </trkpt>
      <trkpt lat="43.96119" lon="3.71907">
        <ele>524</ele>
        <time>2019-01-12T12:54:37Z</time>
      </trkpt>
      <trkpt lat="43.96121" lon="3.71912">
        <ele>524</ele>
        <time>2019-01-12T12:54:38Z</time>
      </trkpt>
      <trkpt lat="43.96121" lon="3.71913">
        <ele>524</ele>
        <time>2019-01-12T12:54:38Z</time>
      </trkpt>
      <trkpt lat="43.96123" lon="3.71917">
        <ele>524</ele>
        <time>2019-01-12T12:54:38Z</time>
      </trkpt>
      <trkpt lat="43.96124" lon="3.71921">
        <ele>524</ele>
        <time>2019-01-12T12:54:38Z</time>
      </trkpt>
      <trkpt lat="43.96127" lon="3.71925">
        <ele>541</ele>
        <time>2019-01-12T12:54:57Z</time>
      </trkpt>
      <trkpt lat="43.96131" lon="3.7193">
        <ele>541</ele>
        <time>2019-01-12T12:54:58Z</time>
      </trkpt>
      <trkpt lat="43.96131" lon="3.71931">
        <ele>541</ele>
        <time>2019-01-12T12:54:58Z</time>
      </trkpt>
      <trkpt lat="43.96134" lon="3.71937">
        <ele>541</ele>
        <time>2019-01-12T12:54:58Z</time>
      </trkpt>
      <trkpt lat="43.96137" lon="3.71942">
        <ele>541</ele>
        <time>2019-01-12T12:55:17Z</time>
      </trkpt>
      <trkpt lat="43.96138" lon="3.71948">
        <ele>541</ele>
        <time>2019-01-12T12:55:18Z</time>
      </trkpt>
      <trkpt lat="43.96139" lon="3.7195">
        <ele>541</ele>
        <time>2019-01-12T12:55:18Z</time>
      </trkpt>
      <trkpt lat="43.96141" lon="3.71953">
        <ele>541</ele>
        <time>2019-01-12T12:55:18Z</time>
      </trkpt>
      <trkpt lat="43.96143" lon="3.71955">
        <ele>541</ele>
        <time>2019-01-12T12:55:18Z</time>
      </trkpt>
      <trkpt lat="43.96148" lon="3.71959">
        <ele>539</ele>
        <time>2019-01-12T12:55:37Z</time>
      </trkpt>
      <trkpt lat="43.96152" lon="3.71963">
        <ele>539</ele>
        <time>2019-01-12T12:55:38Z</time>
      </trkpt>
      <trkpt lat="43.96155" lon="3.71966">
        <ele>539</ele>
        <time>2019-01-12T12:55:38Z</time>
      </trkpt>
      <trkpt lat="43.96158" lon="3.71971">
        <ele>539</ele>
        <time>2019-01-12T12:55:38Z</time>
      </trkpt>
      <trkpt lat="43.9616" lon="3.71977">
        <ele>539</ele>
        <time>2019-01-12T12:55:54Z</time>
      </trkpt>
      <trkpt lat="43.9616" lon="3.71983">
        <ele>539</ele>
        <time>2019-01-12T12:55:54Z</time>
      </trkpt>
      <trkpt lat="43.96162" lon="3.71988">
        <ele>539</ele>
        <time>2019-01-12T12:55:54Z</time>
      </trkpt>
      <trkpt lat="43.96162" lon="3.71993">
        <ele>539</ele>
        <time>2019-01-12T12:55:54Z</time>
      </trkpt>
      <trkpt lat="43.96164" lon="3.71997">
        <ele>539</ele>
        <time>2019-01-12T12:56:14Z</time>
      </trkpt>
      <trkpt lat="43.96167" lon="3.72">
        <ele>539</ele>
        <time>2019-01-12T12:56:14Z</time>
      </trkpt>
      <trkpt lat="43.9617" lon="3.72002">
        <ele>539</ele>
        <time>2019-01-12T12:56:14Z</time>
      </trkpt>
      <trkpt lat="43.96171" lon="3.72003">
        <ele>539</ele>
        <time>2019-01-12T12:56:14Z</time>
      </trkpt>
      <trkpt lat="43.96172" lon="3.72004">
        <ele>539</ele>
        <time>2019-01-12T12:56:14Z</time>
      </trkpt>
      <trkpt lat="43.96173" lon="3.72004">
        <ele>539</ele>
        <time>2019-01-12T12:56:57Z</time>
      </trkpt>
      <trkpt lat="43.96175" lon="3.72007">
        <ele>539</ele>
        <time>2019-01-12T12:56:58Z</time>
      </trkpt>
      <trkpt lat="43.96178" lon="3.72009">
        <ele>539</ele>
        <time>2019-01-12T12:56:58Z</time>
      </trkpt>
      <trkpt lat="43.96179" lon="3.72011">
        <ele>539</ele>
        <time>2019-01-12T12:56:58Z</time>
      </trkpt>
      <trkpt lat="43.96179" lon="3.72017">
        <ele>539</ele>
        <time>2019-01-12T12:56:58Z</time>
      </trkpt>
      <trkpt lat="43.96181" lon="3.72021">
        <ele>539</ele>
        <time>2019-01-12T12:57:13Z</time>
      </trkpt>
      <trkpt lat="43.96183" lon="3.72026">
        <ele>539</ele>
        <time>2019-01-12T12:57:14Z</time>
      </trkpt>
      <trkpt lat="43.96186" lon="3.7203">
        <ele>539</ele>
        <time>2019-01-12T12:57:14Z</time>
      </trkpt>
      <trkpt lat="43.96188" lon="3.72033">
        <ele>539</ele>
        <time>2019-01-12T12:57:14Z</time>
      </trkpt>
      <trkpt lat="43.9619" lon="3.72034">
        <ele>539</ele>
        <time>2019-01-12T12:57:34Z</time>
      </trkpt>
      <trkpt lat="43.96191" lon="3.72035">
        <ele>539</ele>
        <time>2019-01-12T12:57:34Z</time>
      </trkpt>
      <trkpt lat="43.96193" lon="3.72038">
        <ele>539</ele>
        <time>2019-01-12T12:57:34Z</time>
      </trkpt>
      <trkpt lat="43.96195" lon="3.72042">
        <ele>536</ele>
        <time>2019-01-12T12:57:34Z</time>
      </trkpt>
      <trkpt lat="43.96197" lon="3.72046">
        <ele>536</ele>
        <time>2019-01-12T12:57:34Z</time>
      </trkpt>
      <trkpt lat="43.96198" lon="3.7205">
        <ele>536</ele>
        <time>2019-01-12T12:57:49Z</time>
      </trkpt>
      <trkpt lat="43.96199" lon="3.72054">
        <ele>536</ele>
        <time>2019-01-12T12:57:50Z</time>
      </trkpt>
      <trkpt lat="43.96199" lon="3.72059">
        <ele>536</ele>
        <time>2019-01-12T12:57:50Z</time>
      </trkpt>
      <trkpt lat="43.962" lon="3.72064">
        <ele>536</ele>
        <time>2019-01-12T12:57:50Z</time>
      </trkpt>
      <trkpt lat="43.96201" lon="3.72069">
        <ele>536</ele>
        <time>2019-01-12T12:58:09Z</time>
      </trkpt>
      <trkpt lat="43.96201" lon="3.72072">
        <ele>536</ele>
        <time>2019-01-12T12:58:10Z</time>
      </trkpt>
      <trkpt lat="43.96202" lon="3.72076">
        <ele>536</ele>
        <time>2019-01-12T12:58:10Z</time>
      </trkpt>
      <trkpt lat="43.96202" lon="3.7208">
        <ele>536</ele>
        <time>2019-01-12T12:58:10Z</time>
      </trkpt>
      <trkpt lat="43.96203" lon="3.72087">
        <ele>536</ele>
        <time>2019-01-12T12:58:10Z</time>
      </trkpt>
      <trkpt lat="43.96204" lon="3.72092">
        <ele>536</ele>
        <time>2019-01-12T12:58:26Z</time>
      </trkpt>
      <trkpt lat="43.96205" lon="3.72097">
        <ele>536</ele>
        <time>2019-01-12T12:58:26Z</time>
      </trkpt>
      <trkpt lat="43.96206" lon="3.72099">
        <ele>536</ele>
        <time>2019-01-12T12:58:26Z</time>
      </trkpt>
      <trkpt lat="43.96208" lon="3.72105">
        <ele>536</ele>
        <time>2019-01-12T12:58:26Z</time>
      </trkpt>
      <trkpt lat="43.96208" lon="3.72111">
        <ele>536</ele>
        <time>2019-01-12T12:58:41Z</time>
      </trkpt>
      <trkpt lat="43.96209" lon="3.72115">
        <ele>558</ele>
        <time>2019-01-12T12:58:42Z</time>
      </trkpt>
      <trkpt lat="43.9621" lon="3.72119">
        <ele>558</ele>
        <time>2019-01-12T12:58:42Z</time>
      </trkpt>
      <trkpt lat="43.96212" lon="3.72124">
        <ele>558</ele>
        <time>2019-01-12T12:58:42Z</time>
      </trkpt>
      <trkpt lat="43.96213" lon="3.72128">
        <ele>550</ele>
        <time>2019-01-12T12:58:57Z</time>
      </trkpt>
      <trkpt lat="43.96215" lon="3.72132">
        <ele>550</ele>
        <time>2019-01-12T12:58:58Z</time>
      </trkpt>
      <trkpt lat="43.96219" lon="3.72136">
        <ele>550</ele>
        <time>2019-01-12T12:58:58Z</time>
      </trkpt>
      <trkpt lat="43.96222" lon="3.72138">
        <ele>550</ele>
        <time>2019-01-12T12:58:58Z</time>
      </trkpt>
      <trkpt lat="43.96226" lon="3.72141">
        <ele>550</ele>
        <time>2019-01-12T12:59:13Z</time>
      </trkpt>
      <trkpt lat="43.96229" lon="3.72145">
        <ele>550</ele>
        <time>2019-01-12T12:59:14Z</time>
      </trkpt>
      <trkpt lat="43.96232" lon="3.7215">
        <ele>550</ele>
        <time>2019-01-12T12:59:14Z</time>
      </trkpt>
      <trkpt lat="43.96234" lon="3.72152">
        <ele>550</ele>
        <time>2019-01-12T12:59:14Z</time>
      </trkpt>
      <trkpt lat="43.96235" lon="3.72154">
        <ele>550</ele>
        <time>2019-01-12T12:59:30Z</time>
      </trkpt>
      <trkpt lat="43.96236" lon="3.72161">
        <ele>550</ele>
        <time>2019-01-12T12:59:30Z</time>
      </trkpt>
      <trkpt lat="43.96238" lon="3.72164">
        <ele>550</ele>
        <time>2019-01-12T12:59:30Z</time>
      </trkpt>
      <trkpt lat="43.96242" lon="3.72168">
        <ele>550</ele>
        <time>2019-01-12T12:59:30Z</time>
      </trkpt>
      <trkpt lat="43.96243" lon="3.72172">
        <ele>550</ele>
        <time>2019-01-12T12:59:46Z</time>
      </trkpt>
      <trkpt lat="43.96246" lon="3.72177">
        <ele>550</ele>
        <time>2019-01-12T12:59:46Z</time>
      </trkpt>
      <trkpt lat="43.96248" lon="3.72183">
        <ele>550</ele>
        <time>2019-01-12T12:59:46Z</time>
      </trkpt>
      <trkpt lat="43.96251" lon="3.7219">
        <ele>550</ele>
        <time>2019-01-12T12:59:46Z</time>
      </trkpt>
      <trkpt lat="43.96255" lon="3.72194">
        <ele>550</ele>
        <time>2019-01-12T13:00:01Z</time>
      </trkpt>
      <trkpt lat="43.96258" lon="3.72197">
        <ele>550</ele>
        <time>2019-01-12T13:00:02Z</time>
      </trkpt>
      <trkpt lat="43.96262" lon="3.72199">
        <ele>550</ele>
        <time>2019-01-12T13:00:02Z</time>
      </trkpt>
      <trkpt lat="43.96263" lon="3.72201">
        <ele>550</ele>
        <time>2019-01-12T13:00:02Z</time>
      </trkpt>
      <trkpt lat="43.96266" lon="3.72203">
        <ele>550</ele>
        <time>2019-01-12T13:00:17Z</time>
      </trkpt>
      <trkpt lat="43.96269" lon="3.72204">
        <ele>550</ele>
        <time>2019-01-12T13:00:18Z</time>
      </trkpt>
      <trkpt lat="43.96272" lon="3.72206">
        <ele>550</ele>
        <time>2019-01-12T13:00:18Z</time>
      </trkpt>
      <trkpt lat="43.96275" lon="3.72208">
        <ele>550</ele>
        <time>2019-01-12T13:00:18Z</time>
      </trkpt>
      <trkpt lat="43.96276" lon="3.72209">
        <ele>537</ele>
        <time>2019-01-12T13:01:01Z</time>
      </trkpt>
      <trkpt lat="43.96276" lon="3.72213">
        <ele>537</ele>
        <time>2019-01-12T13:01:02Z</time>
      </trkpt>
      <trkpt lat="43.9628" lon="3.72216">
        <ele>537</ele>
        <time>2019-01-12T13:01:02Z</time>
      </trkpt>
      <trkpt lat="43.96283" lon="3.72217">
        <ele>537</ele>
        <time>2019-01-12T13:01:02Z</time>
      </trkpt>
      <trkpt lat="43.96286" lon="3.72219">
        <ele>537</ele>
        <time>2019-01-12T13:01:02Z</time>
      </trkpt>
      <trkpt lat="43.96289" lon="3.72223">
        <ele>537</ele>
        <time>2019-01-12T13:01:17Z</time>
      </trkpt>
      <trkpt lat="43.96292" lon="3.72228">
        <ele>544</ele>
        <time>2019-01-12T13:01:18Z</time>
      </trkpt>
      <trkpt lat="43.96295" lon="3.72231">
        <ele>544</ele>
        <time>2019-01-12T13:01:18Z</time>
      </trkpt>
      <trkpt lat="43.96296" lon="3.72236">
        <ele>544</ele>
        <time>2019-01-12T13:01:18Z</time>
      </trkpt>
      <trkpt lat="43.96297" lon="3.72241">
        <ele>544</ele>
        <time>2019-01-12T13:01:37Z</time>
      </trkpt>
      <trkpt lat="43.96301" lon="3.72245">
        <ele>544</ele>
        <time>2019-01-12T13:01:38Z</time>
      </trkpt>
      <trkpt lat="43.96301" lon="3.72245">
        <ele>544</ele>
        <time>2019-01-12T13:01:38Z</time>
      </trkpt>
      <trkpt lat="43.96304" lon="3.72248">
        <ele>544</ele>
        <time>2019-01-12T13:01:38Z</time>
      </trkpt>
      <trkpt lat="43.96309" lon="3.72253">
        <ele>544</ele>
        <time>2019-01-12T13:01:38Z</time>
      </trkpt>
      <trkpt lat="43.96312" lon="3.72256">
        <ele>544</ele>
        <time>2019-01-12T13:01:53Z</time>
      </trkpt>
      <trkpt lat="43.96317" lon="3.72258">
        <ele>544</ele>
        <time>2019-01-12T13:01:54Z</time>
      </trkpt>
      <trkpt lat="43.96319" lon="3.72259">
        <ele>544</ele>
        <time>2019-01-12T13:01:54Z</time>
      </trkpt>
      <trkpt lat="43.96323" lon="3.7226">
        <ele>544</ele>
        <time>2019-01-12T13:01:54Z</time>
      </trkpt>
      <trkpt lat="43.96327" lon="3.72261">
        <ele>544</ele>
        <time>2019-01-12T13:02:09Z</time>
      </trkpt>
      <trkpt lat="43.9633" lon="3.72259">
        <ele>544</ele>
        <time>2019-01-12T13:02:10Z</time>
      </trkpt>
      <trkpt lat="43.96335" lon="3.7226">
        <ele>544</ele>
        <time>2019-01-12T13:02:10Z</time>
      </trkpt>
      <trkpt lat="43.9634" lon="3.7226">
        <ele>544</ele>
        <time>2019-01-12T13:02:10Z</time>
      </trkpt>
      <trkpt lat="43.96345" lon="3.72262">
        <ele>544</ele>
        <time>2019-01-12T13:02:26Z</time>
      </trkpt>
      <trkpt lat="43.96349" lon="3.72263">
        <ele>544</ele>
        <time>2019-01-12T13:02:26Z</time>
      </trkpt>
      <trkpt lat="43.96354" lon="3.72264">
        <ele>544</ele>
        <time>2019-01-12T13:02:26Z</time>
      </trkpt>
      <trkpt lat="43.96357" lon="3.72265">
        <ele>544</ele>
        <time>2019-01-12T13:02:26Z</time>
      </trkpt>
      <trkpt lat="43.96361" lon="3.72267">
        <ele>544</ele>
        <time>2019-01-12T13:02:41Z</time>
      </trkpt>
      <trkpt lat="43.96364" lon="3.72269">
        <ele>544</ele>
        <time>2019-01-12T13:02:42Z</time>
      </trkpt>
      <trkpt lat="43.96368" lon="3.72271">
        <ele>544</ele>
        <time>2019-01-12T13:02:42Z</time>
      </trkpt>
      <trkpt lat="43.96371" lon="3.72275">
        <ele>544</ele>
        <time>2019-01-12T13:02:42Z</time>
      </trkpt>
      <trkpt lat="43.96373" lon="3.7228">
        <ele>544</ele>
        <time>2019-01-12T13:03:21Z</time>
      </trkpt>
      <trkpt lat="43.96374" lon="3.72282">
        <ele>544</ele>
        <time>2019-01-12T13:03:22Z</time>
      </trkpt>
      <trkpt lat="43.96377" lon="3.72285">
        <ele>552</ele>
        <time>2019-01-12T13:03:22Z</time>
      </trkpt>
      <trkpt lat="43.9638" lon="3.72286">
        <ele>552</ele>
        <time>2019-01-12T13:03:22Z</time>
      </trkpt>
      <trkpt lat="43.96384" lon="3.72287">
        <ele>552</ele>
        <time>2019-01-12T13:03:22Z</time>
      </trkpt>
      <trkpt lat="43.96388" lon="3.72286">
        <ele>552</ele>
        <time>2019-01-12T13:03:37Z</time>
      </trkpt>
      <trkpt lat="43.96392" lon="3.72287">
        <ele>552</ele>
        <time>2019-01-12T13:03:38Z</time>
      </trkpt>
      <trkpt lat="43.96395" lon="3.72287">
        <ele>552</ele>
        <time>2019-01-12T13:03:38Z</time>
      </trkpt>
      <trkpt lat="43.96399" lon="3.72284">
        <ele>552</ele>
        <time>2019-01-12T13:03:38Z</time>
      </trkpt>
      <trkpt lat="43.96402" lon="3.72283">
        <ele>552</ele>
        <time>2019-01-12T13:03:53Z</time>
      </trkpt>
      <trkpt lat="43.96407" lon="3.72282">
        <ele>552</ele>
        <time>2019-01-12T13:03:54Z</time>
      </trkpt>
      <trkpt lat="43.96411" lon="3.72281">
        <ele>552</ele>
        <time>2019-01-12T13:03:54Z</time>
      </trkpt>
      <trkpt lat="43.96415" lon="3.72279">
        <ele>552</ele>
        <time>2019-01-12T13:03:54Z</time>
      </trkpt>
      <trkpt lat="43.9642" lon="3.72278">
        <ele>552</ele>
        <time>2019-01-12T13:04:09Z</time>
      </trkpt>
      <trkpt lat="43.96424" lon="3.72278">
        <ele>552</ele>
        <time>2019-01-12T13:04:10Z</time>
      </trkpt>
      <trkpt lat="43.96428" lon="3.72278">
        <ele>552</ele>
        <time>2019-01-12T13:04:10Z</time>
      </trkpt>
      <trkpt lat="43.96432" lon="3.72278">
        <ele>552</ele>
        <time>2019-01-12T13:04:10Z</time>
      </trkpt>
      <trkpt lat="43.96433" lon="3.72277">
        <ele>552</ele>
        <time>2019-01-12T13:04:57Z</time>
      </trkpt>
      <trkpt lat="43.96434" lon="3.72277">
        <ele>552</ele>
        <time>2019-01-12T13:04:58Z</time>
      </trkpt>
      <trkpt lat="43.96437" lon="3.72279">
        <ele>552</ele>
        <time>2019-01-12T13:04:58Z</time>
      </trkpt>
      <trkpt lat="43.96441" lon="3.72281">
        <ele>552</ele>
        <time>2019-01-12T13:04:58Z</time>
      </trkpt>
      <trkpt lat="43.96444" lon="3.72282">
        <ele>552</ele>
        <time>2019-01-12T13:04:58Z</time>
      </trkpt>
      <trkpt lat="43.96444" lon="3.72282">
        <ele>552</ele>
        <time>2019-01-12T13:05:21Z</time>
      </trkpt>
      <trkpt lat="43.96447" lon="3.72283">
        <ele>552</ele>
        <time>2019-01-12T13:05:22Z</time>
      </trkpt>
      <trkpt lat="43.96451" lon="3.72287">
        <ele>552</ele>
        <time>2019-01-12T13:05:22Z</time>
      </trkpt>
      <trkpt lat="43.96456" lon="3.72291">
        <ele>552</ele>
        <time>2019-01-12T13:05:22Z</time>
      </trkpt>
      <trkpt lat="43.96459" lon="3.72297">
        <ele>545</ele>
        <time>2019-01-12T13:05:37Z</time>
      </trkpt>
      <trkpt lat="43.96464" lon="3.72302">
        <ele>545</ele>
        <time>2019-01-12T13:05:38Z</time>
      </trkpt>
      <trkpt lat="43.96467" lon="3.72307">
        <ele>545</ele>
        <time>2019-01-12T13:05:38Z</time>
      </trkpt>
      <trkpt lat="43.9647" lon="3.7231">
        <ele>545</ele>
        <time>2019-01-12T13:05:38Z</time>
      </trkpt>
      <trkpt lat="43.96473" lon="3.72313">
        <ele>545</ele>
        <time>2019-01-12T13:05:53Z</time>
      </trkpt>
      <trkpt lat="43.96476" lon="3.72318">
        <ele>545</ele>
        <time>2019-01-12T13:05:54Z</time>
      </trkpt>
      <trkpt lat="43.9648" lon="3.72323">
        <ele>545</ele>
        <time>2019-01-12T13:05:54Z</time>
      </trkpt>
      <trkpt lat="43.96484" lon="3.72329">
        <ele>545</ele>
        <time>2019-01-12T13:05:54Z</time>
      </trkpt>
      <trkpt lat="43.96487" lon="3.72334">
        <ele>545</ele>
        <time>2019-01-12T13:06:09Z</time>
      </trkpt>
      <trkpt lat="43.96489" lon="3.72336">
        <ele>545</ele>
        <time>2019-01-12T13:06:10Z</time>
      </trkpt>
      <trkpt lat="43.96491" lon="3.72339">
        <ele>545</ele>
        <time>2019-01-12T13:06:10Z</time>
      </trkpt>
      <trkpt lat="43.96496" lon="3.72343">
        <ele>545</ele>
        <time>2019-01-12T13:06:10Z</time>
      </trkpt>
      <trkpt lat="43.96499" lon="3.72349">
        <ele>545</ele>
        <time>2019-01-12T13:06:26Z</time>
      </trkpt>
      <trkpt lat="43.96502" lon="3.72356">
        <ele>545</ele>
        <time>2019-01-12T13:06:26Z</time>
      </trkpt>
      <trkpt lat="43.96506" lon="3.7236">
        <ele>545</ele>
        <time>2019-01-12T13:06:26Z</time>
      </trkpt>
      <trkpt lat="43.96511" lon="3.72364">
        <ele>545</ele>
        <time>2019-01-12T13:06:26Z</time>
      </trkpt>
      <trkpt lat="43.96515" lon="3.72368">
        <ele>545</ele>
        <time>2019-01-12T13:06:42Z</time>
      </trkpt>
      <trkpt lat="43.96518" lon="3.72372">
        <ele>545</ele>
        <time>2019-01-12T13:06:42Z</time>
      </trkpt>
      <trkpt lat="43.96521" lon="3.72376">
        <ele>540</ele>
        <time>2019-01-12T13:06:42Z</time>
      </trkpt>
      <trkpt lat="43.96523" lon="3.72381">
        <ele>540</ele>
        <time>2019-01-12T13:06:42Z</time>
      </trkpt>
      <trkpt lat="43.96525" lon="3.72387">
        <ele>540</ele>
        <time>2019-01-12T13:06:57Z</time>
      </trkpt>
      <trkpt lat="43.96529" lon="3.72393">
        <ele>540</ele>
        <time>2019-01-12T13:06:58Z</time>
      </trkpt>
      <trkpt lat="43.96532" lon="3.72397">
        <ele>540</ele>
        <time>2019-01-12T13:06:58Z</time>
      </trkpt>
      <trkpt lat="43.96536" lon="3.72402">
        <ele>540</ele>
        <time>2019-01-12T13:06:58Z</time>
      </trkpt>
      <trkpt lat="43.96539" lon="3.72406">
        <ele>540</ele>
        <time>2019-01-12T13:07:13Z</time>
      </trkpt>
      <trkpt lat="43.96543" lon="3.7241">
        <ele>544</ele>
        <time>2019-01-12T13:07:14Z</time>
      </trkpt>
      <trkpt lat="43.96545" lon="3.72416">
        <ele>544</ele>
        <time>2019-01-12T13:07:14Z</time>
      </trkpt>
      <trkpt lat="43.96549" lon="3.7242">
        <ele>544</ele>
        <time>2019-01-12T13:07:14Z</time>
      </trkpt>
      <trkpt lat="43.96551" lon="3.72426">
        <ele>544</ele>
        <time>2019-01-12T13:07:29Z</time>
      </trkpt>
      <trkpt lat="43.96554" lon="3.72433">
        <ele>544</ele>
        <time>2019-01-12T13:07:30Z</time>
      </trkpt>
      <trkpt lat="43.96558" lon="3.72437">
        <ele>544</ele>
        <time>2019-01-12T13:07:30Z</time>
      </trkpt>
      <trkpt lat="43.96563" lon="3.72441">
        <ele>544</ele>
        <time>2019-01-12T13:07:30Z</time>
      </trkpt>
      <trkpt lat="43.96566" lon="3.72446">
        <ele>544</ele>
        <time>2019-01-12T13:07:49Z</time>
      </trkpt>
      <trkpt lat="43.96569" lon="3.72451">
        <ele>544</ele>
        <time>2019-01-12T13:07:50Z</time>
      </trkpt>
      <trkpt lat="43.96569" lon="3.72452">
        <ele>544</ele>
        <time>2019-01-12T13:07:50Z</time>
      </trkpt>
      <trkpt lat="43.96571" lon="3.72453">
        <ele>544</ele>
        <time>2019-01-12T13:07:50Z</time>
      </trkpt>
      <trkpt lat="43.96574" lon="3.72456">
        <ele>544</ele>
        <time>2019-01-12T13:07:50Z</time>
      </trkpt>
      <trkpt lat="43.96577" lon="3.7246">
        <ele>546</ele>
        <time>2019-01-12T13:08:05Z</time>
      </trkpt>
      <trkpt lat="43.96579" lon="3.72465">
        <ele>546</ele>
        <time>2019-01-12T13:08:06Z</time>
      </trkpt>
      <trkpt lat="43.96581" lon="3.72469">
        <ele>546</ele>
        <time>2019-01-12T13:08:06Z</time>
      </trkpt>
      <trkpt lat="43.96582" lon="3.72473">
        <ele>546</ele>
        <time>2019-01-12T13:08:06Z</time>
      </trkpt>
      <trkpt lat="43.96582" lon="3.72476">
        <ele>546</ele>
        <time>2019-01-12T13:08:22Z</time>
      </trkpt>
      <trkpt lat="43.96585" lon="3.72481">
        <ele>546</ele>
        <time>2019-01-12T13:08:22Z</time>
      </trkpt>
      <trkpt lat="43.96588" lon="3.72484">
        <ele>546</ele>
        <time>2019-01-12T13:08:22Z</time>
      </trkpt>
      <trkpt lat="43.96589" lon="3.72485">
        <ele>546</ele>
        <time>2019-01-12T13:08:22Z</time>
      </trkpt>
      <trkpt lat="43.96591" lon="3.7249">
        <ele>546</ele>
        <time>2019-01-12T13:08:45Z</time>
      </trkpt>
      <trkpt lat="43.96594" lon="3.72492">
        <ele>546</ele>
        <time>2019-01-12T13:08:46Z</time>
      </trkpt>
      <trkpt lat="43.96596" lon="3.72486">
        <ele>546</ele>
        <time>2019-01-12T13:08:46Z</time>
      </trkpt>
      <trkpt lat="43.96595" lon="3.72482">
        <ele>546</ele>
        <time>2019-01-12T13:08:46Z</time>
      </trkpt>
      <trkpt lat="43.96596" lon="3.72477">
        <ele>546</ele>
        <time>2019-01-12T13:08:46Z</time>
      </trkpt>
      <trkpt lat="43.96599" lon="3.72471">
        <ele>546</ele>
        <time>2019-01-12T13:10:05Z</time>
      </trkpt>
      <trkpt lat="43.966" lon="3.72471">
        <ele>546</ele>
        <time>2019-01-12T13:10:06Z</time>
      </trkpt>
      <trkpt lat="43.96601" lon="3.7247">
        <ele>546</ele>
        <time>2019-01-12T13:10:06Z</time>
      </trkpt>
      <trkpt lat="43.96603" lon="3.72465">
        <ele>546</ele>
        <time>2019-01-12T13:10:06Z</time>
      </trkpt>
      <trkpt lat="43.96609" lon="3.72455">
        <ele>544</ele>
        <time>2019-01-12T13:10:06Z</time>
      </trkpt>
      <trkpt lat="43.9661" lon="3.72449">
        <ele>544</ele>
        <time>2019-01-12T13:10:33Z</time>
      </trkpt>
      <trkpt lat="43.9661" lon="3.72444">
        <ele>544</ele>
        <time>2019-01-12T13:10:34Z</time>
      </trkpt>
      <trkpt lat="43.96609" lon="3.72439">
        <ele>544</ele>
        <time>2019-01-12T13:10:34Z</time>
      </trkpt>
      <trkpt lat="43.96609" lon="3.72438">
        <ele>544</ele>
        <time>2019-01-12T13:10:34Z</time>
      </trkpt>
      <trkpt lat="43.96608" lon="3.72432">
        <ele>544</ele>
        <time>2019-01-12T13:10:34Z</time>
      </trkpt>
      <trkpt lat="43.96607" lon="3.72415">
        <ele>544</ele>
        <time>2019-01-12T13:12:21Z</time>
      </trkpt>
      <trkpt lat="43.96606" lon="3.72414">
        <ele>544</ele>
        <time>2019-01-12T13:12:22Z</time>
      </trkpt>
      <trkpt lat="43.96606" lon="3.72413">
        <ele>544</ele>
        <time>2019-01-12T13:12:22Z</time>
      </trkpt>
      <trkpt lat="43.96606" lon="3.72412">
        <ele>544</ele>
        <time>2019-01-12T13:12:22Z</time>
      </trkpt>
      <trkpt lat="43.96611" lon="3.72395">
        <ele>544</ele>
        <time>2019-01-12T13:12:22Z</time>
      </trkpt>
      <trkpt lat="43.96617" lon="3.72378">
        <ele>544</ele>
        <time>2019-01-12T13:13:38Z</time>
      </trkpt>
      <trkpt lat="43.96623" lon="3.72366">
        <ele>544</ele>
        <time>2019-01-12T13:13:38Z</time>
      </trkpt>
      <trkpt lat="43.96628" lon="3.72358">
        <ele>501</ele>
        <time>2019-01-12T13:13:38Z</time>
      </trkpt>
      <trkpt lat="43.96629" lon="3.72353">
        <ele>501</ele>
        <time>2019-01-12T13:13:38Z</time>
      </trkpt>
      <trkpt lat="43.96629" lon="3.7235">
        <ele>501</ele>
        <time>2019-01-12T13:14:09Z</time>
      </trkpt>
      <trkpt lat="43.96632" lon="3.72345">
        <ele>501</ele>
        <time>2019-01-12T13:14:10Z</time>
      </trkpt>
      <trkpt lat="43.96632" lon="3.7234">
        <ele>501</ele>
        <time>2019-01-12T13:14:10Z</time>
      </trkpt>
      <trkpt lat="43.96632" lon="3.72336">
        <ele>501</ele>
        <time>2019-01-12T13:14:10Z</time>
      </trkpt>
      <trkpt lat="43.9663" lon="3.72336">
        <ele>501</ele>
        <time>2019-01-12T13:15:37Z</time>
      </trkpt>
      <trkpt lat="43.96631" lon="3.72338">
        <ele>501</ele>
        <time>2019-01-12T13:15:38Z</time>
      </trkpt>
      <trkpt lat="43.9663" lon="3.72341">
        <ele>501</ele>
        <time>2019-01-12T13:15:38Z</time>
      </trkpt>
      <trkpt lat="43.9663" lon="3.72342">
        <ele>501</ele>
        <time>2019-01-12T13:15:38Z</time>
      </trkpt>
      <trkpt lat="43.9663" lon="3.72346">
        <ele>501</ele>
        <time>2019-01-12T13:15:38Z</time>
      </trkpt>
      <trkpt lat="43.9663" lon="3.72347">
        <ele>501</ele>
        <time>2019-01-12T13:15:53Z</time>
      </trkpt>
      <trkpt lat="43.96629" lon="3.7235">
        <ele>501</ele>
        <time>2019-01-12T13:15:54Z</time>
      </trkpt>
      <trkpt lat="43.96628" lon="3.72355">
        <ele>501</ele>
        <time>2019-01-12T13:15:54Z</time>
      </trkpt>
      <trkpt lat="43.96626" lon="3.7236">
        <ele>501</ele>
        <time>2019-01-12T13:15:54Z</time>
      </trkpt>
      <trkpt lat="43.96626" lon="3.72362">
        <ele>501</ele>
        <time>2019-01-12T13:16:45Z</time>
      </trkpt>
      <trkpt lat="43.96629" lon="3.72369">
        <ele>501</ele>
        <time>2019-01-12T13:16:46Z</time>
      </trkpt>
      <trkpt lat="43.96629" lon="3.72371">
        <ele>501</ele>
        <time>2019-01-12T13:16:46Z</time>
      </trkpt>
      <trkpt lat="43.9663" lon="3.72372">
        <ele>501</ele>
        <time>2019-01-12T13:16:46Z</time>
      </trkpt>
      <trkpt lat="43.96632" lon="3.72373">
        <ele>501</ele>
        <time>2019-01-12T13:16:46Z</time>
      </trkpt>
      <trkpt lat="43.96631" lon="3.72371">
        <ele>501</ele>
        <time>2019-01-12T13:20:05Z</time>
      </trkpt>
      <trkpt lat="43.96633" lon="3.72368">
        <ele>501</ele>
        <time>2019-01-12T13:20:06Z</time>
      </trkpt>
      <trkpt lat="43.96635" lon="3.72365">
        <ele>501</ele>
        <time>2019-01-12T13:20:06Z</time>
      </trkpt>
      <trkpt lat="43.96635" lon="3.72362">
        <ele>501</ele>
        <time>2019-01-12T13:20:06Z</time>
      </trkpt>
      <trkpt lat="43.96634" lon="3.7236">
        <ele>501</ele>
        <time>2019-01-12T13:20:06Z</time>
      </trkpt>
      <trkpt lat="43.96634" lon="3.72356">
        <ele>501</ele>
        <time>2019-01-12T13:20:57Z</time>
      </trkpt>
      <trkpt lat="43.96634" lon="3.72352">
        <ele>501</ele>
        <time>2019-01-12T13:20:58Z</time>
      </trkpt>
      <trkpt lat="43.96633" lon="3.72351">
        <ele>501</ele>
        <time>2019-01-12T13:20:58Z</time>
      </trkpt>
      <trkpt lat="43.96625" lon="3.72337">
        <ele>501</ele>
        <time>2019-01-12T13:20:58Z</time>
      </trkpt>
      <trkpt lat="43.96624" lon="3.72325">
        <ele>544</ele>
        <time>2019-01-12T13:21:17Z</time>
      </trkpt>
      <trkpt lat="43.96621" lon="3.72318">
        <ele>544</ele>
        <time>2019-01-12T13:21:18Z</time>
      </trkpt>
      <trkpt lat="43.9662" lon="3.72313">
        <ele>544</ele>
        <time>2019-01-12T13:21:18Z</time>
      </trkpt>
      <trkpt lat="43.9662" lon="3.7231">
        <ele>544</ele>
        <time>2019-01-12T13:21:18Z</time>
      </trkpt>
      <trkpt lat="43.96614" lon="3.72307">
        <ele>544</ele>
        <time>2019-01-12T13:22:05Z</time>
      </trkpt>
      <trkpt lat="43.96613" lon="3.72307">
        <ele>544</ele>
        <time>2019-01-12T13:22:06Z</time>
      </trkpt>
      <trkpt lat="43.96613" lon="3.72309">
        <ele>544</ele>
        <time>2019-01-12T13:22:06Z</time>
      </trkpt>
      <trkpt lat="43.96614" lon="3.72316">
        <ele>544</ele>
        <time>2019-01-12T13:22:06Z</time>
      </trkpt>
      <trkpt lat="43.96613" lon="3.72317">
        <ele>544</ele>
        <time>2019-01-12T13:22:06Z</time>
      </trkpt>
      <trkpt lat="43.96613" lon="3.72319">
        <ele>544</ele>
        <time>2019-01-12T13:24:01Z</time>
      </trkpt>
      <trkpt lat="43.96612" lon="3.7232">
        <ele>544</ele>
        <time>2019-01-12T13:24:02Z</time>
      </trkpt>
      <trkpt lat="43.96597" lon="3.72318">
        <ele>544</ele>
        <time>2019-01-12T13:24:02Z</time>
      </trkpt>
      <trkpt lat="43.96586" lon="3.72316">
        <ele>544</ele>
        <time>2019-01-12T13:24:02Z</time>
      </trkpt>
      <trkpt lat="43.96584" lon="3.72317">
        <ele>544</ele>
        <time>2019-01-12T13:24:29Z</time>
      </trkpt>
      <trkpt lat="43.96576" lon="3.72319">
        <ele>544</ele>
        <time>2019-01-12T13:24:30Z</time>
      </trkpt>
      <trkpt lat="43.96575" lon="3.72319">
        <ele>544</ele>
        <time>2019-01-12T13:24:30Z</time>
      </trkpt>
      <trkpt lat="43.96573" lon="3.72318">
        <ele>544</ele>
        <time>2019-01-12T13:24:30Z</time>
      </trkpt>
      <trkpt lat="43.96572" lon="3.72318">
        <ele>544</ele>
        <time>2019-01-12T13:25:49Z</time>
      </trkpt>
      <trkpt lat="43.96572" lon="3.72318">
        <ele>544</ele>
        <time>2019-01-12T13:25:50Z</time>
      </trkpt>
      <trkpt lat="43.96571" lon="3.72323">
        <ele>544</ele>
        <time>2019-01-12T13:25:50Z</time>
      </trkpt>
      <trkpt lat="43.9657" lon="3.72326">
        <ele>544</ele>
        <time>2019-01-12T13:25:50Z</time>
      </trkpt>
      <trkpt lat="43.96567" lon="3.72333">
        <ele>544</ele>
        <time>2019-01-12T13:25:50Z</time>
      </trkpt>
      <trkpt lat="43.96566" lon="3.72337">
        <ele>544</ele>
        <time>2019-01-12T13:26:05Z</time>
      </trkpt>
      <trkpt lat="43.96562" lon="3.72341">
        <ele>544</ele>
        <time>2019-01-12T13:26:06Z</time>
      </trkpt>
      <trkpt lat="43.96559" lon="3.72347">
        <ele>544</ele>
        <time>2019-01-12T13:26:06Z</time>
      </trkpt>
      <trkpt lat="43.96558" lon="3.72354">
        <ele>544</ele>
        <time>2019-01-12T13:26:06Z</time>
      </trkpt>
      <trkpt lat="43.96557" lon="3.72357">
        <ele>544</ele>
        <time>2019-01-12T13:26:25Z</time>
      </trkpt>
      <trkpt lat="43.96556" lon="3.72359">
        <ele>544</ele>
        <time>2019-01-12T13:26:26Z</time>
      </trkpt>
      <trkpt lat="43.96556" lon="3.7236">
        <ele>544</ele>
        <time>2019-01-12T13:26:26Z</time>
      </trkpt>
      <trkpt lat="43.96558" lon="3.72365">
        <ele>544</ele>
        <time>2019-01-12T13:26:26Z</time>
      </trkpt>
      <trkpt lat="43.96559" lon="3.7237">
        <ele>544</ele>
        <time>2019-01-12T13:26:26Z</time>
      </trkpt>
      <trkpt lat="43.96559" lon="3.72374">
        <ele>544</ele>
        <time>2019-01-12T13:26:41Z</time>
      </trkpt>
      <trkpt lat="43.9656" lon="3.7238">
        <ele>544</ele>
        <time>2019-01-12T13:26:42Z</time>
      </trkpt>
      <trkpt lat="43.9656" lon="3.72386">
        <ele>544</ele>
        <time>2019-01-12T13:26:42Z</time>
      </trkpt>
      <trkpt lat="43.96561" lon="3.72391">
        <ele>544</ele>
        <time>2019-01-12T13:26:42Z</time>
      </trkpt>
      <trkpt lat="43.96563" lon="3.72398">
        <ele>544</ele>
        <time>2019-01-12T13:26:57Z</time>
      </trkpt>
      <trkpt lat="43.96563" lon="3.72405">
        <ele>544</ele>
        <time>2019-01-12T13:26:58Z</time>
      </trkpt>
      <trkpt lat="43.96563" lon="3.7241">
        <ele>544</ele>
        <time>2019-01-12T13:26:58Z</time>
      </trkpt>
      <trkpt lat="43.96564" lon="3.72415">
        <ele>544</ele>
        <time>2019-01-12T13:26:58Z</time>
      </trkpt>
      <trkpt lat="43.96565" lon="3.72419">
        <ele>544</ele>
        <time>2019-01-12T13:27:13Z</time>
      </trkpt>
      <trkpt lat="43.96566" lon="3.72425">
        <ele>544</ele>
        <time>2019-01-12T13:27:14Z</time>
      </trkpt>
      <trkpt lat="43.96567" lon="3.7243">
        <ele>544</ele>
        <time>2019-01-12T13:27:14Z</time>
      </trkpt>
      <trkpt lat="43.96566" lon="3.72435">
        <ele>544</ele>
        <time>2019-01-12T13:27:14Z</time>
      </trkpt>
      <trkpt lat="43.96564" lon="3.72446">
        <ele>544</ele>
        <time>2019-01-12T13:27:57Z</time>
      </trkpt>
      <trkpt lat="43.96567" lon="3.72449">
        <ele>544</ele>
        <time>2019-01-12T13:27:58Z</time>
      </trkpt>
      <trkpt lat="43.9657" lon="3.72455">
        <ele>544</ele>
        <time>2019-01-12T13:27:58Z</time>
      </trkpt>
      <trkpt lat="43.96572" lon="3.72458">
        <ele>544</ele>
        <time>2019-01-12T13:27:58Z</time>
      </trkpt>
      <trkpt lat="43.96575" lon="3.72461">
        <ele>546</ele>
        <time>2019-01-12T13:27:58Z</time>
      </trkpt>
      <trkpt lat="43.96577" lon="3.72466">
        <ele>546</ele>
        <time>2019-01-12T13:28:13Z</time>
      </trkpt>
      <trkpt lat="43.96579" lon="3.72469">
        <ele>546</ele>
        <time>2019-01-12T13:28:14Z</time>
      </trkpt>
      <trkpt lat="43.96581" lon="3.72474">
        <ele>546</ele>
        <time>2019-01-12T13:28:14Z</time>
      </trkpt>
      <trkpt lat="43.96584" lon="3.72479">
        <ele>546</ele>
        <time>2019-01-12T13:28:14Z</time>
      </trkpt>
      <trkpt lat="43.96587" lon="3.72483">
        <ele>546</ele>
        <time>2019-01-12T13:28:29Z</time>
      </trkpt>
      <trkpt lat="43.96589" lon="3.72486">
        <ele>546</ele>
        <time>2019-01-12T13:28:30Z</time>
      </trkpt>
      <trkpt lat="43.96591" lon="3.7249">
        <ele>546</ele>
        <time>2019-01-12T13:28:30Z</time>
      </trkpt>
      <trkpt lat="43.96595" lon="3.72491">
        <ele>546</ele>
        <time>2019-01-12T13:28:30Z</time>
      </trkpt>
      <trkpt lat="43.96597" lon="3.72493">
        <ele>546</ele>
        <time>2019-01-12T13:28:45Z</time>
      </trkpt>
      <trkpt lat="43.96602" lon="3.72495">
        <ele>546</ele>
        <time>2019-01-12T13:28:46Z</time>
      </trkpt>
      <trkpt lat="43.96605" lon="3.72498">
        <ele>546</ele>
        <time>2019-01-12T13:28:46Z</time>
      </trkpt>
      <trkpt lat="43.96608" lon="3.72502">
        <ele>546</ele>
        <time>2019-01-12T13:28:46Z</time>
      </trkpt>
      <trkpt lat="43.96611" lon="3.72506">
        <ele>546</ele>
        <time>2019-01-12T13:29:01Z</time>
      </trkpt>
      <trkpt lat="43.96615" lon="3.72508">
        <ele>546</ele>
        <time>2019-01-12T13:29:02Z</time>
      </trkpt>
      <trkpt lat="43.96618" lon="3.72508">
        <ele>546</ele>
        <time>2019-01-12T13:29:02Z</time>
      </trkpt>
      <trkpt lat="43.96621" lon="3.7251">
        <ele>546</ele>
        <time>2019-01-12T13:29:02Z</time>
      </trkpt>
      <trkpt lat="43.96625" lon="3.72512">
        <ele>546</ele>
        <time>2019-01-12T13:29:17Z</time>
      </trkpt>
      <trkpt lat="43.96629" lon="3.72513">
        <ele>548</ele>
        <time>2019-01-12T13:29:18Z</time>
      </trkpt>
      <trkpt lat="43.96632" lon="3.72517">
        <ele>548</ele>
        <time>2019-01-12T13:29:18Z</time>
      </trkpt>
      <trkpt lat="43.96635" lon="3.7252">
        <ele>548</ele>
        <time>2019-01-12T13:29:18Z</time>
      </trkpt>
      <trkpt lat="43.96636" lon="3.72525">
        <ele>548</ele>
        <time>2019-01-12T13:29:33Z</time>
      </trkpt>
      <trkpt lat="43.96637" lon="3.72527">
        <ele>548</ele>
        <time>2019-01-12T13:29:34Z</time>
      </trkpt>
      <trkpt lat="43.96639" lon="3.72531">
        <ele>548</ele>
        <time>2019-01-12T13:29:34Z</time>
      </trkpt>
      <trkpt lat="43.9664" lon="3.72537">
        <ele>548</ele>
        <time>2019-01-12T13:29:34Z</time>
      </trkpt>
      <trkpt lat="43.96642" lon="3.72542">
        <ele>548</ele>
        <time>2019-01-12T13:29:49Z</time>
      </trkpt>
      <trkpt lat="43.96645" lon="3.72546">
        <ele>553</ele>
        <time>2019-01-12T13:29:50Z</time>
      </trkpt>
      <trkpt lat="43.96648" lon="3.72551">
        <ele>553</ele>
        <time>2019-01-12T13:29:50Z</time>
      </trkpt>
      <trkpt lat="43.96652" lon="3.72555">
        <ele>553</ele>
        <time>2019-01-12T13:29:50Z</time>
      </trkpt>
      <trkpt lat="43.96654" lon="3.7256">
        <ele>553</ele>
        <time>2019-01-12T13:30:05Z</time>
      </trkpt>
      <trkpt lat="43.96659" lon="3.72565">
        <ele>553</ele>
        <time>2019-01-12T13:30:06Z</time>
      </trkpt>
      <trkpt lat="43.96664" lon="3.7257">
        <ele>553</ele>
        <time>2019-01-12T13:30:06Z</time>
      </trkpt>
      <trkpt lat="43.96668" lon="3.72574">
        <ele>553</ele>
        <time>2019-01-12T13:30:06Z</time>
      </trkpt>
      <trkpt lat="43.9667" lon="3.72581">
        <ele>553</ele>
        <time>2019-01-12T13:30:25Z</time>
      </trkpt>
      <trkpt lat="43.96671" lon="3.72585">
        <ele>553</ele>
        <time>2019-01-12T13:30:26Z</time>
      </trkpt>
      <trkpt lat="43.96668" lon="3.72588">
        <ele>553</ele>
        <time>2019-01-12T13:30:26Z</time>
      </trkpt>
      <trkpt lat="43.96666" lon="3.72591">
        <ele>553</ele>
        <time>2019-01-12T13:30:26Z</time>
      </trkpt>
      <trkpt lat="43.96664" lon="3.72596">
        <ele>553</ele>
        <time>2019-01-12T13:30:26Z</time>
      </trkpt>
      <trkpt lat="43.96665" lon="3.72601">
        <ele>553</ele>
        <time>2019-01-12T13:30:42Z</time>
      </trkpt>
      <trkpt lat="43.96664" lon="3.72606">
        <ele>553</ele>
        <time>2019-01-12T13:30:42Z</time>
      </trkpt>
      <trkpt lat="43.96665" lon="3.72613">
        <ele>553</ele>
        <time>2019-01-12T13:30:42Z</time>
      </trkpt>
      <trkpt lat="43.96666" lon="3.72618">
        <ele>553</ele>
        <time>2019-01-12T13:30:42Z</time>
      </trkpt>
      <trkpt lat="43.96665" lon="3.72624">
        <ele>553</ele>
        <time>2019-01-12T13:30:57Z</time>
      </trkpt>
      <trkpt lat="43.96664" lon="3.7263">
        <ele>556</ele>
        <time>2019-01-12T13:30:58Z</time>
      </trkpt>
      <trkpt lat="43.96663" lon="3.72636">
        <ele>556</ele>
        <time>2019-01-12T13:30:58Z</time>
      </trkpt>
      <trkpt lat="43.96663" lon="3.72642">
        <ele>556</ele>
        <time>2019-01-12T13:30:58Z</time>
      </trkpt>
      <trkpt lat="43.96662" lon="3.72647">
        <ele>556</ele>
        <time>2019-01-12T13:31:13Z</time>
      </trkpt>
      <trkpt lat="43.96659" lon="3.72652">
        <ele>556</ele>
        <time>2019-01-12T13:31:14Z</time>
      </trkpt>
      <trkpt lat="43.96656" lon="3.72656">
        <ele>556</ele>
        <time>2019-01-12T13:31:14Z</time>
      </trkpt>
      <trkpt lat="43.96654" lon="3.7266">
        <ele>556</ele>
        <time>2019-01-12T13:31:14Z</time>
      </trkpt>
      <trkpt lat="43.96651" lon="3.72663">
        <ele>556</ele>
        <time>2019-01-12T13:31:29Z</time>
      </trkpt>
      <trkpt lat="43.9665" lon="3.72667">
        <ele>556</ele>
        <time>2019-01-12T13:31:30Z</time>
      </trkpt>
      <trkpt lat="43.96648" lon="3.72672">
        <ele>556</ele>
        <time>2019-01-12T13:31:30Z</time>
      </trkpt>
      <trkpt lat="43.96646" lon="3.72676">
        <ele>556</ele>
        <time>2019-01-12T13:31:30Z</time>
      </trkpt>
      <trkpt lat="43.96643" lon="3.72683">
        <ele>556</ele>
        <time>2019-01-12T13:31:45Z</time>
      </trkpt>
      <trkpt lat="43.96641" lon="3.72691">
        <ele>556</ele>
        <time>2019-01-12T13:31:46Z</time>
      </trkpt>
      <trkpt lat="43.96639" lon="3.72698">
        <ele>556</ele>
        <time>2019-01-12T13:31:46Z</time>
      </trkpt>
      <trkpt lat="43.96638" lon="3.72705">
        <ele>556</ele>
        <time>2019-01-12T13:31:46Z</time>
      </trkpt>
      <trkpt lat="43.9664" lon="3.72711">
        <ele>562</ele>
        <time>2019-01-12T13:32:01Z</time>
      </trkpt>
      <trkpt lat="43.96641" lon="3.72716">
        <ele>562</ele>
        <time>2019-01-12T13:32:02Z</time>
      </trkpt>
      <trkpt lat="43.96642" lon="3.72722">
        <ele>562</ele>
        <time>2019-01-12T13:32:02Z</time>
      </trkpt>
      <trkpt lat="43.96645" lon="3.72726">
        <ele>562</ele>
        <time>2019-01-12T13:32:02Z</time>
      </trkpt>
      <trkpt lat="43.96648" lon="3.72729">
        <ele>562</ele>
        <time>2019-01-12T13:32:17Z</time>
      </trkpt>
      <trkpt lat="43.96651" lon="3.72733">
        <ele>562</ele>
        <time>2019-01-12T13:32:18Z</time>
      </trkpt>
      <trkpt lat="43.96654" lon="3.72738">
        <ele>562</ele>
        <time>2019-01-12T13:32:18Z</time>
      </trkpt>
      <trkpt lat="43.96657" lon="3.72741">
        <ele>562</ele>
        <time>2019-01-12T13:32:18Z</time>
      </trkpt>
      <trkpt lat="43.9666" lon="3.72746">
        <ele>562</ele>
        <time>2019-01-12T13:32:34Z</time>
      </trkpt>
      <trkpt lat="43.96664" lon="3.72749">
        <ele>562</ele>
        <time>2019-01-12T13:32:34Z</time>
      </trkpt>
      <trkpt lat="43.96668" lon="3.72751">
        <ele>562</ele>
        <time>2019-01-12T13:32:34Z</time>
      </trkpt>
      <trkpt lat="43.96673" lon="3.72753">
        <ele>562</ele>
        <time>2019-01-12T13:32:34Z</time>
      </trkpt>
      <trkpt lat="43.96676" lon="3.72756">
        <ele>562</ele>
        <time>2019-01-12T13:32:50Z</time>
      </trkpt>
      <trkpt lat="43.96678" lon="3.72758">
        <ele>562</ele>
        <time>2019-01-12T13:32:50Z</time>
      </trkpt>
      <trkpt lat="43.96682" lon="3.72761">
        <ele>562</ele>
        <time>2019-01-12T13:32:50Z</time>
      </trkpt>
      <trkpt lat="43.96686" lon="3.72763">
        <ele>562</ele>
        <time>2019-01-12T13:32:50Z</time>
      </trkpt>
      <trkpt lat="43.96688" lon="3.72765">
        <ele>562</ele>
        <time>2019-01-12T13:33:05Z</time>
      </trkpt>
      <trkpt lat="43.96692" lon="3.72769">
        <ele>562</ele>
        <time>2019-01-12T13:33:06Z</time>
      </trkpt>
      <trkpt lat="43.96695" lon="3.72773">
        <ele>562</ele>
        <time>2019-01-12T13:33:06Z</time>
      </trkpt>
      <trkpt lat="43.96699" lon="3.72777">
        <ele>562</ele>
        <time>2019-01-12T13:33:06Z</time>
      </trkpt>
      <trkpt lat="43.96702" lon="3.72779">
        <ele>562</ele>
        <time>2019-01-12T13:33:25Z</time>
      </trkpt>
      <trkpt lat="43.96705" lon="3.72782">
        <ele>562</ele>
        <time>2019-01-12T13:33:26Z</time>
      </trkpt>
      <trkpt lat="43.96705" lon="3.72783">
        <ele>562</ele>
        <time>2019-01-12T13:33:26Z</time>
      </trkpt>
      <trkpt lat="43.9671" lon="3.72784">
        <ele>564</ele>
        <time>2019-01-12T13:33:26Z</time>
      </trkpt>
      <trkpt lat="43.96715" lon="3.72786">
        <ele>564</ele>
        <time>2019-01-12T13:33:26Z</time>
      </trkpt>
      <trkpt lat="43.9672" lon="3.72789">
        <ele>564</ele>
        <time>2019-01-12T13:33:41Z</time>
      </trkpt>
      <trkpt lat="43.96725" lon="3.7279">
        <ele>564</ele>
        <time>2019-01-12T13:33:42Z</time>
      </trkpt>
      <trkpt lat="43.96729" lon="3.72792">
        <ele>564</ele>
        <time>2019-01-12T13:33:42Z</time>
      </trkpt>
      <trkpt lat="43.96734" lon="3.72795">
        <ele>569</ele>
        <time>2019-01-12T13:33:42Z</time>
      </trkpt>
      <trkpt lat="43.96739" lon="3.72799">
        <ele>569</ele>
        <time>2019-01-12T13:33:58Z</time>
      </trkpt>
      <trkpt lat="43.96745" lon="3.72801">
        <ele>569</ele>
        <time>2019-01-12T13:33:58Z</time>
      </trkpt>
      <trkpt lat="43.96749" lon="3.72804">
        <ele>569</ele>
        <time>2019-01-12T13:33:58Z</time>
      </trkpt>
      <trkpt lat="43.96752" lon="3.72806">
        <ele>569</ele>
        <time>2019-01-12T13:33:58Z</time>
      </trkpt>
      <trkpt lat="43.96755" lon="3.72809">
        <ele>569</ele>
        <time>2019-01-12T13:34:13Z</time>
      </trkpt>
      <trkpt lat="43.96759" lon="3.72813">
        <ele>569</ele>
        <time>2019-01-12T13:34:14Z</time>
      </trkpt>
      <trkpt lat="43.96763" lon="3.72815">
        <ele>569</ele>
        <time>2019-01-12T13:34:14Z</time>
      </trkpt>
      <trkpt lat="43.96767" lon="3.72817">
        <ele>569</ele>
        <time>2019-01-12T13:34:14Z</time>
      </trkpt>
      <trkpt lat="43.9677" lon="3.72821">
        <ele>569</ele>
        <time>2019-01-12T13:34:29Z</time>
      </trkpt>
      <trkpt lat="43.96773" lon="3.72826">
        <ele>569</ele>
        <time>2019-01-12T13:34:30Z</time>
      </trkpt>
      <trkpt lat="43.96777" lon="3.72829">
        <ele>569</ele>
        <time>2019-01-12T13:34:30Z</time>
      </trkpt>
      <trkpt lat="43.96781" lon="3.72834">
        <ele>569</ele>
        <time>2019-01-12T13:34:30Z</time>
      </trkpt>
      <trkpt lat="43.96783" lon="3.72838">
        <ele>569</ele>
        <time>2019-01-12T13:34:45Z</time>
      </trkpt>
      <trkpt lat="43.96787" lon="3.72841">
        <ele>569</ele>
        <time>2019-01-12T13:34:46Z</time>
      </trkpt>
      <trkpt lat="43.96791" lon="3.72844">
        <ele>569</ele>
        <time>2019-01-12T13:34:46Z</time>
      </trkpt>
      <trkpt lat="43.96796" lon="3.72846">
        <ele>570</ele>
        <time>2019-01-12T13:34:46Z</time>
      </trkpt>
      <trkpt lat="43.968" lon="3.7285">
        <ele>570</ele>
        <time>2019-01-12T13:35:01Z</time>
      </trkpt>
      <trkpt lat="43.96804" lon="3.72852">
        <ele>570</ele>
        <time>2019-01-12T13:35:02Z</time>
      </trkpt>
      <trkpt lat="43.96808" lon="3.72856">
        <ele>570</ele>
        <time>2019-01-12T13:35:02Z</time>
      </trkpt>
      <trkpt lat="43.96811" lon="3.7286">
        <ele>570</ele>
        <time>2019-01-12T13:35:02Z</time>
      </trkpt>
      <trkpt lat="43.96815" lon="3.72863">
        <ele>570</ele>
        <time>2019-01-12T13:35:17Z</time>
      </trkpt>
      <trkpt lat="43.96818" lon="3.72868">
        <ele>570</ele>
        <time>2019-01-12T13:35:18Z</time>
      </trkpt>
      <trkpt lat="43.9682" lon="3.7287">
        <ele>570</ele>
        <time>2019-01-12T13:35:18Z</time>
      </trkpt>
      <trkpt lat="43.96822" lon="3.72874">
        <ele>570</ele>
        <time>2019-01-12T13:35:18Z</time>
      </trkpt>
      <trkpt lat="43.96827" lon="3.72876">
        <ele>580</ele>
        <time>2019-01-12T13:35:33Z</time>
      </trkpt>
      <trkpt lat="43.96831" lon="3.7288">
        <ele>580</ele>
        <time>2019-01-12T13:35:34Z</time>
      </trkpt>
      <trkpt lat="43.96835" lon="3.72882">
        <ele>580</ele>
        <time>2019-01-12T13:35:34Z</time>
      </trkpt>
      <trkpt lat="43.96839" lon="3.72886">
        <ele>580</ele>
        <time>2019-01-12T13:35:34Z</time>
      </trkpt>
      <trkpt lat="43.96844" lon="3.72888">
        <ele>580</ele>
        <time>2019-01-12T13:35:49Z</time>
      </trkpt>
      <trkpt lat="43.96848" lon="3.72889">
        <ele>580</ele>
        <time>2019-01-12T13:35:50Z</time>
      </trkpt>
      <trkpt lat="43.96851" lon="3.72889">
        <ele>580</ele>
        <time>2019-01-12T13:35:50Z</time>
      </trkpt>
      <trkpt lat="43.96853" lon="3.72889">
        <ele>580</ele>
        <time>2019-01-12T13:35:50Z</time>
      </trkpt>
      <trkpt lat="43.96857" lon="3.72892">
        <ele>580</ele>
        <time>2019-01-12T13:36:05Z</time>
      </trkpt>
      <trkpt lat="43.96861" lon="3.72894">
        <ele>580</ele>
        <time>2019-01-12T13:36:06Z</time>
      </trkpt>
      <trkpt lat="43.96866" lon="3.72897">
        <ele>580</ele>
        <time>2019-01-12T13:36:06Z</time>
      </trkpt>
      <trkpt lat="43.96871" lon="3.72899">
        <ele>580</ele>
        <time>2019-01-12T13:36:06Z</time>
      </trkpt>
      <trkpt lat="43.96876" lon="3.729">
        <ele>584</ele>
        <time>2019-01-12T13:36:21Z</time>
      </trkpt>
      <trkpt lat="43.9688" lon="3.72901">
        <ele>584</ele>
        <time>2019-01-12T13:36:22Z</time>
      </trkpt>
      <trkpt lat="43.96883" lon="3.72902">
        <ele>584</ele>
        <time>2019-01-12T13:36:22Z</time>
      </trkpt>
      <trkpt lat="43.96886" lon="3.72904">
        <ele>584</ele>
        <time>2019-01-12T13:36:22Z</time>
      </trkpt>
      <trkpt lat="43.96891" lon="3.72906">
        <ele>584</ele>
        <time>2019-01-12T13:36:37Z</time>
      </trkpt>
      <trkpt lat="43.96895" lon="3.72906">
        <ele>584</ele>
        <time>2019-01-12T13:36:38Z</time>
      </trkpt>
      <trkpt lat="43.969" lon="3.72907">
        <ele>584</ele>
        <time>2019-01-12T13:36:38Z</time>
      </trkpt>
      <trkpt lat="43.96905" lon="3.72909">
        <ele>584</ele>
        <time>2019-01-12T13:36:38Z</time>
      </trkpt>
      <trkpt lat="43.9691" lon="3.72911">
        <ele>584</ele>
        <time>2019-01-12T13:36:54Z</time>
      </trkpt>
      <trkpt lat="43.96914" lon="3.72912">
        <ele>584</ele>
        <time>2019-01-12T13:36:54Z</time>
      </trkpt>
      <trkpt lat="43.96918" lon="3.72914">
        <ele>584</ele>
        <time>2019-01-12T13:36:54Z</time>
      </trkpt>
      <trkpt lat="43.96921" lon="3.72916">
        <ele>584</ele>
        <time>2019-01-12T13:36:54Z</time>
      </trkpt>
      <trkpt lat="43.96926" lon="3.72919">
        <ele>584</ele>
        <time>2019-01-12T13:37:09Z</time>
      </trkpt>
      <trkpt lat="43.96929" lon="3.72921">
        <ele>584</ele>
        <time>2019-01-12T13:37:10Z</time>
      </trkpt>
      <trkpt lat="43.96932" lon="3.72923">
        <ele>584</ele>
        <time>2019-01-12T13:37:10Z</time>
      </trkpt>
      <trkpt lat="43.96935" lon="3.72926">
        <ele>584</ele>
        <time>2019-01-12T13:37:10Z</time>
      </trkpt>
      <trkpt lat="43.96938" lon="3.72927">
        <ele>584</ele>
        <time>2019-01-12T13:37:25Z</time>
      </trkpt>
      <trkpt lat="43.96942" lon="3.72929">
        <ele>584</ele>
        <time>2019-01-12T13:37:26Z</time>
      </trkpt>
      <trkpt lat="43.96944" lon="3.72933">
        <ele>584</ele>
        <time>2019-01-12T13:37:26Z</time>
      </trkpt>
      <trkpt lat="43.96947" lon="3.72937">
        <ele>584</ele>
        <time>2019-01-12T13:37:26Z</time>
      </trkpt>
      <trkpt lat="43.96951" lon="3.72942">
        <ele>584</ele>
        <time>2019-01-12T13:37:41Z</time>
      </trkpt>
      <trkpt lat="43.96955" lon="3.72945">
        <ele>584</ele>
        <time>2019-01-12T13:37:42Z</time>
      </trkpt>
      <trkpt lat="43.96959" lon="3.72947">
        <ele>572</ele>
        <time>2019-01-12T13:37:42Z</time>
      </trkpt>
      <trkpt lat="43.96964" lon="3.7295">
        <ele>572</ele>
        <time>2019-01-12T13:37:42Z</time>
      </trkpt>
      <trkpt lat="43.96969" lon="3.72952">
        <ele>572</ele>
        <time>2019-01-12T13:37:58Z</time>
      </trkpt>
      <trkpt lat="43.96974" lon="3.72956">
        <ele>572</ele>
        <time>2019-01-12T13:37:58Z</time>
      </trkpt>
      <trkpt lat="43.96978" lon="3.7296">
        <ele>590</ele>
        <time>2019-01-12T13:37:58Z</time>
      </trkpt>
      <trkpt lat="43.96981" lon="3.72964">
        <ele>590</ele>
        <time>2019-01-12T13:37:58Z</time>
      </trkpt>
      <trkpt lat="43.96983" lon="3.72967">
        <ele>590</ele>
        <time>2019-01-12T13:38:13Z</time>
      </trkpt>
      <trkpt lat="43.96988" lon="3.7297">
        <ele>590</ele>
        <time>2019-01-12T13:38:14Z</time>
      </trkpt>
      <trkpt lat="43.96991" lon="3.72972">
        <ele>590</ele>
        <time>2019-01-12T13:38:14Z</time>
      </trkpt>
      <trkpt lat="43.96994" lon="3.72976">
        <ele>590</ele>
        <time>2019-01-12T13:38:14Z</time>
      </trkpt>
      <trkpt lat="43.96998" lon="3.7298">
        <ele>590</ele>
        <time>2019-01-12T13:38:29Z</time>
      </trkpt>
      <trkpt lat="43.97001" lon="3.72984">
        <ele>590</ele>
        <time>2019-01-12T13:38:30Z</time>
      </trkpt>
      <trkpt lat="43.97005" lon="3.72986">
        <ele>590</ele>
        <time>2019-01-12T13:38:30Z</time>
      </trkpt>
      <trkpt lat="43.97008" lon="3.72989">
        <ele>590</ele>
        <time>2019-01-12T13:38:30Z</time>
      </trkpt>
      <trkpt lat="43.97011" lon="3.72993">
        <ele>590</ele>
        <time>2019-01-12T13:38:45Z</time>
      </trkpt>
      <trkpt lat="43.97014" lon="3.72997">
        <ele>590</ele>
        <time>2019-01-12T13:38:46Z</time>
      </trkpt>
      <trkpt lat="43.97016" lon="3.73">
        <ele>590</ele>
        <time>2019-01-12T13:38:46Z</time>
      </trkpt>
      <trkpt lat="43.97018" lon="3.73003">
        <ele>590</ele>
        <time>2019-01-12T13:38:46Z</time>
      </trkpt>
      <trkpt lat="43.97021" lon="3.73006">
        <ele>590</ele>
        <time>2019-01-12T13:39:01Z</time>
      </trkpt>
      <trkpt lat="43.97024" lon="3.7301">
        <ele>590</ele>
        <time>2019-01-12T13:39:02Z</time>
      </trkpt>
      <trkpt lat="43.97027" lon="3.73014">
        <ele>590</ele>
        <time>2019-01-12T13:39:02Z</time>
      </trkpt>
      <trkpt lat="43.97031" lon="3.73016">
        <ele>590</ele>
        <time>2019-01-12T13:39:02Z</time>
      </trkpt>
      <trkpt lat="43.97033" lon="3.73018">
        <ele>590</ele>
        <time>2019-01-12T13:39:33Z</time>
      </trkpt>
      <trkpt lat="43.97036" lon="3.73021">
        <ele>590</ele>
        <time>2019-01-12T13:39:34Z</time>
      </trkpt>
      <trkpt lat="43.97038" lon="3.73023">
        <ele>590</ele>
        <time>2019-01-12T13:39:34Z</time>
      </trkpt>
      <trkpt lat="43.97039" lon="3.73027">
        <ele>590</ele>
        <time>2019-01-12T13:39:34Z</time>
      </trkpt>
      <trkpt lat="43.97041" lon="3.7303">
        <ele>590</ele>
        <time>2019-01-12T13:39:34Z</time>
      </trkpt>
      <trkpt lat="43.97041" lon="3.7303">
        <ele>590</ele>
        <time>2019-01-12T13:39:49Z</time>
      </trkpt>
      <trkpt lat="43.97043" lon="3.73035">
        <ele>576</ele>
        <time>2019-01-12T13:39:50Z</time>
      </trkpt>
      <trkpt lat="43.97046" lon="3.73039">
        <ele>576</ele>
        <time>2019-01-12T13:39:50Z</time>
      </trkpt>
      <trkpt lat="43.9705" lon="3.73043">
        <ele>599</ele>
        <time>2019-01-12T13:39:50Z</time>
      </trkpt>
      <trkpt lat="43.97052" lon="3.73045">
        <ele>599</ele>
        <time>2019-01-12T13:40:05Z</time>
      </trkpt>
      <trkpt lat="43.97055" lon="3.73049">
        <ele>599</ele>
        <time>2019-01-12T13:40:06Z</time>
      </trkpt>
      <trkpt lat="43.97059" lon="3.73054">
        <ele>599</ele>
        <time>2019-01-12T13:40:06Z</time>
      </trkpt>
      <trkpt lat="43.97063" lon="3.73058">
        <ele>599</ele>
        <time>2019-01-12T13:40:06Z</time>
      </trkpt>
      <trkpt lat="43.97067" lon="3.73062">
        <ele>599</ele>
        <time>2019-01-12T13:40:21Z</time>
      </trkpt>
      <trkpt lat="43.97071" lon="3.73069">
        <ele>599</ele>
        <time>2019-01-12T13:40:22Z</time>
      </trkpt>
      <trkpt lat="43.97075" lon="3.73074">
        <ele>599</ele>
        <time>2019-01-12T13:40:22Z</time>
      </trkpt>
      <trkpt lat="43.9708" lon="3.73078">
        <ele>599</ele>
        <time>2019-01-12T13:40:22Z</time>
      </trkpt>
      <trkpt lat="43.97085" lon="3.73082">
        <ele>599</ele>
        <time>2019-01-12T13:40:37Z</time>
      </trkpt>
      <trkpt lat="43.97088" lon="3.73085">
        <ele>599</ele>
        <time>2019-01-12T13:40:38Z</time>
      </trkpt>
      <trkpt lat="43.97091" lon="3.73089">
        <ele>599</ele>
        <time>2019-01-12T13:40:38Z</time>
      </trkpt>
      <trkpt lat="43.97093" lon="3.73093">
        <ele>599</ele>
        <time>2019-01-12T13:40:38Z</time>
      </trkpt>
      <trkpt lat="43.97097" lon="3.73097">
        <ele>599</ele>
        <time>2019-01-12T13:40:53Z</time>
      </trkpt>
      <trkpt lat="43.97098" lon="3.731">
        <ele>599</ele>
        <time>2019-01-12T13:40:54Z</time>
      </trkpt>
      <trkpt lat="43.971" lon="3.73103">
        <ele>599</ele>
        <time>2019-01-12T13:40:54Z</time>
      </trkpt>
      <trkpt lat="43.97103" lon="3.73106">
        <ele>599</ele>
        <time>2019-01-12T13:40:54Z</time>
      </trkpt>
      <trkpt lat="43.97105" lon="3.7311">
        <ele>599</ele>
        <time>2019-01-12T13:41:09Z</time>
      </trkpt>
      <trkpt lat="43.97107" lon="3.73112">
        <ele>599</ele>
        <time>2019-01-12T13:41:10Z</time>
      </trkpt>
      <trkpt lat="43.97109" lon="3.73115">
        <ele>599</ele>
        <time>2019-01-12T13:41:10Z</time>
      </trkpt>
      <trkpt lat="43.97113" lon="3.73121">
        <ele>599</ele>
        <time>2019-01-12T13:41:10Z</time>
      </trkpt>
      <trkpt lat="43.97117" lon="3.73126">
        <ele>615</ele>
        <time>2019-01-12T13:41:41Z</time>
      </trkpt>
      <trkpt lat="43.97119" lon="3.73128">
        <ele>615</ele>
        <time>2019-01-12T13:41:42Z</time>
      </trkpt>
      <trkpt lat="43.9712" lon="3.73128">
        <ele>615</ele>
        <time>2019-01-12T13:41:42Z</time>
      </trkpt>
      <trkpt lat="43.97121" lon="3.7313">
        <ele>615</ele>
        <time>2019-01-12T13:41:42Z</time>
      </trkpt>
      <trkpt lat="43.97129" lon="3.73135">
        <ele>611</ele>
        <time>2019-01-12T13:41:42Z</time>
      </trkpt>
      <trkpt lat="43.97133" lon="3.73139">
        <ele>611</ele>
        <time>2019-01-12T13:41:57Z</time>
      </trkpt>
      <trkpt lat="43.9714" lon="3.73144">
        <ele>611</ele>
        <time>2019-01-12T13:41:58Z</time>
      </trkpt>
      <trkpt lat="43.97148" lon="3.73149">
        <ele>611</ele>
        <time>2019-01-12T13:41:58Z</time>
      </trkpt>
      <trkpt lat="43.97153" lon="3.73154">
        <ele>611</ele>
        <time>2019-01-12T13:41:58Z</time>
      </trkpt>
      <trkpt lat="43.97158" lon="3.73158">
        <ele>611</ele>
        <time>2019-01-12T13:42:13Z</time>
      </trkpt>
      <trkpt lat="43.97162" lon="3.7316">
        <ele>611</ele>
        <time>2019-01-12T13:42:14Z</time>
      </trkpt>
      <trkpt lat="43.97166" lon="3.7316">
        <ele>611</ele>
        <time>2019-01-12T13:42:14Z</time>
      </trkpt>
      <trkpt lat="43.97169" lon="3.73157">
        <ele>611</ele>
        <time>2019-01-12T13:42:14Z</time>
      </trkpt>
      <trkpt lat="43.97174" lon="3.73155">
        <ele>611</ele>
        <time>2019-01-12T13:42:29Z</time>
      </trkpt>
      <trkpt lat="43.97177" lon="3.73156">
        <ele>611</ele>
        <time>2019-01-12T13:42:30Z</time>
      </trkpt>
      <trkpt lat="43.97181" lon="3.73158">
        <ele>611</ele>
        <time>2019-01-12T13:42:30Z</time>
      </trkpt>
      <trkpt lat="43.97185" lon="3.73157">
        <ele>611</ele>
        <time>2019-01-12T13:42:30Z</time>
      </trkpt>
      <trkpt lat="43.97195" lon="3.73155">
        <ele>611</ele>
        <time>2019-01-12T13:44:09Z</time>
      </trkpt>
      <trkpt lat="43.97196" lon="3.73155">
        <ele>611</ele>
        <time>2019-01-12T13:44:10Z</time>
      </trkpt>
      <trkpt lat="43.97195" lon="3.73158">
        <ele>611</ele>
        <time>2019-01-12T13:44:10Z</time>
      </trkpt>
      <trkpt lat="43.97196" lon="3.73163">
        <ele>611</ele>
        <time>2019-01-12T13:44:10Z</time>
      </trkpt>
      <trkpt lat="43.97196" lon="3.73166">
        <ele>611</ele>
        <time>2019-01-12T13:44:10Z</time>
      </trkpt>
      <trkpt lat="43.97199" lon="3.73172">
        <ele>611</ele>
        <time>2019-01-12T13:44:53Z</time>
      </trkpt>
      <trkpt lat="43.97201" lon="3.7318">
        <ele>611</ele>
        <time>2019-01-12T13:44:54Z</time>
      </trkpt>
      <trkpt lat="43.97202" lon="3.73186">
        <ele>611</ele>
        <time>2019-01-12T13:44:54Z</time>
      </trkpt>
      <trkpt lat="43.97205" lon="3.73194">
        <ele>611</ele>
        <time>2019-01-12T13:44:54Z</time>
      </trkpt>
      <trkpt lat="43.97207" lon="3.73198">
        <ele>611</ele>
        <time>2019-01-12T13:45:13Z</time>
      </trkpt>
      <trkpt lat="43.97207" lon="3.73201">
        <ele>611</ele>
        <time>2019-01-12T13:45:14Z</time>
      </trkpt>
      <trkpt lat="43.97208" lon="3.73203">
        <ele>611</ele>
        <time>2019-01-12T13:45:14Z</time>
      </trkpt>
      <trkpt lat="43.9721" lon="3.73208">
        <ele>627</ele>
        <time>2019-01-12T13:45:14Z</time>
      </trkpt>
      <trkpt lat="43.97211" lon="3.73213">
        <ele>636</ele>
        <time>2019-01-12T13:45:14Z</time>
      </trkpt>
      <trkpt lat="43.97212" lon="3.73214">
        <ele>636</ele>
        <time>2019-01-12T13:45:29Z</time>
      </trkpt>
      <trkpt lat="43.97213" lon="3.73218">
        <ele>636</ele>
        <time>2019-01-12T13:45:30Z</time>
      </trkpt>
      <trkpt lat="43.97214" lon="3.73223">
        <ele>636</ele>
        <time>2019-01-12T13:45:30Z</time>
      </trkpt>
      <trkpt lat="43.97214" lon="3.73229">
        <ele>636</ele>
        <time>2019-01-12T13:45:30Z</time>
      </trkpt>
      <trkpt lat="43.97215" lon="3.73238">
        <ele>636</ele>
        <time>2019-01-12T13:45:49Z</time>
      </trkpt>
      <trkpt lat="43.97215" lon="3.73241">
        <ele>636</ele>
        <time>2019-01-12T13:45:50Z</time>
      </trkpt>
      <trkpt lat="43.97216" lon="3.73245">
        <ele>636</ele>
        <time>2019-01-12T13:45:50Z</time>
      </trkpt>
      <trkpt lat="43.97216" lon="3.7325">
        <ele>636</ele>
        <time>2019-01-12T13:45:50Z</time>
      </trkpt>
      <trkpt lat="43.97218" lon="3.73256">
        <ele>636</ele>
        <time>2019-01-12T13:45:50Z</time>
      </trkpt>
      <trkpt lat="43.97221" lon="3.73262">
        <ele>636</ele>
        <time>2019-01-12T13:46:13Z</time>
      </trkpt>
      <trkpt lat="43.97222" lon="3.73266">
        <ele>636</ele>
        <time>2019-01-12T13:46:14Z</time>
      </trkpt>
      <trkpt lat="43.97223" lon="3.73268">
        <ele>636</ele>
        <time>2019-01-12T13:46:14Z</time>
      </trkpt>
      <trkpt lat="43.97225" lon="3.73271">
        <ele>636</ele>
        <time>2019-01-12T13:46:14Z</time>
      </trkpt>
      <trkpt lat="43.97227" lon="3.73275">
        <ele>636</ele>
        <time>2019-01-12T13:46:14Z</time>
      </trkpt>
      <trkpt lat="43.97228" lon="3.73282">
        <ele>636</ele>
        <time>2019-01-12T13:46:57Z</time>
      </trkpt>
      <trkpt lat="43.97229" lon="3.73284">
        <ele>636</ele>
        <time>2019-01-12T13:46:58Z</time>
      </trkpt>
      <trkpt lat="43.9723" lon="3.73286">
        <ele>636</ele>
        <time>2019-01-12T13:46:58Z</time>
      </trkpt>
      <trkpt lat="43.97231" lon="3.73288">
        <ele>636</ele>
        <time>2019-01-12T13:46:58Z</time>
      </trkpt>
      <trkpt lat="43.97235" lon="3.73291">
        <ele>636</ele>
        <time>2019-01-12T13:46:58Z</time>
      </trkpt>
      <trkpt lat="43.97238" lon="3.73295">
        <ele>632</ele>
        <time>2019-01-12T13:47:13Z</time>
      </trkpt>
      <trkpt lat="43.97243" lon="3.73297">
        <ele>632</ele>
        <time>2019-01-12T13:47:14Z</time>
      </trkpt>
      <trkpt lat="43.97245" lon="3.73299">
        <ele>632</ele>
        <time>2019-01-12T13:47:14Z</time>
      </trkpt>
      <trkpt lat="43.97248" lon="3.73301">
        <ele>632</ele>
        <time>2019-01-12T13:47:14Z</time>
      </trkpt>
      <trkpt lat="43.97249" lon="3.73301">
        <ele>632</ele>
        <time>2019-01-12T13:48:17Z</time>
      </trkpt>
      <trkpt lat="43.97254" lon="3.73301">
        <ele>632</ele>
        <time>2019-01-12T13:48:18Z</time>
      </trkpt>
      <trkpt lat="43.97255" lon="3.73301">
        <ele>632</ele>
        <time>2019-01-12T13:48:18Z</time>
      </trkpt>
      <trkpt lat="43.97256" lon="3.73302">
        <ele>632</ele>
        <time>2019-01-12T13:48:18Z</time>
      </trkpt>
      <trkpt lat="43.97259" lon="3.73304">
        <ele>632</ele>
        <time>2019-01-12T13:48:18Z</time>
      </trkpt>
      <trkpt lat="43.9726" lon="3.73303">
        <ele>632</ele>
        <time>2019-01-12T13:48:45Z</time>
      </trkpt>
      <trkpt lat="43.97261" lon="3.73302">
        <ele>632</ele>
        <time>2019-01-12T13:48:46Z</time>
      </trkpt>
      <trkpt lat="43.97262" lon="3.733">
        <ele>632</ele>
        <time>2019-01-12T13:48:46Z</time>
      </trkpt>
      <trkpt lat="43.97264" lon="3.73296">
        <ele>632</ele>
        <time>2019-01-12T13:48:46Z</time>
      </trkpt>
      <trkpt lat="43.97266" lon="3.73293">
        <ele>632</ele>
        <time>2019-01-12T13:48:46Z</time>
      </trkpt>
      <trkpt lat="43.97268" lon="3.73291">
        <ele>636</ele>
        <time>2019-01-12T13:49:13Z</time>
      </trkpt>
      <trkpt lat="43.97269" lon="3.73289">
        <ele>636</ele>
        <time>2019-01-12T13:49:14Z</time>
      </trkpt>
      <trkpt lat="43.9727" lon="3.73286">
        <ele>636</ele>
        <time>2019-01-12T13:49:14Z</time>
      </trkpt>
      <trkpt lat="43.97272" lon="3.73284">
        <ele>636</ele>
        <time>2019-01-12T13:49:14Z</time>
      </trkpt>
      <trkpt lat="43.97274" lon="3.73281">
        <ele>636</ele>
        <time>2019-01-12T13:49:14Z</time>
      </trkpt>
      <trkpt lat="43.97275" lon="3.7328">
        <ele>636</ele>
        <time>2019-01-12T13:49:29Z</time>
      </trkpt>
      <trkpt lat="43.97279" lon="3.73279">
        <ele>636</ele>
        <time>2019-01-12T13:49:30Z</time>
      </trkpt>
      <trkpt lat="43.97282" lon="3.73277">
        <ele>636</ele>
        <time>2019-01-12T13:49:30Z</time>
      </trkpt>
      <trkpt lat="43.97284" lon="3.73275">
        <ele>636</ele>
        <time>2019-01-12T13:49:30Z</time>
      </trkpt>
      <trkpt lat="43.97287" lon="3.73272">
        <ele>636</ele>
        <time>2019-01-12T13:50:01Z</time>
      </trkpt>
      <trkpt lat="43.97289" lon="3.73268">
        <ele>636</ele>
        <time>2019-01-12T13:50:02Z</time>
      </trkpt>
      <trkpt lat="43.9729" lon="3.73266">
        <ele>636</ele>
        <time>2019-01-12T13:50:02Z</time>
      </trkpt>
      <trkpt lat="43.97291" lon="3.73264">
        <ele>636</ele>
        <time>2019-01-12T13:50:02Z</time>
      </trkpt>
      <trkpt lat="43.97294" lon="3.73259">
        <ele>661</ele>
        <time>2019-01-12T13:50:02Z</time>
      </trkpt>
      <trkpt lat="43.97297" lon="3.73253">
        <ele>661</ele>
        <time>2019-01-12T13:50:17Z</time>
      </trkpt>
      <trkpt lat="43.97299" lon="3.73248">
        <ele>661</ele>
        <time>2019-01-12T13:50:18Z</time>
      </trkpt>
      <trkpt lat="43.97303" lon="3.73242">
        <ele>661</ele>
        <time>2019-01-12T13:50:18Z</time>
      </trkpt>
      <trkpt lat="43.97305" lon="3.73237">
        <ele>661</ele>
        <time>2019-01-12T13:50:18Z</time>
      </trkpt>
      <trkpt lat="43.97306" lon="3.73231">
        <ele>661</ele>
        <time>2019-01-12T13:50:42Z</time>
      </trkpt>
      <trkpt lat="43.97307" lon="3.73227">
        <ele>661</ele>
        <time>2019-01-12T13:50:42Z</time>
      </trkpt>
      <trkpt lat="43.97309" lon="3.73225">
        <ele>661</ele>
        <time>2019-01-12T13:50:42Z</time>
      </trkpt>
      <trkpt lat="43.9731" lon="3.73221">
        <ele>661</ele>
        <time>2019-01-12T13:50:42Z</time>
      </trkpt>
      <trkpt lat="43.97312" lon="3.73217">
        <ele>661</ele>
        <time>2019-01-12T13:50:42Z</time>
      </trkpt>
      <trkpt lat="43.97313" lon="3.73212">
        <ele>661</ele>
        <time>2019-01-12T13:51:01Z</time>
      </trkpt>
      <trkpt lat="43.97313" lon="3.73211">
        <ele>661</ele>
        <time>2019-01-12T13:51:02Z</time>
      </trkpt>
      <trkpt lat="43.97313" lon="3.73208">
        <ele>662</ele>
        <time>2019-01-12T13:51:02Z</time>
      </trkpt>
      <trkpt lat="43.97315" lon="3.73201">
        <ele>662</ele>
        <time>2019-01-12T13:51:02Z</time>
      </trkpt>
      <trkpt lat="43.97316" lon="3.73193">
        <ele>662</ele>
        <time>2019-01-12T13:51:02Z</time>
      </trkpt>
      <trkpt lat="43.97319" lon="3.73185">
        <ele>662</ele>
        <time>2019-01-12T13:51:17Z</time>
      </trkpt>
      <trkpt lat="43.97322" lon="3.73178">
        <ele>662</ele>
        <time>2019-01-12T13:51:18Z</time>
      </trkpt>
      <trkpt lat="43.97323" lon="3.73171">
        <ele>662</ele>
        <time>2019-01-12T13:51:18Z</time>
      </trkpt>
      <trkpt lat="43.97324" lon="3.73166">
        <ele>662</ele>
        <time>2019-01-12T13:51:18Z</time>
      </trkpt>
      <trkpt lat="43.97326" lon="3.73162">
        <ele>662</ele>
        <time>2019-01-12T13:51:33Z</time>
      </trkpt>
      <trkpt lat="43.97328" lon="3.73158">
        <ele>662</ele>
        <time>2019-01-12T13:51:34Z</time>
      </trkpt>
      <trkpt lat="43.97329" lon="3.73152">
        <ele>662</ele>
        <time>2019-01-12T13:51:34Z</time>
      </trkpt>
      <trkpt lat="43.9733" lon="3.73146">
        <ele>662</ele>
        <time>2019-01-12T13:51:34Z</time>
      </trkpt>
      <trkpt lat="43.97329" lon="3.73139">
        <ele>662</ele>
        <time>2019-01-12T13:51:49Z</time>
      </trkpt>
      <trkpt lat="43.97329" lon="3.73134">
        <ele>662</ele>
        <time>2019-01-12T13:51:50Z</time>
      </trkpt>
      <trkpt lat="43.9733" lon="3.73127">
        <ele>662</ele>
        <time>2019-01-12T13:51:50Z</time>
      </trkpt>
      <trkpt lat="43.97331" lon="3.73122">
        <ele>655</ele>
        <time>2019-01-12T13:51:50Z</time>
      </trkpt>
      <trkpt lat="43.97332" lon="3.73117">
        <ele>655</ele>
        <time>2019-01-12T13:52:09Z</time>
      </trkpt>
      <trkpt lat="43.97333" lon="3.73113">
        <ele>655</ele>
        <time>2019-01-12T13:52:10Z</time>
      </trkpt>
      <trkpt lat="43.97333" lon="3.73112">
        <ele>655</ele>
        <time>2019-01-12T13:52:10Z</time>
      </trkpt>
      <trkpt lat="43.97335" lon="3.73107">
        <ele>655</ele>
        <time>2019-01-12T13:52:10Z</time>
      </trkpt>
      <trkpt lat="43.97336" lon="3.73101">
        <ele>655</ele>
        <time>2019-01-12T13:52:10Z</time>
      </trkpt>
      <trkpt lat="43.97338" lon="3.73096">
        <ele>655</ele>
        <time>2019-01-12T13:52:29Z</time>
      </trkpt>
      <trkpt lat="43.97338" lon="3.73093">
        <ele>655</ele>
        <time>2019-01-12T13:52:30Z</time>
      </trkpt>
      <trkpt lat="43.97339" lon="3.73089">
        <ele>655</ele>
        <time>2019-01-12T13:52:30Z</time>
      </trkpt>
      <trkpt lat="43.97341" lon="3.73083">
        <ele>655</ele>
        <time>2019-01-12T13:52:30Z</time>
      </trkpt>
      <trkpt lat="43.97343" lon="3.73078">
        <ele>655</ele>
        <time>2019-01-12T13:52:57Z</time>
      </trkpt>
      <trkpt lat="43.97345" lon="3.73072">
        <ele>655</ele>
        <time>2019-01-12T13:52:58Z</time>
      </trkpt>
      <trkpt lat="43.97345" lon="3.73071">
        <ele>655</ele>
        <time>2019-01-12T13:52:58Z</time>
      </trkpt>
      <trkpt lat="43.97349" lon="3.73065">
        <ele>655</ele>
        <time>2019-01-12T13:52:58Z</time>
      </trkpt>
      <trkpt lat="43.9735" lon="3.73063">
        <ele>655</ele>
        <time>2019-01-12T13:54:14Z</time>
      </trkpt>
      <trkpt lat="43.97351" lon="3.73063">
        <ele>655</ele>
        <time>2019-01-12T13:54:14Z</time>
      </trkpt>
      <trkpt lat="43.97354" lon="3.73057">
        <ele>655</ele>
        <time>2019-01-12T13:54:14Z</time>
      </trkpt>
      <trkpt lat="43.97359" lon="3.73053">
        <ele>655</ele>
        <time>2019-01-12T13:54:14Z</time>
      </trkpt>
      <trkpt lat="43.97363" lon="3.73047">
        <ele>655</ele>
        <time>2019-01-12T13:54:29Z</time>
      </trkpt>
      <trkpt lat="43.9737" lon="3.73038">
        <ele>643</ele>
        <time>2019-01-12T13:54:30Z</time>
      </trkpt>
      <trkpt lat="43.97375" lon="3.73029">
        <ele>677</ele>
        <time>2019-01-12T13:54:30Z</time>
      </trkpt>
      <trkpt lat="43.97378" lon="3.73025">
        <ele>677</ele>
        <time>2019-01-12T13:54:30Z</time>
      </trkpt>
      <trkpt lat="43.97381" lon="3.73022">
        <ele>677</ele>
        <time>2019-01-12T13:54:45Z</time>
      </trkpt>
      <trkpt lat="43.97385" lon="3.7302">
        <ele>677</ele>
        <time>2019-01-12T13:54:46Z</time>
      </trkpt>
      <trkpt lat="43.97386" lon="3.73016">
        <ele>677</ele>
        <time>2019-01-12T13:54:46Z</time>
      </trkpt>
      <trkpt lat="43.97387" lon="3.73012">
        <ele>677</ele>
        <time>2019-01-12T13:54:46Z</time>
      </trkpt>
      <trkpt lat="43.97388" lon="3.73009">
        <ele>677</ele>
        <time>2019-01-12T13:55:02Z</time>
      </trkpt>
      <trkpt lat="43.97389" lon="3.73004">
        <ele>677</ele>
        <time>2019-01-12T13:55:02Z</time>
      </trkpt>
      <trkpt lat="43.97393" lon="3.73001">
        <ele>677</ele>
        <time>2019-01-12T13:55:02Z</time>
      </trkpt>
      <trkpt lat="43.97395" lon="3.72997">
        <ele>677</ele>
        <time>2019-01-12T13:55:02Z</time>
      </trkpt>
      <trkpt lat="43.97396" lon="3.72992">
        <ele>677</ele>
        <time>2019-01-12T13:55:17Z</time>
      </trkpt>
      <trkpt lat="43.97398" lon="3.72985">
        <ele>677</ele>
        <time>2019-01-12T13:55:18Z</time>
      </trkpt>
      <trkpt lat="43.97399" lon="3.7298">
        <ele>677</ele>
        <time>2019-01-12T13:55:18Z</time>
      </trkpt>
      <trkpt lat="43.97401" lon="3.72975">
        <ele>677</ele>
        <time>2019-01-12T13:55:18Z</time>
      </trkpt>
      <trkpt lat="43.97402" lon="3.72972">
        <ele>677</ele>
        <time>2019-01-12T13:55:34Z</time>
      </trkpt>
      <trkpt lat="43.97404" lon="3.7297">
        <ele>677</ele>
        <time>2019-01-12T13:55:34Z</time>
      </trkpt>
      <trkpt lat="43.97405" lon="3.72965">
        <ele>677</ele>
        <time>2019-01-12T13:55:34Z</time>
      </trkpt>
      <trkpt lat="43.97406" lon="3.72959">
        <ele>677</ele>
        <time>2019-01-12T13:55:34Z</time>
      </trkpt>
      <trkpt lat="43.97408" lon="3.72954">
        <ele>665</ele>
        <time>2019-01-12T13:55:53Z</time>
      </trkpt>
      <trkpt lat="43.9741" lon="3.72953">
        <ele>665</ele>
        <time>2019-01-12T13:55:54Z</time>
      </trkpt>
      <trkpt lat="43.97412" lon="3.7295">
        <ele>665</ele>
        <time>2019-01-12T13:55:54Z</time>
      </trkpt>
      <trkpt lat="43.97413" lon="3.72946">
        <ele>665</ele>
        <time>2019-01-12T13:55:54Z</time>
      </trkpt>
      <trkpt lat="43.97414" lon="3.72943">
        <ele>665</ele>
        <time>2019-01-12T13:55:54Z</time>
      </trkpt>
      <trkpt lat="43.97414" lon="3.72939">
        <ele>665</ele>
        <time>2019-01-12T13:56:10Z</time>
      </trkpt>
      <trkpt lat="43.97416" lon="3.72935">
        <ele>665</ele>
        <time>2019-01-12T13:56:10Z</time>
      </trkpt>
      <trkpt lat="43.97417" lon="3.72928">
        <ele>665</ele>
        <time>2019-01-12T13:56:10Z</time>
      </trkpt>
      <trkpt lat="43.97418" lon="3.72922">
        <ele>665</ele>
        <time>2019-01-12T13:56:10Z</time>
      </trkpt>
      <trkpt lat="43.97419" lon="3.72917">
        <ele>665</ele>
        <time>2019-01-12T13:56:25Z</time>
      </trkpt>
      <trkpt lat="43.97421" lon="3.72911">
        <ele>665</ele>
        <time>2019-01-12T13:56:26Z</time>
      </trkpt>
      <trkpt lat="43.97421" lon="3.72907">
        <ele>665</ele>
        <time>2019-01-12T13:56:26Z</time>
      </trkpt>
      <trkpt lat="43.97422" lon="3.72902">
        <ele>665</ele>
        <time>2019-01-12T13:56:26Z</time>
      </trkpt>
      <trkpt lat="43.97425" lon="3.72897">
        <ele>665</ele>
        <time>2019-01-12T13:56:45Z</time>
      </trkpt>
      <trkpt lat="43.97426" lon="3.72891">
        <ele>665</ele>
        <time>2019-01-12T13:56:46Z</time>
      </trkpt>
      <trkpt lat="43.97425" lon="3.72888">
        <ele>665</ele>
        <time>2019-01-12T13:56:46Z</time>
      </trkpt>
      <trkpt lat="43.97425" lon="3.72886">
        <ele>665</ele>
        <time>2019-01-12T13:56:46Z</time>
      </trkpt>
      <trkpt lat="43.97425" lon="3.7288">
        <ele>665</ele>
        <time>2019-01-12T13:56:46Z</time>
      </trkpt>
      <trkpt lat="43.97424" lon="3.72876">
        <ele>665</ele>
        <time>2019-01-12T13:57:45Z</time>
      </trkpt>
      <trkpt lat="43.97426" lon="3.72876">
        <ele>665</ele>
        <time>2019-01-12T13:57:46Z</time>
      </trkpt>
      <trkpt lat="43.97428" lon="3.72874">
        <ele>651</ele>
        <time>2019-01-12T13:57:46Z</time>
      </trkpt>
      <trkpt lat="43.97431" lon="3.72872">
        <ele>651</ele>
        <time>2019-01-12T13:57:46Z</time>
      </trkpt>
      <trkpt lat="43.97435" lon="3.72868">
        <ele>651</ele>
        <time>2019-01-12T13:57:46Z</time>
      </trkpt>
      <trkpt lat="43.97438" lon="3.72865">
        <ele>651</ele>
        <time>2019-01-12T13:58:05Z</time>
      </trkpt>
      <trkpt lat="43.9744" lon="3.72864">
        <ele>651</ele>
        <time>2019-01-12T13:58:06Z</time>
      </trkpt>
      <trkpt lat="43.97442" lon="3.72863">
        <ele>651</ele>
        <time>2019-01-12T13:58:06Z</time>
      </trkpt>
      <trkpt lat="43.97446" lon="3.72859">
        <ele>651</ele>
        <time>2019-01-12T13:58:06Z</time>
      </trkpt>
      <trkpt lat="43.97452" lon="3.72855">
        <ele>651</ele>
        <time>2019-01-12T13:58:06Z</time>
      </trkpt>
      <trkpt lat="43.97455" lon="3.72853">
        <ele>651</ele>
        <time>2019-01-12T13:58:33Z</time>
      </trkpt>
      <trkpt lat="43.97458" lon="3.72852">
        <ele>655</ele>
        <time>2019-01-12T13:58:34Z</time>
      </trkpt>
      <trkpt lat="43.97463" lon="3.72852">
        <ele>655</ele>
        <time>2019-01-12T13:58:34Z</time>
      </trkpt>
      <trkpt lat="43.97466" lon="3.72852">
        <ele>655</ele>
        <time>2019-01-12T13:58:34Z</time>
      </trkpt>
      <trkpt lat="43.97467" lon="3.72847">
        <ele>655</ele>
        <time>2019-01-12T13:58:49Z</time>
      </trkpt>
      <trkpt lat="43.97469" lon="3.72844">
        <ele>655</ele>
        <time>2019-01-12T13:58:50Z</time>
      </trkpt>
      <trkpt lat="43.97469" lon="3.72839">
        <ele>655</ele>
        <time>2019-01-12T13:58:50Z</time>
      </trkpt>
      <trkpt lat="43.97472" lon="3.72836">
        <ele>655</ele>
        <time>2019-01-12T13:58:50Z</time>
      </trkpt>
      <trkpt lat="43.97474" lon="3.72833">
        <ele>655</ele>
        <time>2019-01-12T13:59:05Z</time>
      </trkpt>
      <trkpt lat="43.97474" lon="3.72828">
        <ele>655</ele>
        <time>2019-01-12T13:59:06Z</time>
      </trkpt>
      <trkpt lat="43.97477" lon="3.72824">
        <ele>655</ele>
        <time>2019-01-12T13:59:06Z</time>
      </trkpt>
      <trkpt lat="43.9748" lon="3.72823">
        <ele>655</ele>
        <time>2019-01-12T13:59:06Z</time>
      </trkpt>
      <trkpt lat="43.97482" lon="3.72814">
        <ele>655</ele>
        <time>2019-01-12T14:00:45Z</time>
      </trkpt>
      <trkpt lat="43.97479" lon="3.72816">
        <ele>655</ele>
        <time>2019-01-12T14:00:46Z</time>
      </trkpt>
      <trkpt lat="43.97476" lon="3.72817">
        <ele>655</ele>
        <time>2019-01-12T14:00:46Z</time>
      </trkpt>
      <trkpt lat="43.97475" lon="3.72822">
        <ele>655</ele>
        <time>2019-01-12T14:00:46Z</time>
      </trkpt>
      <trkpt lat="43.97474" lon="3.72827">
        <ele>655</ele>
        <time>2019-01-12T14:00:46Z</time>
      </trkpt>
      <trkpt lat="43.97471" lon="3.7283">
        <ele>655</ele>
        <time>2019-01-12T14:01:01Z</time>
      </trkpt>
      <trkpt lat="43.97469" lon="3.72835">
        <ele>655</ele>
        <time>2019-01-12T14:01:02Z</time>
      </trkpt>
      <trkpt lat="43.97468" lon="3.7284">
        <ele>655</ele>
        <time>2019-01-12T14:01:02Z</time>
      </trkpt>
      <trkpt lat="43.97466" lon="3.72845">
        <ele>655</ele>
        <time>2019-01-12T14:01:02Z</time>
      </trkpt>
      <trkpt lat="43.97464" lon="3.72849">
        <ele>655</ele>
        <time>2019-01-12T14:01:21Z</time>
      </trkpt>
      <trkpt lat="43.97463" lon="3.72851">
        <ele>655</ele>
        <time>2019-01-12T14:01:22Z</time>
      </trkpt>
      <trkpt lat="43.97461" lon="3.72855">
        <ele>655</ele>
        <time>2019-01-12T14:01:22Z</time>
      </trkpt>
      <trkpt lat="43.9746" lon="3.72859">
        <ele>655</ele>
        <time>2019-01-12T14:01:22Z</time>
      </trkpt>
      <trkpt lat="43.9746" lon="3.72864">
        <ele>655</ele>
        <time>2019-01-12T14:01:22Z</time>
      </trkpt>
      <trkpt lat="43.97459" lon="3.72871">
        <ele>655</ele>
        <time>2019-01-12T14:01:50Z</time>
      </trkpt>
      <trkpt lat="43.97459" lon="3.72873">
        <ele>655</ele>
        <time>2019-01-12T14:01:50Z</time>
      </trkpt>
      <trkpt lat="43.97459" lon="3.72879">
        <ele>650</ele>
        <time>2019-01-12T14:01:50Z</time>
      </trkpt>
      <trkpt lat="43.97461" lon="3.72888">
        <ele>650</ele>
        <time>2019-01-12T14:01:50Z</time>
      </trkpt>
      <trkpt lat="43.97462" lon="3.72891">
        <ele>650</ele>
        <time>2019-01-12T14:02:13Z</time>
      </trkpt>
      <trkpt lat="43.97461" lon="3.72894">
        <ele>650</ele>
        <time>2019-01-12T14:02:14Z</time>
      </trkpt>
      <trkpt lat="43.97462" lon="3.72897">
        <ele>650</ele>
        <time>2019-01-12T14:02:14Z</time>
      </trkpt>
      <trkpt lat="43.97462" lon="3.72899">
        <ele>650</ele>
        <time>2019-01-12T14:02:14Z</time>
      </trkpt>
      <trkpt lat="43.9746" lon="3.72903">
        <ele>650</ele>
        <time>2019-01-12T14:02:14Z</time>
      </trkpt>
      <trkpt lat="43.97461" lon="3.72907">
        <ele>650</ele>
        <time>2019-01-12T14:02:49Z</time>
      </trkpt>
      <trkpt lat="43.97462" lon="3.7291">
        <ele>650</ele>
        <time>2019-01-12T14:02:50Z</time>
      </trkpt>
      <trkpt lat="43.97461" lon="3.72914">
        <ele>650</ele>
        <time>2019-01-12T14:02:50Z</time>
      </trkpt>
      <trkpt lat="43.97461" lon="3.72915">
        <ele>650</ele>
        <time>2019-01-12T14:02:50Z</time>
      </trkpt>
      <trkpt lat="43.9746" lon="3.72925">
        <ele>650</ele>
        <time>2019-01-12T14:02:50Z</time>
      </trkpt>
      <trkpt lat="43.97457" lon="3.72933">
        <ele>665</ele>
        <time>2019-01-12T14:03:06Z</time>
      </trkpt>
      <trkpt lat="43.97455" lon="3.72938">
        <ele>665</ele>
        <time>2019-01-12T14:03:06Z</time>
      </trkpt>
      <trkpt lat="43.97454" lon="3.72943">
        <ele>665</ele>
        <time>2019-01-12T14:03:06Z</time>
      </trkpt>
      <trkpt lat="43.97453" lon="3.72948">
        <ele>665</ele>
        <time>2019-01-12T14:03:06Z</time>
      </trkpt>
      <trkpt lat="43.97453" lon="3.72951">
        <ele>665</ele>
        <time>2019-01-12T14:03:45Z</time>
      </trkpt>
      <trkpt lat="43.97453" lon="3.72957">
        <ele>665</ele>
        <time>2019-01-12T14:03:46Z</time>
      </trkpt>
      <trkpt lat="43.9745" lon="3.72964">
        <ele>677</ele>
        <time>2019-01-12T14:03:46Z</time>
      </trkpt>
      <trkpt lat="43.97449" lon="3.72973">
        <ele>677</ele>
        <time>2019-01-12T14:03:46Z</time>
      </trkpt>
      <trkpt lat="43.97448" lon="3.72976">
        <ele>677</ele>
        <time>2019-01-12T14:04:06Z</time>
      </trkpt>
      <trkpt lat="43.97445" lon="3.7298">
        <ele>677</ele>
        <time>2019-01-12T14:04:06Z</time>
      </trkpt>
      <trkpt lat="43.97444" lon="3.72983">
        <ele>677</ele>
        <time>2019-01-12T14:04:06Z</time>
      </trkpt>
      <trkpt lat="43.97443" lon="3.72987">
        <ele>677</ele>
        <time>2019-01-12T14:04:06Z</time>
      </trkpt>
      <trkpt lat="43.97443" lon="3.72998">
        <ele>677</ele>
        <time>2019-01-12T14:04:57Z</time>
      </trkpt>
      <trkpt lat="43.97443" lon="3.73006">
        <ele>677</ele>
        <time>2019-01-12T14:04:58Z</time>
      </trkpt>
      <trkpt lat="43.97445" lon="3.73009">
        <ele>677</ele>
        <time>2019-01-12T14:04:58Z</time>
      </trkpt>
      <trkpt lat="43.97445" lon="3.73009">
        <ele>677</ele>
        <time>2019-01-12T14:04:58Z</time>
      </trkpt>
      <trkpt lat="43.97446" lon="3.73013">
        <ele>677</ele>
        <time>2019-01-12T14:04:58Z</time>
      </trkpt>
      <trkpt lat="43.97447" lon="3.73015">
        <ele>677</ele>
        <time>2019-01-12T14:05:17Z</time>
      </trkpt>
      <trkpt lat="43.97448" lon="3.73025">
        <ele>677</ele>
        <time>2019-01-12T14:05:18Z</time>
      </trkpt>
      <trkpt lat="43.97449" lon="3.7303">
        <ele>677</ele>
        <time>2019-01-12T14:05:18Z</time>
      </trkpt>
      <trkpt lat="43.9745" lon="3.73039">
        <ele>677</ele>
        <time>2019-01-12T14:05:18Z</time>
      </trkpt>
      <trkpt lat="43.97451" lon="3.73043">
        <ele>689</ele>
        <time>2019-01-12T14:05:33Z</time>
      </trkpt>
      <trkpt lat="43.97451" lon="3.73047">
        <ele>689</ele>
        <time>2019-01-12T14:05:34Z</time>
      </trkpt>
      <trkpt lat="43.97452" lon="3.73052">
        <ele>689</ele>
        <time>2019-01-12T14:05:34Z</time>
      </trkpt>
      <trkpt lat="43.97454" lon="3.73056">
        <ele>689</ele>
        <time>2019-01-12T14:05:34Z</time>
      </trkpt>
      <trkpt lat="43.97456" lon="3.7306">
        <ele>689</ele>
        <time>2019-01-12T14:05:49Z</time>
      </trkpt>
      <trkpt lat="43.97457" lon="3.73065">
        <ele>689</ele>
        <time>2019-01-12T14:05:50Z</time>
      </trkpt>
      <trkpt lat="43.9746" lon="3.73069">
        <ele>659</ele>
        <time>2019-01-12T14:05:50Z</time>
      </trkpt>
      <trkpt lat="43.9746" lon="3.73072">
        <ele>659</ele>
        <time>2019-01-12T14:05:50Z</time>
      </trkpt>
      <trkpt lat="43.97461" lon="3.73076">
        <ele>659</ele>
        <time>2019-01-12T14:06:14Z</time>
      </trkpt>
      <trkpt lat="43.97462" lon="3.73078">
        <ele>659</ele>
        <time>2019-01-12T14:06:14Z</time>
      </trkpt>
      <trkpt lat="43.97463" lon="3.73082">
        <ele>659</ele>
        <time>2019-01-12T14:06:14Z</time>
      </trkpt>
      <trkpt lat="43.97464" lon="3.73086">
        <ele>659</ele>
        <time>2019-01-12T14:06:14Z</time>
      </trkpt>
      <trkpt lat="43.97463" lon="3.73089">
        <ele>659</ele>
        <time>2019-01-12T14:06:14Z</time>
      </trkpt>
      <trkpt lat="43.97463" lon="3.73091">
        <ele>659</ele>
        <time>2019-01-12T14:07:05Z</time>
      </trkpt>
      <trkpt lat="43.97463" lon="3.73094">
        <ele>659</ele>
        <time>2019-01-12T14:07:06Z</time>
      </trkpt>
      <trkpt lat="43.97464" lon="3.73096">
        <ele>659</ele>
        <time>2019-01-12T14:07:06Z</time>
      </trkpt>
      <trkpt lat="43.97464" lon="3.73098">
        <ele>659</ele>
        <time>2019-01-12T14:07:06Z</time>
      </trkpt>
      <trkpt lat="43.97466" lon="3.73103">
        <ele>659</ele>
        <time>2019-01-12T14:07:06Z</time>
      </trkpt>
      <trkpt lat="43.97465" lon="3.73106">
        <ele>659</ele>
        <time>2019-01-12T14:07:37Z</time>
      </trkpt>
      <trkpt lat="43.97466" lon="3.73109">
        <ele>659</ele>
        <time>2019-01-12T14:07:38Z</time>
      </trkpt>
      <trkpt lat="43.97466" lon="3.73111">
        <ele>659</ele>
        <time>2019-01-12T14:07:38Z</time>
      </trkpt>
      <trkpt lat="43.97465" lon="3.73116">
        <ele>659</ele>
        <time>2019-01-12T14:07:38Z</time>
      </trkpt>
      <trkpt lat="43.97465" lon="3.73119">
        <ele>659</ele>
        <time>2019-01-12T14:07:38Z</time>
      </trkpt>
      <trkpt lat="43.97466" lon="3.7312">
        <ele>659</ele>
        <time>2019-01-12T14:20:45Z</time>
      </trkpt>
      <trkpt lat="43.97467" lon="3.73119">
        <ele>659</ele>
        <time>2019-01-12T14:20:46Z</time>
      </trkpt>
      <trkpt lat="43.97469" lon="3.73116">
        <ele>659</ele>
        <time>2019-01-12T14:20:46Z</time>
      </trkpt>
      <trkpt lat="43.9747" lon="3.73112">
        <ele>659</ele>
        <time>2019-01-12T14:20:46Z</time>
      </trkpt>
      <trkpt lat="43.9747" lon="3.73107">
        <ele>659</ele>
        <time>2019-01-12T14:20:46Z</time>
      </trkpt>
      <trkpt lat="43.97471" lon="3.73102">
        <ele>659</ele>
        <time>2019-01-12T14:21:10Z</time>
      </trkpt>
      <trkpt lat="43.97471" lon="3.73097">
        <ele>659</ele>
        <time>2019-01-12T14:21:10Z</time>
      </trkpt>
      <trkpt lat="43.9747" lon="3.73096">
        <ele>659</ele>
        <time>2019-01-12T14:21:10Z</time>
      </trkpt>
      <trkpt lat="43.9747" lon="3.73091">
        <ele>659</ele>
        <time>2019-01-12T14:21:10Z</time>
      </trkpt>
      <trkpt lat="43.97469" lon="3.73087">
        <ele>659</ele>
        <time>2019-01-12T14:21:10Z</time>
      </trkpt>
      <trkpt lat="43.97468" lon="3.73083">
        <ele>659</ele>
        <time>2019-01-12T14:21:29Z</time>
      </trkpt>
      <trkpt lat="43.97466" lon="3.73082">
        <ele>659</ele>
        <time>2019-01-12T14:21:30Z</time>
      </trkpt>
      <trkpt lat="43.97464" lon="3.7308">
        <ele>659</ele>
        <time>2019-01-12T14:21:30Z</time>
      </trkpt>
      <trkpt lat="43.97463" lon="3.73077">
        <ele>659</ele>
        <time>2019-01-12T14:21:30Z</time>
      </trkpt>
      <trkpt lat="43.97461" lon="3.73073">
        <ele>659</ele>
        <time>2019-01-12T14:21:30Z</time>
      </trkpt>
      <trkpt lat="43.97459" lon="3.7306">
        <ele>659</ele>
        <time>2019-01-12T14:21:53Z</time>
      </trkpt>
      <trkpt lat="43.97457" lon="3.73058">
        <ele>689</ele>
        <time>2019-01-12T14:21:54Z</time>
      </trkpt>
      <trkpt lat="43.97457" lon="3.73056">
        <ele>689</ele>
        <time>2019-01-12T14:21:54Z</time>
      </trkpt>
      <trkpt lat="43.97457" lon="3.73055">
        <ele>689</ele>
        <time>2019-01-12T14:21:54Z</time>
      </trkpt>
      <trkpt lat="43.97456" lon="3.73051">
        <ele>689</ele>
        <time>2019-01-12T14:21:54Z</time>
      </trkpt>
      <trkpt lat="43.97455" lon="3.73047">
        <ele>689</ele>
        <time>2019-01-12T14:22:09Z</time>
      </trkpt>
      <trkpt lat="43.97455" lon="3.73041">
        <ele>677</ele>
        <time>2019-01-12T14:22:10Z</time>
      </trkpt>
      <trkpt lat="43.97456" lon="3.73038">
        <ele>677</ele>
        <time>2019-01-12T14:22:10Z</time>
      </trkpt>
      <trkpt lat="43.97457" lon="3.73034">
        <ele>677</ele>
        <time>2019-01-12T14:22:10Z</time>
      </trkpt>
      <trkpt lat="43.97457" lon="3.73031">
        <ele>677</ele>
        <time>2019-01-12T14:22:53Z</time>
      </trkpt>
      <trkpt lat="43.97456" lon="3.73028">
        <ele>677</ele>
        <time>2019-01-12T14:22:54Z</time>
      </trkpt>
      <trkpt lat="43.97455" lon="3.73027">
        <ele>677</ele>
        <time>2019-01-12T14:22:54Z</time>
      </trkpt>
      <trkpt lat="43.97454" lon="3.73023">
        <ele>677</ele>
        <time>2019-01-12T14:22:54Z</time>
      </trkpt>
      <trkpt lat="43.97451" lon="3.73016">
        <ele>677</ele>
        <time>2019-01-12T14:22:54Z</time>
      </trkpt>
      <trkpt lat="43.9745" lon="3.73008">
        <ele>677</ele>
        <time>2019-01-12T14:23:13Z</time>
      </trkpt>
      <trkpt lat="43.97452" lon="3.73001">
        <ele>677</ele>
        <time>2019-01-12T14:23:14Z</time>
      </trkpt>
      <trkpt lat="43.97452" lon="3.72997">
        <ele>677</ele>
        <time>2019-01-12T14:23:14Z</time>
      </trkpt>
      <trkpt lat="43.97452" lon="3.72996">
        <ele>677</ele>
        <time>2019-01-12T14:23:14Z</time>
      </trkpt>
      <trkpt lat="43.97454" lon="3.7299">
        <ele>677</ele>
        <time>2019-01-12T14:23:14Z</time>
      </trkpt>
      <trkpt lat="43.97454" lon="3.72987">
        <ele>677</ele>
        <time>2019-01-12T14:23:37Z</time>
      </trkpt>
      <trkpt lat="43.97455" lon="3.72983">
        <ele>677</ele>
        <time>2019-01-12T14:23:38Z</time>
      </trkpt>
      <trkpt lat="43.97455" lon="3.72978">
        <ele>677</ele>
        <time>2019-01-12T14:23:38Z</time>
      </trkpt>
      <trkpt lat="43.97456" lon="3.72974">
        <ele>677</ele>
        <time>2019-01-12T14:23:38Z</time>
      </trkpt>
      <trkpt lat="43.97456" lon="3.7297">
        <ele>677</ele>
        <time>2019-01-12T14:23:53Z</time>
      </trkpt>
      <trkpt lat="43.97456" lon="3.72962">
        <ele>677</ele>
        <time>2019-01-12T14:23:54Z</time>
      </trkpt>
      <trkpt lat="43.97457" lon="3.72957">
        <ele>665</ele>
        <time>2019-01-12T14:23:54Z</time>
      </trkpt>
      <trkpt lat="43.97458" lon="3.72954">
        <ele>665</ele>
        <time>2019-01-12T14:23:54Z</time>
      </trkpt>
      <trkpt lat="43.9746" lon="3.72949">
        <ele>650</ele>
        <time>2019-01-12T14:24:17Z</time>
      </trkpt>
      <trkpt lat="43.97461" lon="3.72945">
        <ele>650</ele>
        <time>2019-01-12T14:24:18Z</time>
      </trkpt>
      <trkpt lat="43.97461" lon="3.7294">
        <ele>650</ele>
        <time>2019-01-12T14:24:18Z</time>
      </trkpt>
      <trkpt lat="43.97461" lon="3.7294">
        <ele>650</ele>
        <time>2019-01-12T14:24:18Z</time>
      </trkpt>
      <trkpt lat="43.97462" lon="3.72936">
        <ele>650</ele>
        <time>2019-01-12T14:24:18Z</time>
      </trkpt>
      <trkpt lat="43.97464" lon="3.72931">
        <ele>650</ele>
        <time>2019-01-12T14:24:33Z</time>
      </trkpt>
      <trkpt lat="43.97463" lon="3.72926">
        <ele>650</ele>
        <time>2019-01-12T14:24:34Z</time>
      </trkpt>
      <trkpt lat="43.97464" lon="3.7292">
        <ele>650</ele>
        <time>2019-01-12T14:24:34Z</time>
      </trkpt>
      <trkpt lat="43.97464" lon="3.72916">
        <ele>650</ele>
        <time>2019-01-12T14:24:34Z</time>
      </trkpt>
      <trkpt lat="43.97465" lon="3.72912">
        <ele>650</ele>
        <time>2019-01-12T14:24:53Z</time>
      </trkpt>
      <trkpt lat="43.97467" lon="3.72909">
        <ele>650</ele>
        <time>2019-01-12T14:24:54Z</time>
      </trkpt>
      <trkpt lat="43.97468" lon="3.72904">
        <ele>650</ele>
        <time>2019-01-12T14:24:54Z</time>
      </trkpt>
      <trkpt lat="43.97468" lon="3.72902">
        <ele>650</ele>
        <time>2019-01-12T14:24:54Z</time>
      </trkpt>
      <trkpt lat="43.97468" lon="3.72898">
        <ele>650</ele>
        <time>2019-01-12T14:24:54Z</time>
      </trkpt>
      <trkpt lat="43.97467" lon="3.72896">
        <ele>650</ele>
        <time>2019-01-12T14:25:25Z</time>
      </trkpt>
      <trkpt lat="43.97467" lon="3.72895">
        <ele>650</ele>
        <time>2019-01-12T14:25:26Z</time>
      </trkpt>
      <trkpt lat="43.97466" lon="3.72892">
        <ele>650</ele>
        <time>2019-01-12T14:25:26Z</time>
      </trkpt>
      <trkpt lat="43.97467" lon="3.72885">
        <ele>650</ele>
        <time>2019-01-12T14:25:26Z</time>
      </trkpt>
      <trkpt lat="43.97466" lon="3.72881">
        <ele>650</ele>
        <time>2019-01-12T14:25:26Z</time>
      </trkpt>
      <trkpt lat="43.97464" lon="3.72878">
        <ele>650</ele>
        <time>2019-01-12T14:25:45Z</time>
      </trkpt>
      <trkpt lat="43.97463" lon="3.72873">
        <ele>655</ele>
        <time>2019-01-12T14:25:46Z</time>
      </trkpt>
      <trkpt lat="43.97464" lon="3.72868">
        <ele>655</ele>
        <time>2019-01-12T14:25:46Z</time>
      </trkpt>
      <trkpt lat="43.97466" lon="3.72866">
        <ele>655</ele>
        <time>2019-01-12T14:25:46Z</time>
      </trkpt>
      <trkpt lat="43.97467" lon="3.7286">
        <ele>655</ele>
        <time>2019-01-12T14:25:46Z</time>
      </trkpt>
      <trkpt lat="43.97467" lon="3.72855">
        <ele>655</ele>
        <time>2019-01-12T14:26:01Z</time>
      </trkpt>
      <trkpt lat="43.97463" lon="3.72854">
        <ele>655</ele>
        <time>2019-01-12T14:26:02Z</time>
      </trkpt>
      <trkpt lat="43.97459" lon="3.72857">
        <ele>655</ele>
        <time>2019-01-12T14:26:02Z</time>
      </trkpt>
      <trkpt lat="43.97456" lon="3.72858">
        <ele>651</ele>
        <time>2019-01-12T14:26:02Z</time>
      </trkpt>
      <trkpt lat="43.97453" lon="3.72858">
        <ele>651</ele>
        <time>2019-01-12T14:26:25Z</time>
      </trkpt>
      <trkpt lat="43.97451" lon="3.72858">
        <ele>651</ele>
        <time>2019-01-12T14:26:26Z</time>
      </trkpt>
      <trkpt lat="43.97449" lon="3.72861">
        <ele>651</ele>
        <time>2019-01-12T14:26:26Z</time>
      </trkpt>
      <trkpt lat="43.97445" lon="3.72864">
        <ele>651</ele>
        <time>2019-01-12T14:26:26Z</time>
      </trkpt>
      <trkpt lat="43.97444" lon="3.72867">
        <ele>651</ele>
        <time>2019-01-12T14:26:26Z</time>
      </trkpt>
      <trkpt lat="43.97444" lon="3.72867">
        <ele>651</ele>
        <time>2019-01-12T14:26:45Z</time>
      </trkpt>
      <trkpt lat="43.9744" lon="3.72868">
        <ele>651</ele>
        <time>2019-01-12T14:26:46Z</time>
      </trkpt>
      <trkpt lat="43.97437" lon="3.72867">
        <ele>651</ele>
        <time>2019-01-12T14:26:46Z</time>
      </trkpt>
      <trkpt lat="43.97436" lon="3.72866">
        <ele>651</ele>
        <time>2019-01-12T14:26:46Z</time>
      </trkpt>
      <trkpt lat="43.97435" lon="3.72866">
        <ele>651</ele>
        <time>2019-01-12T14:26:46Z</time>
      </trkpt>
      <trkpt lat="43.97431" lon="3.72861">
        <ele>651</ele>
        <time>2019-01-12T14:27:09Z</time>
      </trkpt>
      <trkpt lat="43.9743" lon="3.72857">
        <ele>651</ele>
        <time>2019-01-12T14:27:10Z</time>
      </trkpt>
      <trkpt lat="43.97429" lon="3.72855">
        <ele>651</ele>
        <time>2019-01-12T14:27:10Z</time>
      </trkpt>
      <trkpt lat="43.97429" lon="3.72853">
        <ele>651</ele>
        <time>2019-01-12T14:27:10Z</time>
      </trkpt>
      <trkpt lat="43.97426" lon="3.72852">
        <ele>651</ele>
        <time>2019-01-12T14:27:10Z</time>
      </trkpt>
      <trkpt lat="43.9742" lon="3.72851">
        <ele>651</ele>
        <time>2019-01-12T14:27:53Z</time>
      </trkpt>
      <trkpt lat="43.97419" lon="3.72852">
        <ele>651</ele>
        <time>2019-01-12T14:27:54Z</time>
      </trkpt>
      <trkpt lat="43.97417" lon="3.72852">
        <ele>651</ele>
        <time>2019-01-12T14:27:54Z</time>
      </trkpt>
      <trkpt lat="43.97415" lon="3.72853">
        <ele>651</ele>
        <time>2019-01-12T14:27:54Z</time>
      </trkpt>
      <trkpt lat="43.97411" lon="3.7285">
        <ele>651</ele>
        <time>2019-01-12T14:27:54Z</time>
      </trkpt>
      <trkpt lat="43.97408" lon="3.72853">
        <ele>651</ele>
        <time>2019-01-12T14:28:13Z</time>
      </trkpt>
      <trkpt lat="43.97405" lon="3.72851">
        <ele>651</ele>
        <time>2019-01-12T14:28:14Z</time>
      </trkpt>
      <trkpt lat="43.97404" lon="3.7285">
        <ele>651</ele>
        <time>2019-01-12T14:28:14Z</time>
      </trkpt>
      <trkpt lat="43.97402" lon="3.72847">
        <ele>651</ele>
        <time>2019-01-12T14:28:14Z</time>
      </trkpt>
      <trkpt lat="43.97399" lon="3.72846">
        <ele>651</ele>
        <time>2019-01-12T14:28:14Z</time>
      </trkpt>
      <trkpt lat="43.97397" lon="3.72844">
        <ele>651</ele>
        <time>2019-01-12T14:28:37Z</time>
      </trkpt>
      <trkpt lat="43.97393" lon="3.72843">
        <ele>651</ele>
        <time>2019-01-12T14:28:38Z</time>
      </trkpt>
      <trkpt lat="43.9739" lon="3.72843">
        <ele>651</ele>
        <time>2019-01-12T14:28:38Z</time>
      </trkpt>
      <trkpt lat="43.97389" lon="3.72842">
        <ele>651</ele>
        <time>2019-01-12T14:28:38Z</time>
      </trkpt>
      <trkpt lat="43.97387" lon="3.72843">
        <ele>651</ele>
        <time>2019-01-12T14:28:38Z</time>
      </trkpt>
      <trkpt lat="43.97386" lon="3.72843">
        <ele>651</ele>
        <time>2019-01-12T14:29:01Z</time>
      </trkpt>
      <trkpt lat="43.97385" lon="3.72843">
        <ele>651</ele>
        <time>2019-01-12T14:29:02Z</time>
      </trkpt>
      <trkpt lat="43.97384" lon="3.72843">
        <ele>651</ele>
        <time>2019-01-12T14:29:02Z</time>
      </trkpt>
      <trkpt lat="43.9738" lon="3.7284">
        <ele>651</ele>
        <time>2019-01-12T14:29:02Z</time>
      </trkpt>
      <trkpt lat="43.97377" lon="3.72841">
        <ele>651</ele>
        <time>2019-01-12T14:29:02Z</time>
      </trkpt>
      <trkpt lat="43.97376" lon="3.72844">
        <ele>651</ele>
        <time>2019-01-12T14:29:17Z</time>
      </trkpt>
      <trkpt lat="43.97373" lon="3.72844">
        <ele>617</ele>
        <time>2019-01-12T14:29:18Z</time>
      </trkpt>
      <trkpt lat="43.9737" lon="3.72842">
        <ele>617</ele>
        <time>2019-01-12T14:29:18Z</time>
      </trkpt>
      <trkpt lat="43.97367" lon="3.72841">
        <ele>617</ele>
        <time>2019-01-12T14:29:18Z</time>
      </trkpt>
      <trkpt lat="43.97364" lon="3.72842">
        <ele>617</ele>
        <time>2019-01-12T14:29:53Z</time>
      </trkpt>
      <trkpt lat="43.97362" lon="3.72841">
        <ele>617</ele>
        <time>2019-01-12T14:29:54Z</time>
      </trkpt>
      <trkpt lat="43.97359" lon="3.72841">
        <ele>617</ele>
        <time>2019-01-12T14:29:54Z</time>
      </trkpt>
      <trkpt lat="43.97358" lon="3.72842">
        <ele>617</ele>
        <time>2019-01-12T14:29:54Z</time>
      </trkpt>
      <trkpt lat="43.97356" lon="3.72841">
        <ele>617</ele>
        <time>2019-01-12T14:29:54Z</time>
      </trkpt>
      <trkpt lat="43.97354" lon="3.72838">
        <ele>617</ele>
        <time>2019-01-12T14:30:41Z</time>
      </trkpt>
      <trkpt lat="43.97353" lon="3.72838">
        <ele>617</ele>
        <time>2019-01-12T14:30:42Z</time>
      </trkpt>
      <trkpt lat="43.97352" lon="3.72838">
        <ele>617</ele>
        <time>2019-01-12T14:30:42Z</time>
      </trkpt>
      <trkpt lat="43.97349" lon="3.72838">
        <ele>617</ele>
        <time>2019-01-12T14:30:42Z</time>
      </trkpt>
      <trkpt lat="43.97345" lon="3.72837">
        <ele>617</ele>
        <time>2019-01-12T14:30:42Z</time>
      </trkpt>
      <trkpt lat="43.97345" lon="3.72836">
        <ele>617</ele>
        <time>2019-01-12T14:30:57Z</time>
      </trkpt>
      <trkpt lat="43.97341" lon="3.72835">
        <ele>617</ele>
        <time>2019-01-12T14:30:58Z</time>
      </trkpt>
      <trkpt lat="43.97338" lon="3.72833">
        <ele>617</ele>
        <time>2019-01-12T14:30:58Z</time>
      </trkpt>
      <trkpt lat="43.97335" lon="3.72831">
        <ele>617</ele>
        <time>2019-01-12T14:30:58Z</time>
      </trkpt>
      <trkpt lat="43.97332" lon="3.72832">
        <ele>617</ele>
        <time>2019-01-12T14:31:26Z</time>
      </trkpt>
      <trkpt lat="43.9733" lon="3.72833">
        <ele>617</ele>
        <time>2019-01-12T14:31:26Z</time>
      </trkpt>
      <trkpt lat="43.9733" lon="3.72835">
        <ele>617</ele>
        <time>2019-01-12T14:31:26Z</time>
      </trkpt>
      <trkpt lat="43.97329" lon="3.7284">
        <ele>617</ele>
        <time>2019-01-12T14:31:26Z</time>
      </trkpt>
      <trkpt lat="43.97328" lon="3.72842">
        <ele>617</ele>
        <time>2019-01-12T14:31:26Z</time>
      </trkpt>
      <trkpt lat="43.97325" lon="3.72842">
        <ele>617</ele>
        <time>2019-01-12T14:32:29Z</time>
      </trkpt>
      <trkpt lat="43.97323" lon="3.72843">
        <ele>617</ele>
        <time>2019-01-12T14:32:30Z</time>
      </trkpt>
      <trkpt lat="43.97319" lon="3.72844">
        <ele>617</ele>
        <time>2019-01-12T14:32:30Z</time>
      </trkpt>
      <trkpt lat="43.97319" lon="3.72844">
        <ele>617</ele>
        <time>2019-01-12T14:32:30Z</time>
      </trkpt>
      <trkpt lat="43.97315" lon="3.72843">
        <ele>617</ele>
        <time>2019-01-12T14:32:30Z</time>
      </trkpt>
      <trkpt lat="43.97313" lon="3.72841">
        <ele>617</ele>
        <time>2019-01-12T14:33:01Z</time>
      </trkpt>
      <trkpt lat="43.97313" lon="3.7284">
        <ele>617</ele>
        <time>2019-01-12T14:33:02Z</time>
      </trkpt>
      <trkpt lat="43.97309" lon="3.72838">
        <ele>617</ele>
        <time>2019-01-12T14:33:02Z</time>
      </trkpt>
      <trkpt lat="43.97308" lon="3.72838">
        <ele>617</ele>
        <time>2019-01-12T14:33:02Z</time>
      </trkpt>
      <trkpt lat="43.973" lon="3.72836">
        <ele>617</ele>
        <time>2019-01-12T14:33:02Z</time>
      </trkpt>
      <trkpt lat="43.97294" lon="3.72831">
        <ele>617</ele>
        <time>2019-01-12T14:33:17Z</time>
      </trkpt>
      <trkpt lat="43.97288" lon="3.72829">
        <ele>578</ele>
        <time>2019-01-12T14:33:18Z</time>
      </trkpt>
      <trkpt lat="43.97283" lon="3.72823">
        <ele>578</ele>
        <time>2019-01-12T14:33:18Z</time>
      </trkpt>
      <trkpt lat="43.97281" lon="3.72819">
        <ele>578</ele>
        <time>2019-01-12T14:33:18Z</time>
      </trkpt>
      <trkpt lat="43.97279" lon="3.72815">
        <ele>578</ele>
        <time>2019-01-12T14:33:37Z</time>
      </trkpt>
      <trkpt lat="43.97278" lon="3.72812">
        <ele>578</ele>
        <time>2019-01-12T14:33:38Z</time>
      </trkpt>
      <trkpt lat="43.97277" lon="3.7281">
        <ele>578</ele>
        <time>2019-01-12T14:33:38Z</time>
      </trkpt>
      <trkpt lat="43.97275" lon="3.72808">
        <ele>578</ele>
        <time>2019-01-12T14:33:38Z</time>
      </trkpt>
      <trkpt lat="43.97273" lon="3.72805">
        <ele>578</ele>
        <time>2019-01-12T14:33:38Z</time>
      </trkpt>
      <trkpt lat="43.97271" lon="3.72803">
        <ele>578</ele>
        <time>2019-01-12T14:34:01Z</time>
      </trkpt>
      <trkpt lat="43.9727" lon="3.728">
        <ele>578</ele>
        <time>2019-01-12T14:34:02Z</time>
      </trkpt>
      <trkpt lat="43.97269" lon="3.72799">
        <ele>578</ele>
        <time>2019-01-12T14:34:02Z</time>
      </trkpt>
      <trkpt lat="43.97265" lon="3.72799">
        <ele>578</ele>
        <time>2019-01-12T14:34:02Z</time>
      </trkpt>
      <trkpt lat="43.97263" lon="3.72797">
        <ele>578</ele>
        <time>2019-01-12T14:34:02Z</time>
      </trkpt>
      <trkpt lat="43.97261" lon="3.72797">
        <ele>578</ele>
        <time>2019-01-12T14:34:17Z</time>
      </trkpt>
      <trkpt lat="43.97258" lon="3.72798">
        <ele>578</ele>
        <time>2019-01-12T14:34:18Z</time>
      </trkpt>
      <trkpt lat="43.97253" lon="3.72795">
        <ele>578</ele>
        <time>2019-01-12T14:34:18Z</time>
      </trkpt>
      <trkpt lat="43.9725" lon="3.72794">
        <ele>578</ele>
        <time>2019-01-12T14:34:18Z</time>
      </trkpt>
      <trkpt lat="43.97248" lon="3.7279">
        <ele>569</ele>
        <time>2019-01-12T14:34:33Z</time>
      </trkpt>
      <trkpt lat="43.97246" lon="3.72786">
        <ele>569</ele>
        <time>2019-01-12T14:34:34Z</time>
      </trkpt>
      <trkpt lat="43.97244" lon="3.72782">
        <ele>569</ele>
        <time>2019-01-12T14:34:34Z</time>
      </trkpt>
      <trkpt lat="43.97242" lon="3.72778">
        <ele>569</ele>
        <time>2019-01-12T14:34:34Z</time>
      </trkpt>
      <trkpt lat="43.9724" lon="3.72775">
        <ele>569</ele>
        <time>2019-01-12T14:34:49Z</time>
      </trkpt>
      <trkpt lat="43.97239" lon="3.7277">
        <ele>569</ele>
        <time>2019-01-12T14:34:50Z</time>
      </trkpt>
      <trkpt lat="43.97238" lon="3.72766">
        <ele>569</ele>
        <time>2019-01-12T14:34:50Z</time>
      </trkpt>
      <trkpt lat="43.97237" lon="3.72763">
        <ele>569</ele>
        <time>2019-01-12T14:34:50Z</time>
      </trkpt>
      <trkpt lat="43.97234" lon="3.72759">
        <ele>569</ele>
        <time>2019-01-12T14:35:13Z</time>
      </trkpt>
      <trkpt lat="43.97232" lon="3.72755">
        <ele>569</ele>
        <time>2019-01-12T14:35:14Z</time>
      </trkpt>
      <trkpt lat="43.97234" lon="3.72749">
        <ele>569</ele>
        <time>2019-01-12T14:35:14Z</time>
      </trkpt>
      <trkpt lat="43.97235" lon="3.72748">
        <ele>569</ele>
        <time>2019-01-12T14:35:14Z</time>
      </trkpt>
      <trkpt lat="43.97235" lon="3.72745">
        <ele>569</ele>
        <time>2019-01-12T14:35:14Z</time>
      </trkpt>
      <trkpt lat="43.97235" lon="3.72738">
        <ele>569</ele>
        <time>2019-01-12T14:35:41Z</time>
      </trkpt>
      <trkpt lat="43.97236" lon="3.72735">
        <ele>569</ele>
        <time>2019-01-12T14:35:42Z</time>
      </trkpt>
      <trkpt lat="43.97236" lon="3.72734">
        <ele>569</ele>
        <time>2019-01-12T14:35:42Z</time>
      </trkpt>
      <trkpt lat="43.97237" lon="3.72729">
        <ele>569</ele>
        <time>2019-01-12T14:35:42Z</time>
      </trkpt>
      <trkpt lat="43.97237" lon="3.72724">
        <ele>569</ele>
        <time>2019-01-12T14:35:42Z</time>
      </trkpt>
      <trkpt lat="43.97236" lon="3.72722">
        <ele>569</ele>
        <time>2019-01-12T14:36:01Z</time>
      </trkpt>
      <trkpt lat="43.97235" lon="3.72721">
        <ele>569</ele>
        <time>2019-01-12T14:36:02Z</time>
      </trkpt>
      <trkpt lat="43.97235" lon="3.72716">
        <ele>569</ele>
        <time>2019-01-12T14:36:02Z</time>
      </trkpt>
      <trkpt lat="43.97232" lon="3.72715">
        <ele>569</ele>
        <time>2019-01-12T14:36:02Z</time>
      </trkpt>
      <trkpt lat="43.9723" lon="3.72711">
        <ele>569</ele>
        <time>2019-01-12T14:36:02Z</time>
      </trkpt>
      <trkpt lat="43.97229" lon="3.72707">
        <ele>547</ele>
        <time>2019-01-12T14:36:21Z</time>
      </trkpt>
      <trkpt lat="43.97229" lon="3.72703">
        <ele>547</ele>
        <time>2019-01-12T14:36:22Z</time>
      </trkpt>
      <trkpt lat="43.97226" lon="3.727">
        <ele>547</ele>
        <time>2019-01-12T14:36:22Z</time>
      </trkpt>
      <trkpt lat="43.97223" lon="3.72698">
        <ele>547</ele>
        <time>2019-01-12T14:36:22Z</time>
      </trkpt>
      <trkpt lat="43.9722" lon="3.72695">
        <ele>547</ele>
        <time>2019-01-12T14:36:22Z</time>
      </trkpt>
      <trkpt lat="43.9722" lon="3.72695">
        <ele>547</ele>
        <time>2019-01-12T14:36:37Z</time>
      </trkpt>
      <trkpt lat="43.97215" lon="3.72694">
        <ele>547</ele>
        <time>2019-01-12T14:36:38Z</time>
      </trkpt>
      <trkpt lat="43.97211" lon="3.72691">
        <ele>547</ele>
        <time>2019-01-12T14:36:38Z</time>
      </trkpt>
      <trkpt lat="43.97208" lon="3.7269">
        <ele>537</ele>
        <time>2019-01-12T14:36:38Z</time>
      </trkpt>
      <trkpt lat="43.97206" lon="3.7269">
        <ele>537</ele>
        <time>2019-01-12T14:36:53Z</time>
      </trkpt>
      <trkpt lat="43.97202" lon="3.72688">
        <ele>537</ele>
        <time>2019-01-12T14:36:54Z</time>
      </trkpt>
      <trkpt lat="43.97201" lon="3.72684">
        <ele>537</ele>
        <time>2019-01-12T14:36:54Z</time>
      </trkpt>
      <trkpt lat="43.97198" lon="3.7268">
        <ele>537</ele>
        <time>2019-01-12T14:36:54Z</time>
      </trkpt>
      <trkpt lat="43.97196" lon="3.72672">
        <ele>537</ele>
        <time>2019-01-12T14:37:33Z</time>
      </trkpt>
      <trkpt lat="43.97195" lon="3.72672">
        <ele>537</ele>
        <time>2019-01-12T14:37:34Z</time>
      </trkpt>
      <trkpt lat="43.97194" lon="3.72671">
        <ele>537</ele>
        <time>2019-01-12T14:37:34Z</time>
      </trkpt>
      <trkpt lat="43.97191" lon="3.72669">
        <ele>537</ele>
        <time>2019-01-12T14:37:34Z</time>
      </trkpt>
      <trkpt lat="43.97185" lon="3.72663">
        <ele>537</ele>
        <time>2019-01-12T14:37:34Z</time>
      </trkpt>
      <trkpt lat="43.97178" lon="3.72656">
        <ele>537</ele>
        <time>2019-01-12T14:38:05Z</time>
      </trkpt>
      <trkpt lat="43.97177" lon="3.72653">
        <ele>537</ele>
        <time>2019-01-12T14:38:06Z</time>
      </trkpt>
      <trkpt lat="43.97176" lon="3.72653">
        <ele>537</ele>
        <time>2019-01-12T14:38:06Z</time>
      </trkpt>
      <trkpt lat="43.97174" lon="3.72651">
        <ele>537</ele>
        <time>2019-01-12T14:38:06Z</time>
      </trkpt>
      <trkpt lat="43.97168" lon="3.72642">
        <ele>537</ele>
        <time>2019-01-12T14:38:06Z</time>
      </trkpt>
      <trkpt lat="43.97166" lon="3.7264">
        <ele>537</ele>
        <time>2019-01-12T14:39:01Z</time>
      </trkpt>
      <trkpt lat="43.97163" lon="3.72632">
        <ele>537</ele>
        <time>2019-01-12T14:39:02Z</time>
      </trkpt>
      <trkpt lat="43.97161" lon="3.72629">
        <ele>537</ele>
        <time>2019-01-12T14:39:02Z</time>
      </trkpt>
      <trkpt lat="43.97161" lon="3.72627">
        <ele>537</ele>
        <time>2019-01-12T14:39:02Z</time>
      </trkpt>
      <trkpt lat="43.97163" lon="3.72624">
        <ele>514</ele>
        <time>2019-01-12T14:39:53Z</time>
      </trkpt>
      <trkpt lat="43.97165" lon="3.7262">
        <ele>514</ele>
        <time>2019-01-12T14:39:54Z</time>
      </trkpt>
      <trkpt lat="43.97166" lon="3.72619">
        <ele>514</ele>
        <time>2019-01-12T14:39:54Z</time>
      </trkpt>
      <trkpt lat="43.97174" lon="3.72611">
        <ele>514</ele>
        <time>2019-01-12T14:39:54Z</time>
      </trkpt>
      <trkpt lat="43.97175" lon="3.72609">
        <ele>514</ele>
        <time>2019-01-12T14:41:05Z</time>
      </trkpt>
      <trkpt lat="43.97175" lon="3.72606">
        <ele>514</ele>
        <time>2019-01-12T14:41:06Z</time>
      </trkpt>
      <trkpt lat="43.97176" lon="3.72603">
        <ele>514</ele>
        <time>2019-01-12T14:41:06Z</time>
      </trkpt>
      <trkpt lat="43.97176" lon="3.72602">
        <ele>514</ele>
        <time>2019-01-12T14:41:06Z</time>
      </trkpt>
      <trkpt lat="43.97183" lon="3.72594">
        <ele>514</ele>
        <time>2019-01-12T14:41:06Z</time>
      </trkpt>
      <trkpt lat="43.97192" lon="3.72587">
        <ele>514</ele>
        <time>2019-01-12T14:41:41Z</time>
      </trkpt>
      <trkpt lat="43.97196" lon="3.72578">
        <ele>514</ele>
        <time>2019-01-12T14:41:42Z</time>
      </trkpt>
      <trkpt lat="43.97198" lon="3.72572">
        <ele>514</ele>
        <time>2019-01-12T14:41:42Z</time>
      </trkpt>
      <trkpt lat="43.97198" lon="3.72571">
        <ele>514</ele>
        <time>2019-01-12T14:41:42Z</time>
      </trkpt>
      <trkpt lat="43.97195" lon="3.72568">
        <ele>514</ele>
        <time>2019-01-12T14:42:09Z</time>
      </trkpt>
      <trkpt lat="43.97195" lon="3.72566">
        <ele>514</ele>
        <time>2019-01-12T14:42:10Z</time>
      </trkpt>
      <trkpt lat="43.97192" lon="3.72562">
        <ele>514</ele>
        <time>2019-01-12T14:42:10Z</time>
      </trkpt>
      <trkpt lat="43.97191" lon="3.72557">
        <ele>514</ele>
        <time>2019-01-12T14:42:10Z</time>
      </trkpt>
      <trkpt lat="43.97191" lon="3.72555">
        <ele>514</ele>
        <time>2019-01-12T14:42:42Z</time>
      </trkpt>
      <trkpt lat="43.9719" lon="3.72552">
        <ele>514</ele>
        <time>2019-01-12T14:42:42Z</time>
      </trkpt>
      <trkpt lat="43.97183" lon="3.72533">
        <ele>470</ele>
        <time>2019-01-12T14:42:42Z</time>
      </trkpt>
      <trkpt lat="43.97181" lon="3.72525">
        <ele>470</ele>
        <time>2019-01-12T14:42:42Z</time>
      </trkpt>
      <trkpt lat="43.97179" lon="3.72521">
        <ele>470</ele>
        <time>2019-01-12T14:43:25Z</time>
      </trkpt>
      <trkpt lat="43.97178" lon="3.72518">
        <ele>470</ele>
        <time>2019-01-12T14:43:26Z</time>
      </trkpt>
      <trkpt lat="43.97177" lon="3.72515">
        <ele>470</ele>
        <time>2019-01-12T14:43:26Z</time>
      </trkpt>
      <trkpt lat="43.97178" lon="3.72509">
        <ele>470</ele>
        <time>2019-01-12T14:43:26Z</time>
      </trkpt>
      <trkpt lat="43.9718" lon="3.72505">
        <ele>470</ele>
        <time>2019-01-12T14:43:26Z</time>
      </trkpt>
      <trkpt lat="43.9718" lon="3.72504">
        <ele>470</ele>
        <time>2019-01-12T14:44:37Z</time>
      </trkpt>
      <trkpt lat="43.97178" lon="3.72491">
        <ele>470</ele>
        <time>2019-01-12T14:44:38Z</time>
      </trkpt>
      <trkpt lat="43.97176" lon="3.72488">
        <ele>470</ele>
        <time>2019-01-12T14:44:38Z</time>
      </trkpt>
      <trkpt lat="43.97173" lon="3.72478">
        <ele>470</ele>
        <time>2019-01-12T14:44:38Z</time>
      </trkpt>
      <trkpt lat="43.97171" lon="3.72471">
        <ele>470</ele>
        <time>2019-01-12T14:47:13Z</time>
      </trkpt>
      <trkpt lat="43.97173" lon="3.72469">
        <ele>470</ele>
        <time>2019-01-12T14:47:14Z</time>
      </trkpt>
      <trkpt lat="43.97174" lon="3.72466">
        <ele>470</ele>
        <time>2019-01-12T14:47:14Z</time>
      </trkpt>
      <trkpt lat="43.97177" lon="3.72463">
        <ele>470</ele>
        <time>2019-01-12T14:47:14Z</time>
      </trkpt>
      <trkpt lat="43.97181" lon="3.72456">
        <ele>417</ele>
        <time>2019-01-12T14:47:14Z</time>
      </trkpt>
      <trkpt lat="43.97184" lon="3.72453">
        <ele>417</ele>
        <time>2019-01-12T14:47:41Z</time>
      </trkpt>
      <trkpt lat="43.97187" lon="3.72447">
        <ele>417</ele>
        <time>2019-01-12T14:47:42Z</time>
      </trkpt>
      <trkpt lat="43.97192" lon="3.72433">
        <ele>417</ele>
        <time>2019-01-12T14:47:42Z</time>
      </trkpt>
      <trkpt lat="43.97199" lon="3.72424">
        <ele>417</ele>
        <time>2019-01-12T14:47:42Z</time>
      </trkpt>
      <trkpt lat="43.97205" lon="3.72416">
        <ele>417</ele>
        <time>2019-01-12T14:48:41Z</time>
      </trkpt>
      <trkpt lat="43.97202" lon="3.72414">
        <ele>417</ele>
        <time>2019-01-12T14:48:42Z</time>
      </trkpt>
      <trkpt lat="43.97199" lon="3.72413">
        <ele>417</ele>
        <time>2019-01-12T14:48:42Z</time>
      </trkpt>
      <trkpt lat="43.97196" lon="3.72411">
        <ele>417</ele>
        <time>2019-01-12T14:48:42Z</time>
      </trkpt>
      <trkpt lat="43.97196" lon="3.72409">
        <ele>417</ele>
        <time>2019-01-12T14:48:42Z</time>
      </trkpt>
      <trkpt lat="43.97193" lon="3.72408">
        <ele>417</ele>
        <time>2019-01-12T14:50:42Z</time>
      </trkpt>
      <trkpt lat="43.97191" lon="3.72409">
        <ele>417</ele>
        <time>2019-01-12T14:50:42Z</time>
      </trkpt>
      <trkpt lat="43.97187" lon="3.72407">
        <ele>417</ele>
        <time>2019-01-12T14:50:42Z</time>
      </trkpt>
      <trkpt lat="43.97181" lon="3.72404">
        <ele>417</ele>
        <time>2019-01-12T14:50:42Z</time>
      </trkpt>
      <trkpt lat="43.97173" lon="3.72396">
        <ele>417</ele>
        <time>2019-01-12T14:51:57Z</time>
      </trkpt>
      <trkpt lat="43.97176" lon="3.72397">
        <ele>417</ele>
        <time>2019-01-12T14:51:58Z</time>
      </trkpt>
      <trkpt lat="43.97177" lon="3.72395">
        <ele>417</ele>
        <time>2019-01-12T14:51:58Z</time>
      </trkpt>
      <trkpt lat="43.97181" lon="3.72386">
        <ele>417</ele>
        <time>2019-01-12T14:51:58Z</time>
      </trkpt>
      <trkpt lat="43.97184" lon="3.72377">
        <ele>417</ele>
        <time>2019-01-12T14:51:58Z</time>
      </trkpt>
      <trkpt lat="43.97188" lon="3.72367">
        <ele>365</ele>
        <time>2019-01-12T14:52:49Z</time>
      </trkpt>
      <trkpt lat="43.97189" lon="3.72363">
        <ele>365</ele>
        <time>2019-01-12T14:52:50Z</time>
      </trkpt>
      <trkpt lat="43.97196" lon="3.72355">
        <ele>365</ele>
        <time>2019-01-12T14:52:50Z</time>
      </trkpt>
      <trkpt lat="43.97199" lon="3.72354">
        <ele>365</ele>
        <time>2019-01-12T14:52:50Z</time>
      </trkpt>
      <trkpt lat="43.97203" lon="3.72352">
        <ele>365</ele>
        <time>2019-01-12T14:53:37Z</time>
      </trkpt>
      <trkpt lat="43.97198" lon="3.72345">
        <ele>365</ele>
        <time>2019-01-12T14:53:38Z</time>
      </trkpt>
      <trkpt lat="43.97194" lon="3.72341">
        <ele>365</ele>
        <time>2019-01-12T14:53:38Z</time>
      </trkpt>
      <trkpt lat="43.97192" lon="3.72342">
        <ele>365</ele>
        <time>2019-01-12T14:53:38Z</time>
      </trkpt>
      <trkpt lat="43.97192" lon="3.72327">
        <ele>365</ele>
        <time>2019-01-12T14:55:33Z</time>
      </trkpt>
      <trkpt lat="43.97192" lon="3.72325">
        <ele>365</ele>
        <time>2019-01-12T14:55:34Z</time>
      </trkpt>
      <trkpt lat="43.97194" lon="3.72319">
        <ele>365</ele>
        <time>2019-01-12T14:55:34Z</time>
      </trkpt>
      <trkpt lat="43.97198" lon="3.72314">
        <ele>365</ele>
        <time>2019-01-12T14:55:34Z</time>
      </trkpt>
      <trkpt lat="43.97206" lon="3.72307">
        <ele>365</ele>
        <time>2019-01-12T14:56:17Z</time>
      </trkpt>
      <trkpt lat="43.97208" lon="3.72305">
        <ele>365</ele>
        <time>2019-01-12T14:56:18Z</time>
      </trkpt>
      <trkpt lat="43.97208" lon="3.72304">
        <ele>365</ele>
        <time>2019-01-12T14:56:18Z</time>
      </trkpt>
      <trkpt lat="43.97208" lon="3.72303">
        <ele>365</ele>
        <time>2019-01-12T14:56:18Z</time>
      </trkpt>
      <trkpt lat="43.97211" lon="3.72298">
        <ele>364</ele>
        <time>2019-01-12T14:56:18Z</time>
      </trkpt>
      <trkpt lat="43.97213" lon="3.72285">
        <ele>324</ele>
        <time>2019-01-12T14:57:05Z</time>
      </trkpt>
      <trkpt lat="43.97212" lon="3.72277">
        <ele>324</ele>
        <time>2019-01-12T14:57:06Z</time>
      </trkpt>
      <trkpt lat="43.97212" lon="3.72274">
        <ele>324</ele>
        <time>2019-01-12T14:57:06Z</time>
      </trkpt>
      <trkpt lat="43.9721" lon="3.72262">
        <ele>324</ele>
        <time>2019-01-12T14:57:06Z</time>
      </trkpt>
      <trkpt lat="43.9721" lon="3.72255">
        <ele>324</ele>
        <time>2019-01-12T14:57:29Z</time>
      </trkpt>
      <trkpt lat="43.9721" lon="3.72251">
        <ele>324</ele>
        <time>2019-01-12T14:57:30Z</time>
      </trkpt>
      <trkpt lat="43.97213" lon="3.72251">
        <ele>324</ele>
        <time>2019-01-12T14:57:30Z</time>
      </trkpt>
      <trkpt lat="43.97217" lon="3.7225">
        <ele>324</ele>
        <time>2019-01-12T14:57:30Z</time>
      </trkpt>
      <trkpt lat="43.9722" lon="3.72249">
        <ele>324</ele>
        <time>2019-01-12T14:57:30Z</time>
      </trkpt>
      <trkpt lat="43.97223" lon="3.72249">
        <ele>324</ele>
        <time>2019-01-12T14:58:41Z</time>
      </trkpt>
      <trkpt lat="43.97224" lon="3.72249">
        <ele>324</ele>
        <time>2019-01-12T14:58:42Z</time>
      </trkpt>
      <trkpt lat="43.97226" lon="3.72249">
        <ele>324</ele>
        <time>2019-01-12T14:58:42Z</time>
      </trkpt>
      <trkpt lat="43.97229" lon="3.7225">
        <ele>324</ele>
        <time>2019-01-12T14:58:42Z</time>
      </trkpt>
      <trkpt lat="43.97234" lon="3.72252">
        <ele>324</ele>
        <time>2019-01-12T14:58:42Z</time>
      </trkpt>
      <trkpt lat="43.97239" lon="3.72256">
        <ele>324</ele>
        <time>2019-01-12T14:59:45Z</time>
      </trkpt>
      <trkpt lat="43.97247" lon="3.72261">
        <ele>324</ele>
        <time>2019-01-12T14:59:46Z</time>
      </trkpt>
      <trkpt lat="43.97252" lon="3.72265">
        <ele>324</ele>
        <time>2019-01-12T14:59:46Z</time>
      </trkpt>
      <trkpt lat="43.97259" lon="3.72271">
        <ele>324</ele>
        <time>2019-01-12T14:59:46Z</time>
      </trkpt>
      <trkpt lat="43.97261" lon="3.72272">
        <ele>324</ele>
        <time>2019-01-12T15:00:33Z</time>
      </trkpt>
      <trkpt lat="43.97261" lon="3.72272">
        <ele>324</ele>
        <time>2019-01-12T15:00:34Z</time>
      </trkpt>
      <trkpt lat="43.97264" lon="3.72268">
        <ele>324</ele>
        <time>2019-01-12T15:00:34Z</time>
      </trkpt>
      <trkpt lat="43.97265" lon="3.72266">
        <ele>324</ele>
        <time>2019-01-12T15:00:34Z</time>
      </trkpt>
      <trkpt lat="43.97267" lon="3.72264">
        <ele>324</ele>
        <time>2019-01-12T15:00:34Z</time>
      </trkpt>
      <trkpt lat="43.97268" lon="3.72259">
        <ele>324</ele>
        <time>2019-01-12T15:00:49Z</time>
      </trkpt>
      <trkpt lat="43.9727" lon="3.72253">
        <ele>324</ele>
        <time>2019-01-12T15:00:50Z</time>
      </trkpt>
      <trkpt lat="43.97272" lon="3.72245">
        <ele>324</ele>
        <time>2019-01-12T15:00:50Z</time>
      </trkpt>
      <trkpt lat="43.97272" lon="3.72244">
        <ele>324</ele>
        <time>2019-01-12T15:00:50Z</time>
      </trkpt>
      <trkpt lat="43.97273" lon="3.72236">
        <ele>324</ele>
        <time>2019-01-12T15:01:25Z</time>
      </trkpt>
      <trkpt lat="43.97271" lon="3.72233">
        <ele>324</ele>
        <time>2019-01-12T15:01:26Z</time>
      </trkpt>
      <trkpt lat="43.97271" lon="3.7223">
        <ele>324</ele>
        <time>2019-01-12T15:01:26Z</time>
      </trkpt>
      <trkpt lat="43.97273" lon="3.72227">
        <ele>324</ele>
        <time>2019-01-12T15:01:26Z</time>
      </trkpt>
      <trkpt lat="43.97274" lon="3.72223">
        <ele>324</ele>
        <time>2019-01-12T15:01:26Z</time>
      </trkpt>
      <trkpt lat="43.97275" lon="3.72219">
        <ele>324</ele>
        <time>2019-01-12T15:02:09Z</time>
      </trkpt>
      <trkpt lat="43.97276" lon="3.72213">
        <ele>324</ele>
        <time>2019-01-12T15:02:10Z</time>
      </trkpt>
      <trkpt lat="43.97277" lon="3.72209">
        <ele>324</ele>
        <time>2019-01-12T15:02:10Z</time>
      </trkpt>
      <trkpt lat="43.9728" lon="3.72199">
        <ele>301</ele>
        <time>2019-01-12T15:02:10Z</time>
      </trkpt>
      <trkpt lat="43.97281" lon="3.72195">
        <ele>301</ele>
        <time>2019-01-12T15:02:25Z</time>
      </trkpt>
      <trkpt lat="43.97282" lon="3.72189">
        <ele>301</ele>
        <time>2019-01-12T15:02:26Z</time>
      </trkpt>
      <trkpt lat="43.97283" lon="3.72187">
        <ele>301</ele>
        <time>2019-01-12T15:02:26Z</time>
      </trkpt>
      <trkpt lat="43.97282" lon="3.72178">
        <ele>301</ele>
        <time>2019-01-12T15:02:26Z</time>
      </trkpt>
      <trkpt lat="43.97282" lon="3.72169">
        <ele>301</ele>
        <time>2019-01-12T15:02:41Z</time>
      </trkpt>
      <trkpt lat="43.97283" lon="3.72161">
        <ele>301</ele>
        <time>2019-01-12T15:02:42Z</time>
      </trkpt>
      <trkpt lat="43.97285" lon="3.72154">
        <ele>301</ele>
        <time>2019-01-12T15:02:42Z</time>
      </trkpt>
      <trkpt lat="43.97287" lon="3.72153">
        <ele>301</ele>
        <time>2019-01-12T15:02:42Z</time>
      </trkpt>
      <trkpt lat="43.97288" lon="3.72149">
        <ele>301</ele>
        <time>2019-01-12T15:03:01Z</time>
      </trkpt>
      <trkpt lat="43.97289" lon="3.72147">
        <ele>301</ele>
        <time>2019-01-12T15:03:02Z</time>
      </trkpt>
      <trkpt lat="43.9729" lon="3.72143">
        <ele>301</ele>
        <time>2019-01-12T15:03:02Z</time>
      </trkpt>
      <trkpt lat="43.97293" lon="3.72139">
        <ele>317</ele>
        <time>2019-01-12T15:03:02Z</time>
      </trkpt>
      <trkpt lat="43.97294" lon="3.72136">
        <ele>317</ele>
        <time>2019-01-12T15:03:02Z</time>
      </trkpt>
      <trkpt lat="43.97295" lon="3.72131">
        <ele>317</ele>
        <time>2019-01-12T15:03:17Z</time>
      </trkpt>
      <trkpt lat="43.97297" lon="3.72125">
        <ele>317</ele>
        <time>2019-01-12T15:03:18Z</time>
      </trkpt>
      <trkpt lat="43.97299" lon="3.72118">
        <ele>291</ele>
        <time>2019-01-12T15:03:18Z</time>
      </trkpt>
      <trkpt lat="43.97299" lon="3.72115">
        <ele>291</ele>
        <time>2019-01-12T15:03:18Z</time>
      </trkpt>
      <trkpt lat="43.97301" lon="3.72112">
        <ele>291</ele>
        <time>2019-01-12T15:03:45Z</time>
      </trkpt>
      <trkpt lat="43.97301" lon="3.72108">
        <ele>291</ele>
        <time>2019-01-12T15:03:46Z</time>
      </trkpt>
      <trkpt lat="43.97302" lon="3.72103">
        <ele>291</ele>
        <time>2019-01-12T15:03:46Z</time>
      </trkpt>
      <trkpt lat="43.97302" lon="3.721">
        <ele>291</ele>
        <time>2019-01-12T15:03:46Z</time>
      </trkpt>
      <trkpt lat="43.97302" lon="3.72097">
        <ele>291</ele>
        <time>2019-01-12T15:03:46Z</time>
      </trkpt>
      <trkpt lat="43.97302" lon="3.72095">
        <ele>291</ele>
        <time>2019-01-12T15:04:05Z</time>
      </trkpt>
      <trkpt lat="43.97304" lon="3.72088">
        <ele>291</ele>
        <time>2019-01-12T15:04:06Z</time>
      </trkpt>
      <trkpt lat="43.97306" lon="3.72076">
        <ele>291</ele>
        <time>2019-01-12T15:04:06Z</time>
      </trkpt>
      <trkpt lat="43.97307" lon="3.72075">
        <ele>291</ele>
        <time>2019-01-12T15:04:06Z</time>
      </trkpt>
      <trkpt lat="43.9731" lon="3.72068">
        <ele>291</ele>
        <time>2019-01-12T15:04:29Z</time>
      </trkpt>
      <trkpt lat="43.97311" lon="3.72066">
        <ele>291</ele>
        <time>2019-01-12T15:04:30Z</time>
      </trkpt>
      <trkpt lat="43.97315" lon="3.72062">
        <ele>291</ele>
        <time>2019-01-12T15:04:30Z</time>
      </trkpt>
      <trkpt lat="43.97317" lon="3.7206">
        <ele>291</ele>
        <time>2019-01-12T15:04:30Z</time>
      </trkpt>
      <trkpt lat="43.97322" lon="3.7205">
        <ele>291</ele>
        <time>2019-01-12T15:04:57Z</time>
      </trkpt>
      <trkpt lat="43.9732" lon="3.72048">
        <ele>291</ele>
        <time>2019-01-12T15:04:58Z</time>
      </trkpt>
      <trkpt lat="43.97316" lon="3.72049">
        <ele>291</ele>
        <time>2019-01-12T15:04:58Z</time>
      </trkpt>
      <trkpt lat="43.97313" lon="3.72049">
        <ele>291</ele>
        <time>2019-01-12T15:04:58Z</time>
      </trkpt>
      <trkpt lat="43.97311" lon="3.72049">
        <ele>291</ele>
        <time>2019-01-12T15:04:58Z</time>
      </trkpt>
      <trkpt lat="43.97309" lon="3.72047">
        <ele>291</ele>
        <time>2019-01-12T15:05:13Z</time>
      </trkpt>
      <trkpt lat="43.9731" lon="3.72043">
        <ele>291</ele>
        <time>2019-01-12T15:05:14Z</time>
      </trkpt>
      <trkpt lat="43.97311" lon="3.72041">
        <ele>255</ele>
        <time>2019-01-12T15:05:14Z</time>
      </trkpt>
      <trkpt lat="43.97314" lon="3.72036">
        <ele>255</ele>
        <time>2019-01-12T15:05:14Z</time>
      </trkpt>
      <trkpt lat="43.97313" lon="3.72032">
        <ele>255</ele>
        <time>2019-01-12T15:05:41Z</time>
      </trkpt>
      <trkpt lat="43.97315" lon="3.72028">
        <ele>255</ele>
        <time>2019-01-12T15:05:42Z</time>
      </trkpt>
      <trkpt lat="43.97316" lon="3.72024">
        <ele>255</ele>
        <time>2019-01-12T15:05:42Z</time>
      </trkpt>
      <trkpt lat="43.97318" lon="3.72021">
        <ele>255</ele>
        <time>2019-01-12T15:05:42Z</time>
      </trkpt>
      <trkpt lat="43.97319" lon="3.7202">
        <ele>255</ele>
        <time>2019-01-12T15:05:42Z</time>
      </trkpt>
      <trkpt lat="43.97321" lon="3.72018">
        <ele>255</ele>
        <time>2019-01-12T15:05:57Z</time>
      </trkpt>
      <trkpt lat="43.97323" lon="3.72016">
        <ele>255</ele>
        <time>2019-01-12T15:05:58Z</time>
      </trkpt>
      <trkpt lat="43.97326" lon="3.72012">
        <ele>255</ele>
        <time>2019-01-12T15:05:58Z</time>
      </trkpt>
      <trkpt lat="43.9733" lon="3.72009">
        <ele>255</ele>
        <time>2019-01-12T15:05:58Z</time>
      </trkpt>
      <trkpt lat="43.97334" lon="3.72003">
        <ele>255</ele>
        <time>2019-01-12T15:06:21Z</time>
      </trkpt>
      <trkpt lat="43.97335" lon="3.71999">
        <ele>255</ele>
        <time>2019-01-12T15:06:22Z</time>
      </trkpt>
      <trkpt lat="43.97332" lon="3.71996">
        <ele>255</ele>
        <time>2019-01-12T15:06:22Z</time>
      </trkpt>
      <trkpt lat="43.97333" lon="3.71995">
        <ele>255</ele>
        <time>2019-01-12T15:06:22Z</time>
      </trkpt>
      <trkpt lat="43.97334" lon="3.71995">
        <ele>255</ele>
        <time>2019-01-12T15:06:22Z</time>
      </trkpt>
      <trkpt lat="43.97336" lon="3.71992">
        <ele>255</ele>
        <time>2019-01-12T15:06:53Z</time>
      </trkpt>
      <trkpt lat="43.97339" lon="3.7199">
        <ele>255</ele>
        <time>2019-01-12T15:06:54Z</time>
      </trkpt>
      <trkpt lat="43.9734" lon="3.71989">
        <ele>255</ele>
        <time>2019-01-12T15:06:54Z</time>
      </trkpt>
      <trkpt lat="43.97344" lon="3.71986">
        <ele>255</ele>
        <time>2019-01-12T15:06:54Z</time>
      </trkpt>
      <trkpt lat="43.97351" lon="3.71983">
        <ele>255</ele>
        <time>2019-01-12T15:07:09Z</time>
      </trkpt>
      <trkpt lat="43.97357" lon="3.71981">
        <ele>255</ele>
        <time>2019-01-12T15:07:10Z</time>
      </trkpt>
      <trkpt lat="43.97361" lon="3.71977">
        <ele>255</ele>
        <time>2019-01-12T15:07:10Z</time>
      </trkpt>
      <trkpt lat="43.97365" lon="3.71977">
        <ele>255</ele>
        <time>2019-01-12T15:07:10Z</time>
      </trkpt>
      <trkpt lat="43.97367" lon="3.71975">
        <ele>255</ele>
        <time>2019-01-12T15:07:25Z</time>
      </trkpt>
      <trkpt lat="43.9737" lon="3.71972">
        <ele>255</ele>
        <time>2019-01-12T15:07:26Z</time>
      </trkpt>
      <trkpt lat="43.97374" lon="3.71971">
        <ele>255</ele>
        <time>2019-01-12T15:07:26Z</time>
      </trkpt>
      <trkpt lat="43.97376" lon="3.7197">
        <ele>263</ele>
        <time>2019-01-12T15:07:26Z</time>
      </trkpt>
      <trkpt lat="43.9738" lon="3.71968">
        <ele>263</ele>
        <time>2019-01-12T15:08:25Z</time>
      </trkpt>
      <trkpt lat="43.97382" lon="3.71967">
        <ele>263</ele>
        <time>2019-01-12T15:08:26Z</time>
      </trkpt>
      <trkpt lat="43.97384" lon="3.71956">
        <ele>230</ele>
        <time>2019-01-12T15:08:26Z</time>
      </trkpt>
      <trkpt lat="43.97387" lon="3.7195">
        <ele>230</ele>
        <time>2019-01-12T15:08:26Z</time>
      </trkpt>
      <trkpt lat="43.97387" lon="3.71948">
        <ele>230</ele>
        <time>2019-01-12T15:08:45Z</time>
      </trkpt>
      <trkpt lat="43.97387" lon="3.71945">
        <ele>230</ele>
        <time>2019-01-12T15:08:46Z</time>
      </trkpt>
      <trkpt lat="43.9739" lon="3.71943">
        <ele>230</ele>
        <time>2019-01-12T15:08:46Z</time>
      </trkpt>
      <trkpt lat="43.97393" lon="3.71939">
        <ele>230</ele>
        <time>2019-01-12T15:08:46Z</time>
      </trkpt>
      <trkpt lat="43.97393" lon="3.71938">
        <ele>230</ele>
        <time>2019-01-12T15:09:05Z</time>
      </trkpt>
      <trkpt lat="43.97395" lon="3.71937">
        <ele>230</ele>
        <time>2019-01-12T15:09:06Z</time>
      </trkpt>
      <trkpt lat="43.97397" lon="3.71934">
        <ele>230</ele>
        <time>2019-01-12T15:09:06Z</time>
      </trkpt>
      <trkpt lat="43.97399" lon="3.7193">
        <ele>230</ele>
        <time>2019-01-12T15:09:06Z</time>
      </trkpt>
      <trkpt lat="43.97402" lon="3.71925">
        <ele>230</ele>
        <time>2019-01-12T15:09:06Z</time>
      </trkpt>
      <trkpt lat="43.97403" lon="3.71922">
        <ele>230</ele>
        <time>2019-01-12T15:09:21Z</time>
      </trkpt>
      <trkpt lat="43.97406" lon="3.71918">
        <ele>230</ele>
        <time>2019-01-12T15:09:22Z</time>
      </trkpt>
      <trkpt lat="43.97413" lon="3.71911">
        <ele>230</ele>
        <time>2019-01-12T15:09:22Z</time>
      </trkpt>
      <trkpt lat="43.97421" lon="3.71903">
        <ele>230</ele>
        <time>2019-01-12T15:09:22Z</time>
      </trkpt>
      <trkpt lat="43.97425" lon="3.71897">
        <ele>230</ele>
        <time>2019-01-12T15:09:37Z</time>
      </trkpt>
      <trkpt lat="43.97427" lon="3.71893">
        <ele>230</ele>
        <time>2019-01-12T15:09:38Z</time>
      </trkpt>
      <trkpt lat="43.97431" lon="3.71891">
        <ele>230</ele>
        <time>2019-01-12T15:09:38Z</time>
      </trkpt>
      <trkpt lat="43.97435" lon="3.7189">
        <ele>230</ele>
        <time>2019-01-12T15:09:38Z</time>
      </trkpt>
      <trkpt lat="43.97437" lon="3.71888">
        <ele>230</ele>
        <time>2019-01-12T15:09:53Z</time>
      </trkpt>
      <trkpt lat="43.97441" lon="3.71886">
        <ele>230</ele>
        <time>2019-01-12T15:09:54Z</time>
      </trkpt>
      <trkpt lat="43.97445" lon="3.71883">
        <ele>230</ele>
        <time>2019-01-12T15:09:54Z</time>
      </trkpt>
      <trkpt lat="43.97451" lon="3.71881">
        <ele>230</ele>
        <time>2019-01-12T15:09:54Z</time>
      </trkpt>
      <trkpt lat="43.97453" lon="3.71879">
        <ele>230</ele>
        <time>2019-01-12T15:10:09Z</time>
      </trkpt>
      <trkpt lat="43.97457" lon="3.71879">
        <ele>230</ele>
        <time>2019-01-12T15:10:10Z</time>
      </trkpt>
      <trkpt lat="43.97463" lon="3.71879">
        <ele>239</ele>
        <time>2019-01-12T15:10:10Z</time>
      </trkpt>
      <trkpt lat="43.97468" lon="3.71878">
        <ele>239</ele>
        <time>2019-01-12T15:10:10Z</time>
      </trkpt>
      <trkpt lat="43.97471" lon="3.71877">
        <ele>239</ele>
        <time>2019-01-12T15:10:25Z</time>
      </trkpt>
      <trkpt lat="43.97475" lon="3.71874">
        <ele>207</ele>
        <time>2019-01-12T15:10:26Z</time>
      </trkpt>
      <trkpt lat="43.97479" lon="3.71872">
        <ele>207</ele>
        <time>2019-01-12T15:10:26Z</time>
      </trkpt>
      <trkpt lat="43.97481" lon="3.71872">
        <ele>207</ele>
        <time>2019-01-12T15:10:26Z</time>
      </trkpt>
      <trkpt lat="43.97485" lon="3.71871">
        <ele>207</ele>
        <time>2019-01-12T15:10:41Z</time>
      </trkpt>
      <trkpt lat="43.9749" lon="3.7187">
        <ele>207</ele>
        <time>2019-01-12T15:10:42Z</time>
      </trkpt>
      <trkpt lat="43.97494" lon="3.71869">
        <ele>207</ele>
        <time>2019-01-12T15:10:42Z</time>
      </trkpt>
      <trkpt lat="43.97497" lon="3.71867">
        <ele>207</ele>
        <time>2019-01-12T15:10:42Z</time>
      </trkpt>
      <trkpt lat="43.97501" lon="3.71863">
        <ele>207</ele>
        <time>2019-01-12T15:10:58Z</time>
      </trkpt>
      <trkpt lat="43.97505" lon="3.71859">
        <ele>207</ele>
        <time>2019-01-12T15:10:58Z</time>
      </trkpt>
      <trkpt lat="43.97506" lon="3.71858">
        <ele>207</ele>
        <time>2019-01-12T15:10:58Z</time>
      </trkpt>
      <trkpt lat="43.97511" lon="3.71856">
        <ele>207</ele>
        <time>2019-01-12T15:10:58Z</time>
      </trkpt>
      <trkpt lat="43.97514" lon="3.71849">
        <ele>207</ele>
        <time>2019-01-12T15:11:53Z</time>
      </trkpt>
      <trkpt lat="43.97509" lon="3.71849">
        <ele>207</ele>
        <time>2019-01-12T15:11:54Z</time>
      </trkpt>
      <trkpt lat="43.97505" lon="3.71851">
        <ele>207</ele>
        <time>2019-01-12T15:11:54Z</time>
      </trkpt>
      <trkpt lat="43.975" lon="3.71851">
        <ele>207</ele>
        <time>2019-01-12T15:11:54Z</time>
      </trkpt>
      <trkpt lat="43.97495" lon="3.71852">
        <ele>207</ele>
        <time>2019-01-12T15:11:54Z</time>
      </trkpt>
      <trkpt lat="43.9749" lon="3.71854">
        <ele>207</ele>
        <time>2019-01-12T15:12:09Z</time>
      </trkpt>
      <trkpt lat="43.97486" lon="3.71855">
        <ele>207</ele>
        <time>2019-01-12T15:12:10Z</time>
      </trkpt>
      <trkpt lat="43.97481" lon="3.71856">
        <ele>207</ele>
        <time>2019-01-12T15:12:10Z</time>
      </trkpt>
      <trkpt lat="43.97476" lon="3.71859">
        <ele>207</ele>
        <time>2019-01-12T15:12:10Z</time>
      </trkpt>
      <trkpt lat="43.97476" lon="3.71859">
        <ele>207</ele>
        <time>2019-01-12T15:12:25Z</time>
      </trkpt>
      <trkpt lat="43.97475" lon="3.7186">
        <ele>207</ele>
        <time>2019-01-12T15:12:26Z</time>
      </trkpt>
      <trkpt lat="43.9747" lon="3.71862">
        <ele>207</ele>
        <time>2019-01-12T15:12:26Z</time>
      </trkpt>
      <trkpt lat="43.97465" lon="3.71863">
        <ele>207</ele>
        <time>2019-01-12T15:12:26Z</time>
      </trkpt>
      <trkpt lat="43.9746" lon="3.71866">
        <ele>207</ele>
        <time>2019-01-12T15:12:41Z</time>
      </trkpt>
      <trkpt lat="43.97456" lon="3.71867">
        <ele>195</ele>
        <time>2019-01-12T15:12:42Z</time>
      </trkpt>
      <trkpt lat="43.97451" lon="3.71868">
        <ele>195</ele>
        <time>2019-01-12T15:12:42Z</time>
      </trkpt>
      <trkpt lat="43.97446" lon="3.71869">
        <ele>195</ele>
        <time>2019-01-12T15:12:42Z</time>
      </trkpt>
      <trkpt lat="43.97441" lon="3.7187">
        <ele>195</ele>
        <time>2019-01-12T15:12:57Z</time>
      </trkpt>
      <trkpt lat="43.97436" lon="3.71871">
        <ele>195</ele>
        <time>2019-01-12T15:12:58Z</time>
      </trkpt>
      <trkpt lat="43.97431" lon="3.71872">
        <ele>195</ele>
        <time>2019-01-12T15:12:58Z</time>
      </trkpt>
      <trkpt lat="43.97427" lon="3.71874">
        <ele>195</ele>
        <time>2019-01-12T15:12:58Z</time>
      </trkpt>
      <trkpt lat="43.97422" lon="3.71874">
        <ele>195</ele>
        <time>2019-01-12T15:13:13Z</time>
      </trkpt>
      <trkpt lat="43.97418" lon="3.71875">
        <ele>195</ele>
        <time>2019-01-12T15:13:14Z</time>
      </trkpt>
      <trkpt lat="43.97413" lon="3.71875">
        <ele>230</ele>
        <time>2019-01-12T15:13:14Z</time>
      </trkpt>
      <trkpt lat="43.97408" lon="3.71876">
        <ele>230</ele>
        <time>2019-01-12T15:13:14Z</time>
      </trkpt>
      <trkpt lat="43.97404" lon="3.71878">
        <ele>230</ele>
        <time>2019-01-12T15:13:29Z</time>
      </trkpt>
      <trkpt lat="43.97399" lon="3.7188">
        <ele>230</ele>
        <time>2019-01-12T15:13:30Z</time>
      </trkpt>
      <trkpt lat="43.97394" lon="3.71882">
        <ele>230</ele>
        <time>2019-01-12T15:13:30Z</time>
      </trkpt>
      <trkpt lat="43.9739" lon="3.71883">
        <ele>230</ele>
        <time>2019-01-12T15:13:30Z</time>
      </trkpt>
      <trkpt lat="43.97385" lon="3.71884">
        <ele>230</ele>
        <time>2019-01-12T15:13:45Z</time>
      </trkpt>
      <trkpt lat="43.97381" lon="3.71884">
        <ele>230</ele>
        <time>2019-01-12T15:13:46Z</time>
      </trkpt>
      <trkpt lat="43.97377" lon="3.71885">
        <ele>230</ele>
        <time>2019-01-12T15:13:46Z</time>
      </trkpt>
      <trkpt lat="43.97372" lon="3.71886">
        <ele>222</ele>
        <time>2019-01-12T15:13:46Z</time>
      </trkpt>
      <trkpt lat="43.97367" lon="3.71885">
        <ele>222</ele>
        <time>2019-01-12T15:14:01Z</time>
      </trkpt>
      <trkpt lat="43.97363" lon="3.71885">
        <ele>222</ele>
        <time>2019-01-12T15:14:02Z</time>
      </trkpt>
      <trkpt lat="43.97358" lon="3.71886">
        <ele>222</ele>
        <time>2019-01-12T15:14:02Z</time>
      </trkpt>
      <trkpt lat="43.97352" lon="3.71888">
        <ele>222</ele>
        <time>2019-01-12T15:14:02Z</time>
      </trkpt>
      <trkpt lat="43.9735" lon="3.71889">
        <ele>222</ele>
        <time>2019-01-12T15:14:54Z</time>
      </trkpt>
      <trkpt lat="43.97345" lon="3.7189">
        <ele>222</ele>
        <time>2019-01-12T15:14:54Z</time>
      </trkpt>
      <trkpt lat="43.97339" lon="3.71888">
        <ele>222</ele>
        <time>2019-01-12T15:14:54Z</time>
      </trkpt>
      <trkpt lat="43.97334" lon="3.71888">
        <ele>222</ele>
        <time>2019-01-12T15:14:54Z</time>
      </trkpt>
      <trkpt lat="43.9733" lon="3.71888">
        <ele>222</ele>
        <time>2019-01-12T15:14:54Z</time>
      </trkpt>
      <trkpt lat="43.97328" lon="3.7189">
        <ele>222</ele>
        <time>2019-01-12T15:15:09Z</time>
      </trkpt>
      <trkpt lat="43.97322" lon="3.71891">
        <ele>222</ele>
        <time>2019-01-12T15:15:10Z</time>
      </trkpt>
      <trkpt lat="43.97317" lon="3.71894">
        <ele>222</ele>
        <time>2019-01-12T15:15:10Z</time>
      </trkpt>
      <trkpt lat="43.97313" lon="3.71895">
        <ele>222</ele>
        <time>2019-01-12T15:15:10Z</time>
      </trkpt>
      <trkpt lat="43.97308" lon="3.71897">
        <ele>222</ele>
        <time>2019-01-12T15:15:25Z</time>
      </trkpt>
      <trkpt lat="43.97303" lon="3.71898">
        <ele>222</ele>
        <time>2019-01-12T15:15:26Z</time>
      </trkpt>
      <trkpt lat="43.97299" lon="3.71899">
        <ele>222</ele>
        <time>2019-01-12T15:15:26Z</time>
      </trkpt>
      <trkpt lat="43.97294" lon="3.719">
        <ele>222</ele>
        <time>2019-01-12T15:15:26Z</time>
      </trkpt>
      <trkpt lat="43.97288" lon="3.71902">
        <ele>212</ele>
        <time>2019-01-12T15:15:41Z</time>
      </trkpt>
      <trkpt lat="43.97283" lon="3.71904">
        <ele>212</ele>
        <time>2019-01-12T15:15:42Z</time>
      </trkpt>
      <trkpt lat="43.97279" lon="3.71904">
        <ele>212</ele>
        <time>2019-01-12T15:15:42Z</time>
      </trkpt>
      <trkpt lat="43.97275" lon="3.71905">
        <ele>212</ele>
        <time>2019-01-12T15:15:42Z</time>
      </trkpt>
      <trkpt lat="43.9727" lon="3.71905">
        <ele>212</ele>
        <time>2019-01-12T15:15:57Z</time>
      </trkpt>
      <trkpt lat="43.97265" lon="3.71906">
        <ele>212</ele>
        <time>2019-01-12T15:15:58Z</time>
      </trkpt>
      <trkpt lat="43.97261" lon="3.71906">
        <ele>212</ele>
        <time>2019-01-12T15:15:58Z</time>
      </trkpt>
      <trkpt lat="43.97255" lon="3.71906">
        <ele>212</ele>
        <time>2019-01-12T15:15:58Z</time>
      </trkpt>
      <trkpt lat="43.97249" lon="3.71906">
        <ele>212</ele>
        <time>2019-01-12T15:16:13Z</time>
      </trkpt>
      <trkpt lat="43.97246" lon="3.71908">
        <ele>212</ele>
        <time>2019-01-12T15:16:14Z</time>
      </trkpt>
      <trkpt lat="43.97242" lon="3.7191">
        <ele>212</ele>
        <time>2019-01-12T15:16:14Z</time>
      </trkpt>
      <trkpt lat="43.97237" lon="3.71911">
        <ele>212</ele>
        <time>2019-01-12T15:16:14Z</time>
      </trkpt>
      <trkpt lat="43.97223" lon="3.71913">
        <ele>212</ele>
        <time>2019-01-12T15:16:45Z</time>
      </trkpt>
      <trkpt lat="43.97219" lon="3.71913">
        <ele>212</ele>
        <time>2019-01-12T15:16:46Z</time>
      </trkpt>
      <trkpt lat="43.97214" lon="3.71913">
        <ele>212</ele>
        <time>2019-01-12T15:16:46Z</time>
      </trkpt>
      <trkpt lat="43.97209" lon="3.71914">
        <ele>212</ele>
        <time>2019-01-12T15:16:46Z</time>
      </trkpt>
      <trkpt lat="43.97204" lon="3.71915">
        <ele>207</ele>
        <time>2019-01-12T15:16:46Z</time>
      </trkpt>
      <trkpt lat="43.97199" lon="3.71917">
        <ele>207</ele>
        <time>2019-01-12T15:17:01Z</time>
      </trkpt>
      <trkpt lat="43.97195" lon="3.71918">
        <ele>207</ele>
        <time>2019-01-12T15:17:02Z</time>
      </trkpt>
      <trkpt lat="43.9719" lon="3.71919">
        <ele>207</ele>
        <time>2019-01-12T15:17:02Z</time>
      </trkpt>
      <trkpt lat="43.97187" lon="3.71921">
        <ele>207</ele>
        <time>2019-01-12T15:17:02Z</time>
      </trkpt>
      <trkpt lat="43.97182" lon="3.71922">
        <ele>207</ele>
        <time>2019-01-12T15:17:17Z</time>
      </trkpt>
      <trkpt lat="43.97177" lon="3.71923">
        <ele>207</ele>
        <time>2019-01-12T15:17:18Z</time>
      </trkpt>
      <trkpt lat="43.97173" lon="3.71923">
        <ele>207</ele>
        <time>2019-01-12T15:17:18Z</time>
      </trkpt>
      <trkpt lat="43.97167" lon="3.71926">
        <ele>207</ele>
        <time>2019-01-12T15:17:18Z</time>
      </trkpt>
      <trkpt lat="43.97162" lon="3.71925">
        <ele>207</ele>
        <time>2019-01-12T15:17:33Z</time>
      </trkpt>
      <trkpt lat="43.97157" lon="3.71925">
        <ele>207</ele>
        <time>2019-01-12T15:17:34Z</time>
      </trkpt>
      <trkpt lat="43.97152" lon="3.71925">
        <ele>207</ele>
        <time>2019-01-12T15:17:34Z</time>
      </trkpt>
      <trkpt lat="43.97148" lon="3.71925">
        <ele>207</ele>
        <time>2019-01-12T15:17:34Z</time>
      </trkpt>
      <trkpt lat="43.97143" lon="3.71925">
        <ele>207</ele>
        <time>2019-01-12T15:17:49Z</time>
      </trkpt>
      <trkpt lat="43.97139" lon="3.71927">
        <ele>207</ele>
        <time>2019-01-12T15:17:50Z</time>
      </trkpt>
      <trkpt lat="43.97133" lon="3.71928">
        <ele>207</ele>
        <time>2019-01-12T15:17:50Z</time>
      </trkpt>
      <trkpt lat="43.97128" lon="3.71928">
        <ele>207</ele>
        <time>2019-01-12T15:17:50Z</time>
      </trkpt>
      <trkpt lat="43.97124" lon="3.71931">
        <ele>205</ele>
        <time>2019-01-12T15:18:05Z</time>
      </trkpt>
      <trkpt lat="43.97119" lon="3.71931">
        <ele>205</ele>
        <time>2019-01-12T15:18:06Z</time>
      </trkpt>
      <trkpt lat="43.97113" lon="3.71934">
        <ele>205</ele>
        <time>2019-01-12T15:18:06Z</time>
      </trkpt>
      <trkpt lat="43.97108" lon="3.71936">
        <ele>205</ele>
        <time>2019-01-12T15:18:06Z</time>
      </trkpt>
      <trkpt lat="43.97103" lon="3.71936">
        <ele>205</ele>
        <time>2019-01-12T15:18:21Z</time>
      </trkpt>
      <trkpt lat="43.97099" lon="3.71938">
        <ele>205</ele>
        <time>2019-01-12T15:18:22Z</time>
      </trkpt>
      <trkpt lat="43.97094" lon="3.71939">
        <ele>205</ele>
        <time>2019-01-12T15:18:22Z</time>
      </trkpt>
      <trkpt lat="43.9709" lon="3.71939">
        <ele>205</ele>
        <time>2019-01-12T15:18:22Z</time>
      </trkpt>
      <trkpt lat="43.97086" lon="3.71941">
        <ele>205</ele>
        <time>2019-01-12T15:18:37Z</time>
      </trkpt>
      <trkpt lat="43.97082" lon="3.71942">
        <ele>205</ele>
        <time>2019-01-12T15:18:38Z</time>
      </trkpt>
      <trkpt lat="43.97077" lon="3.71945">
        <ele>205</ele>
        <time>2019-01-12T15:18:38Z</time>
      </trkpt>
      <trkpt lat="43.97072" lon="3.71944">
        <ele>205</ele>
        <time>2019-01-12T15:18:38Z</time>
      </trkpt>
      <trkpt lat="43.97069" lon="3.71942">
        <ele>205</ele>
        <time>2019-01-12T15:18:57Z</time>
      </trkpt>
      <trkpt lat="43.97068" lon="3.71942">
        <ele>205</ele>
        <time>2019-01-12T15:18:58Z</time>
      </trkpt>
      <trkpt lat="43.97064" lon="3.71944">
        <ele>205</ele>
        <time>2019-01-12T15:18:58Z</time>
      </trkpt>
      <trkpt lat="43.97061" lon="3.71944">
        <ele>205</ele>
        <time>2019-01-12T15:18:58Z</time>
      </trkpt>
      <trkpt lat="43.97059" lon="3.71946">
        <ele>205</ele>
        <time>2019-01-12T15:18:58Z</time>
      </trkpt>
      <trkpt lat="43.97058" lon="3.7195">
        <ele>205</ele>
        <time>2019-01-12T15:21:34Z</time>
      </trkpt>
      <trkpt lat="43.97056" lon="3.71952">
        <ele>205</ele>
        <time>2019-01-12T15:21:34Z</time>
      </trkpt>
      <trkpt lat="43.9689" lon="3.71899">
        <ele>216</ele>
        <time>2019-01-12T15:21:34Z</time>
      </trkpt>
      <trkpt lat="43.96873" lon="3.71886">
        <ele>242</ele>
        <time>2019-01-12T15:21:34Z</time>
      </trkpt>
      <trkpt lat="43.96869" lon="3.71887">
        <ele>242</ele>
        <time>2019-01-12T15:21:49Z</time>
      </trkpt>
      <trkpt lat="43.96866" lon="3.71882">
        <ele>242</ele>
        <time>2019-01-12T15:21:50Z</time>
      </trkpt>
      <trkpt lat="43.96865" lon="3.71877">
        <ele>242</ele>
        <time>2019-01-12T15:21:50Z</time>
      </trkpt>
      <trkpt lat="43.96856" lon="3.71872">
        <ele>212</ele>
        <time>2019-01-12T15:21:50Z</time>
      </trkpt>
      <trkpt lat="43.96853" lon="3.71867">
        <ele>212</ele>
        <time>2019-01-12T15:22:05Z</time>
      </trkpt>
      <trkpt lat="43.96852" lon="3.71861">
        <ele>212</ele>
        <time>2019-01-12T15:22:06Z</time>
      </trkpt>
      <trkpt lat="43.96849" lon="3.71856">
        <ele>212</ele>
        <time>2019-01-12T15:22:06Z</time>
      </trkpt>
      <trkpt lat="43.96846" lon="3.7185">
        <ele>212</ele>
        <time>2019-01-12T15:22:06Z</time>
      </trkpt>
      <trkpt lat="43.96843" lon="3.71845">
        <ele>212</ele>
        <time>2019-01-12T15:22:21Z</time>
      </trkpt>
      <trkpt lat="43.96838" lon="3.7184">
        <ele>212</ele>
        <time>2019-01-12T15:22:22Z</time>
      </trkpt>
      <trkpt lat="43.96834" lon="3.71835">
        <ele>212</ele>
        <time>2019-01-12T15:22:22Z</time>
      </trkpt>
      <trkpt lat="43.96829" lon="3.7183">
        <ele>212</ele>
        <time>2019-01-12T15:22:22Z</time>
      </trkpt>
      <trkpt lat="43.96825" lon="3.71825">
        <ele>212</ele>
        <time>2019-01-12T15:22:37Z</time>
      </trkpt>
      <trkpt lat="43.96819" lon="3.71823">
        <ele>212</ele>
        <time>2019-01-12T15:22:38Z</time>
      </trkpt>
      <trkpt lat="43.96815" lon="3.71817">
        <ele>212</ele>
        <time>2019-01-12T15:22:38Z</time>
      </trkpt>
      <trkpt lat="43.96813" lon="3.71812">
        <ele>212</ele>
        <time>2019-01-12T15:22:38Z</time>
      </trkpt>
      <trkpt lat="43.96811" lon="3.71805">
        <ele>212</ele>
        <time>2019-01-12T15:22:53Z</time>
      </trkpt>
      <trkpt lat="43.96808" lon="3.718">
        <ele>212</ele>
        <time>2019-01-12T15:22:54Z</time>
      </trkpt>
      <trkpt lat="43.96806" lon="3.71794">
        <ele>212</ele>
        <time>2019-01-12T15:22:54Z</time>
      </trkpt>
      <trkpt lat="43.96803" lon="3.71789">
        <ele>197</ele>
        <time>2019-01-12T15:22:54Z</time>
      </trkpt>
      <trkpt lat="43.96802" lon="3.71784">
        <ele>197</ele>
        <time>2019-01-12T15:23:09Z</time>
      </trkpt>
      <trkpt lat="43.968" lon="3.71778">
        <ele>197</ele>
        <time>2019-01-12T15:23:10Z</time>
      </trkpt>
      <trkpt lat="43.96799" lon="3.71771">
        <ele>197</ele>
        <time>2019-01-12T15:23:10Z</time>
      </trkpt>
      <trkpt lat="43.96797" lon="3.71764">
        <ele>197</ele>
        <time>2019-01-12T15:23:10Z</time>
      </trkpt>
      <trkpt lat="43.96796" lon="3.71757">
        <ele>197</ele>
        <time>2019-01-12T15:24:57Z</time>
      </trkpt>
      <trkpt lat="43.9676" lon="3.71592">
        <ele>209</ele>
        <time>2019-01-12T15:24:58Z</time>
      </trkpt>
      <trkpt lat="43.9676" lon="3.71592">
        <ele>209</ele>
        <time>2019-01-12T15:24:58Z</time>
      </trkpt>
      <trkpt lat="43.96752" lon="3.71593">
        <ele>209</ele>
        <time>2019-01-12T15:24:58Z</time>
      </trkpt>
      <trkpt lat="43.96745" lon="3.71594">
        <ele>209</ele>
        <time>2019-01-12T15:24:58Z</time>
      </trkpt>
      <trkpt lat="43.96742" lon="3.71592">
        <ele>209</ele>
        <time>2019-01-12T15:25:13Z</time>
      </trkpt>
      <trkpt lat="43.96741" lon="3.71587">
        <ele>209</ele>
        <time>2019-01-12T15:25:14Z</time>
      </trkpt>
      <trkpt lat="43.9674" lon="3.71582">
        <ele>209</ele>
        <time>2019-01-12T15:25:14Z</time>
      </trkpt>
      <trkpt lat="43.96738" lon="3.71574">
        <ele>209</ele>
        <time>2019-01-12T15:25:14Z</time>
      </trkpt>
      <trkpt lat="43.96737" lon="3.71568">
        <ele>209</ele>
        <time>2019-01-12T15:25:29Z</time>
      </trkpt>
      <trkpt lat="43.96736" lon="3.71562">
        <ele>209</ele>
        <time>2019-01-12T15:25:30Z</time>
      </trkpt>
      <trkpt lat="43.96732" lon="3.71557">
        <ele>209</ele>
        <time>2019-01-12T15:25:30Z</time>
      </trkpt>
      <trkpt lat="43.9673" lon="3.71554">
        <ele>209</ele>
        <time>2019-01-12T15:25:30Z</time>
      </trkpt>
      <trkpt lat="43.96727" lon="3.71547">
        <ele>209</ele>
        <time>2019-01-12T15:25:45Z</time>
      </trkpt>
      <trkpt lat="43.96724" lon="3.71542">
        <ele>209</ele>
        <time>2019-01-12T15:25:46Z</time>
      </trkpt>
      <trkpt lat="43.96721" lon="3.71536">
        <ele>191</ele>
        <time>2019-01-12T15:25:46Z</time>
      </trkpt>
      <trkpt lat="43.96716" lon="3.71531">
        <ele>191</ele>
        <time>2019-01-12T15:25:46Z</time>
      </trkpt>
      <trkpt lat="43.96713" lon="3.71527">
        <ele>191</ele>
        <time>2019-01-12T15:26:01Z</time>
      </trkpt>
      <trkpt lat="43.9671" lon="3.71523">
        <ele>191</ele>
        <time>2019-01-12T15:26:02Z</time>
      </trkpt>
      <trkpt lat="43.96706" lon="3.71519">
        <ele>213</ele>
        <time>2019-01-12T15:26:02Z</time>
      </trkpt>
      <trkpt lat="43.96701" lon="3.71515">
        <ele>213</ele>
        <time>2019-01-12T15:26:02Z</time>
      </trkpt>
      <trkpt lat="43.96696" lon="3.71511">
        <ele>213</ele>
        <time>2019-01-12T15:26:17Z</time>
      </trkpt>
      <trkpt lat="43.96692" lon="3.71507">
        <ele>213</ele>
        <time>2019-01-12T15:26:18Z</time>
      </trkpt>
      <trkpt lat="43.96688" lon="3.71504">
        <ele>213</ele>
        <time>2019-01-12T15:26:18Z</time>
      </trkpt>
      <trkpt lat="43.96684" lon="3.71499">
        <ele>213</ele>
        <time>2019-01-12T15:26:18Z</time>
      </trkpt>
      <trkpt lat="43.96681" lon="3.71494">
        <ele>213</ele>
        <time>2019-01-12T15:26:34Z</time>
      </trkpt>
      <trkpt lat="43.96677" lon="3.7149">
        <ele>213</ele>
        <time>2019-01-12T15:26:34Z</time>
      </trkpt>
      <trkpt lat="43.96673" lon="3.71486">
        <ele>213</ele>
        <time>2019-01-12T15:26:34Z</time>
      </trkpt>
      <trkpt lat="43.96671" lon="3.71483">
        <ele>213</ele>
        <time>2019-01-12T15:26:34Z</time>
      </trkpt>
      <trkpt lat="43.96667" lon="3.71479">
        <ele>213</ele>
        <time>2019-01-12T15:26:49Z</time>
      </trkpt>
      <trkpt lat="43.96663" lon="3.71475">
        <ele>213</ele>
        <time>2019-01-12T15:26:50Z</time>
      </trkpt>
      <trkpt lat="43.96659" lon="3.71472">
        <ele>213</ele>
        <time>2019-01-12T15:26:50Z</time>
      </trkpt>
      <trkpt lat="43.96656" lon="3.71466">
        <ele>213</ele>
        <time>2019-01-12T15:26:50Z</time>
      </trkpt>
      <trkpt lat="43.96653" lon="3.71462">
        <ele>213</ele>
        <time>2019-01-12T15:27:05Z</time>
      </trkpt>
      <trkpt lat="43.9665" lon="3.71459">
        <ele>213</ele>
        <time>2019-01-12T15:27:06Z</time>
      </trkpt>
      <trkpt lat="43.96646" lon="3.71456">
        <ele>191</ele>
        <time>2019-01-12T15:27:06Z</time>
      </trkpt>
      <trkpt lat="43.96641" lon="3.7145">
        <ele>191</ele>
        <time>2019-01-12T15:27:06Z</time>
      </trkpt>
      <trkpt lat="43.96637" lon="3.71446">
        <ele>191</ele>
        <time>2019-01-12T15:27:21Z</time>
      </trkpt>
      <trkpt lat="43.96632" lon="3.71444">
        <ele>191</ele>
        <time>2019-01-12T15:27:22Z</time>
      </trkpt>
      <trkpt lat="43.96628" lon="3.71442">
        <ele>191</ele>
        <time>2019-01-12T15:27:22Z</time>
      </trkpt>
      <trkpt lat="43.96627" lon="3.71442">
        <ele>191</ele>
        <time>2019-01-12T15:27:22Z</time>
      </trkpt>
      <trkpt lat="43.96622" lon="3.71439">
        <ele>211</ele>
        <time>2019-01-12T15:27:37Z</time>
      </trkpt>
      <trkpt lat="43.96618" lon="3.71434">
        <ele>211</ele>
        <time>2019-01-12T15:27:38Z</time>
      </trkpt>
      <trkpt lat="43.96613" lon="3.71431">
        <ele>211</ele>
        <time>2019-01-12T15:27:38Z</time>
      </trkpt>
      <trkpt lat="43.9661" lon="3.71426">
        <ele>211</ele>
        <time>2019-01-12T15:27:38Z</time>
      </trkpt>
      <trkpt lat="43.96606" lon="3.7142">
        <ele>211</ele>
        <time>2019-01-12T15:27:53Z</time>
      </trkpt>
      <trkpt lat="43.96602" lon="3.71415">
        <ele>211</ele>
        <time>2019-01-12T15:27:54Z</time>
      </trkpt>
      <trkpt lat="43.96598" lon="3.71409">
        <ele>211</ele>
        <time>2019-01-12T15:27:54Z</time>
      </trkpt>
      <trkpt lat="43.96595" lon="3.71402">
        <ele>211</ele>
        <time>2019-01-12T15:27:54Z</time>
      </trkpt>
      <trkpt lat="43.96591" lon="3.71397">
        <ele>211</ele>
        <time>2019-01-12T15:28:09Z</time>
      </trkpt>
      <trkpt lat="43.96587" lon="3.71393">
        <ele>211</ele>
        <time>2019-01-12T15:28:10Z</time>
      </trkpt>
      <trkpt lat="43.96583" lon="3.7139">
        <ele>211</ele>
        <time>2019-01-12T15:28:10Z</time>
      </trkpt>
      <trkpt lat="43.96578" lon="3.71385">
        <ele>211</ele>
        <time>2019-01-12T15:28:10Z</time>
      </trkpt>
      <trkpt lat="43.96573" lon="3.71381">
        <ele>211</ele>
        <time>2019-01-12T15:28:26Z</time>
      </trkpt>
      <trkpt lat="43.9657" lon="3.71376">
        <ele>211</ele>
        <time>2019-01-12T15:28:26Z</time>
      </trkpt>
      <trkpt lat="43.96567" lon="3.71371">
        <ele>191</ele>
        <time>2019-01-12T15:28:26Z</time>
      </trkpt>
      <trkpt lat="43.96563" lon="3.71365">
        <ele>191</ele>
        <time>2019-01-12T15:28:26Z</time>
      </trkpt>
      <trkpt lat="43.96558" lon="3.71359">
        <ele>191</ele>
        <time>2019-01-12T15:28:41Z</time>
      </trkpt>
      <trkpt lat="43.96556" lon="3.71354">
        <ele>191</ele>
        <time>2019-01-12T15:28:42Z</time>
      </trkpt>
      <trkpt lat="43.96552" lon="3.71348">
        <ele>191</ele>
        <time>2019-01-12T15:28:42Z</time>
      </trkpt>
      <trkpt lat="43.9655" lon="3.71343">
        <ele>191</ele>
        <time>2019-01-12T15:28:42Z</time>
      </trkpt>
      <trkpt lat="43.96548" lon="3.71337">
        <ele>191</ele>
        <time>2019-01-12T15:28:57Z</time>
      </trkpt>
      <trkpt lat="43.96545" lon="3.71332">
        <ele>191</ele>
        <time>2019-01-12T15:28:58Z</time>
      </trkpt>
      <trkpt lat="43.96541" lon="3.71329">
        <ele>221</ele>
        <time>2019-01-12T15:28:58Z</time>
      </trkpt>
      <trkpt lat="43.96538" lon="3.71325">
        <ele>221</ele>
        <time>2019-01-12T15:28:58Z</time>
      </trkpt>
      <trkpt lat="43.96537" lon="3.71317">
        <ele>221</ele>
        <time>2019-01-12T15:29:14Z</time>
      </trkpt>
      <trkpt lat="43.96534" lon="3.7131">
        <ele>221</ele>
        <time>2019-01-12T15:29:14Z</time>
      </trkpt>
      <trkpt lat="43.96531" lon="3.71306">
        <ele>221</ele>
        <time>2019-01-12T15:29:14Z</time>
      </trkpt>
      <trkpt lat="43.96528" lon="3.713">
        <ele>221</ele>
        <time>2019-01-12T15:29:14Z</time>
      </trkpt>
      <trkpt lat="43.96525" lon="3.71297">
        <ele>221</ele>
        <time>2019-01-12T15:29:29Z</time>
      </trkpt>
      <trkpt lat="43.96523" lon="3.71291">
        <ele>202</ele>
        <time>2019-01-12T15:29:30Z</time>
      </trkpt>
      <trkpt lat="43.9652" lon="3.71284">
        <ele>202</ele>
        <time>2019-01-12T15:29:30Z</time>
      </trkpt>
      <trkpt lat="43.96517" lon="3.71278">
        <ele>202</ele>
        <time>2019-01-12T15:29:30Z</time>
      </trkpt>
      <trkpt lat="43.96515" lon="3.71271">
        <ele>202</ele>
        <time>2019-01-12T15:29:45Z</time>
      </trkpt>
      <trkpt lat="43.96512" lon="3.71266">
        <ele>202</ele>
        <time>2019-01-12T15:29:46Z</time>
      </trkpt>
      <trkpt lat="43.96509" lon="3.71259">
        <ele>202</ele>
        <time>2019-01-12T15:29:46Z</time>
      </trkpt>
      <trkpt lat="43.96506" lon="3.71252">
        <ele>202</ele>
        <time>2019-01-12T15:29:46Z</time>
      </trkpt>
      <trkpt lat="43.96501" lon="3.71247">
        <ele>202</ele>
        <time>2019-01-12T15:30:01Z</time>
      </trkpt>
      <trkpt lat="43.96497" lon="3.71243">
        <ele>202</ele>
        <time>2019-01-12T15:30:02Z</time>
      </trkpt>
      <trkpt lat="43.96494" lon="3.71238">
        <ele>202</ele>
        <time>2019-01-12T15:30:02Z</time>
      </trkpt>
      <trkpt lat="43.96492" lon="3.71233">
        <ele>202</ele>
        <time>2019-01-12T15:30:02Z</time>
      </trkpt>
      <trkpt lat="43.96489" lon="3.71227">
        <ele>202</ele>
        <time>2019-01-12T15:30:17Z</time>
      </trkpt>
      <trkpt lat="43.96487" lon="3.7122">
        <ele>202</ele>
        <time>2019-01-12T15:30:18Z</time>
      </trkpt>
      <trkpt lat="43.96484" lon="3.71215">
        <ele>202</ele>
        <time>2019-01-12T15:30:18Z</time>
      </trkpt>
      <trkpt lat="43.96481" lon="3.7121">
        <ele>202</ele>
        <time>2019-01-12T15:30:18Z</time>
      </trkpt>
      <trkpt lat="43.96477" lon="3.71205">
        <ele>185</ele>
        <time>2019-01-12T15:30:33Z</time>
      </trkpt>
      <trkpt lat="43.96473" lon="3.712">
        <ele>185</ele>
        <time>2019-01-12T15:30:34Z</time>
      </trkpt>
      <trkpt lat="43.96471" lon="3.71196">
        <ele>185</ele>
        <time>2019-01-12T15:30:34Z</time>
      </trkpt>
      <trkpt lat="43.96466" lon="3.7119">
        <ele>185</ele>
        <time>2019-01-12T15:30:34Z</time>
      </trkpt>
      <trkpt lat="43.96461" lon="3.71186">
        <ele>185</ele>
        <time>2019-01-12T15:30:49Z</time>
      </trkpt>
      <trkpt lat="43.96457" lon="3.71181">
        <ele>220</ele>
        <time>2019-01-12T15:30:50Z</time>
      </trkpt>
      <trkpt lat="43.96454" lon="3.71175">
        <ele>220</ele>
        <time>2019-01-12T15:30:50Z</time>
      </trkpt>
      <trkpt lat="43.96451" lon="3.7117">
        <ele>220</ele>
        <time>2019-01-12T15:30:50Z</time>
      </trkpt>
      <trkpt lat="43.96448" lon="3.71166">
        <ele>220</ele>
        <time>2019-01-12T15:31:05Z</time>
      </trkpt>
      <trkpt lat="43.96443" lon="3.71162">
        <ele>220</ele>
        <time>2019-01-12T15:31:06Z</time>
      </trkpt>
      <trkpt lat="43.96439" lon="3.71156">
        <ele>220</ele>
        <time>2019-01-12T15:31:06Z</time>
      </trkpt>
      <trkpt lat="43.96436" lon="3.7115">
        <ele>220</ele>
        <time>2019-01-12T15:31:06Z</time>
      </trkpt>
      <trkpt lat="43.96435" lon="3.71145">
        <ele>220</ele>
        <time>2019-01-12T15:31:21Z</time>
      </trkpt>
      <trkpt lat="43.96432" lon="3.7114">
        <ele>220</ele>
        <time>2019-01-12T15:31:22Z</time>
      </trkpt>
      <trkpt lat="43.96428" lon="3.71136">
        <ele>220</ele>
        <time>2019-01-12T15:31:22Z</time>
      </trkpt>
      <trkpt lat="43.96425" lon="3.7113">
        <ele>220</ele>
        <time>2019-01-12T15:31:22Z</time>
      </trkpt>
      <trkpt lat="43.96421" lon="3.71125">
        <ele>220</ele>
        <time>2019-01-12T15:31:37Z</time>
      </trkpt>
      <trkpt lat="43.96418" lon="3.71119">
        <ele>195</ele>
        <time>2019-01-12T15:31:38Z</time>
      </trkpt>
      <trkpt lat="43.96415" lon="3.71113">
        <ele>195</ele>
        <time>2019-01-12T15:31:38Z</time>
      </trkpt>
      <trkpt lat="43.96413" lon="3.71108">
        <ele>195</ele>
        <time>2019-01-12T15:31:38Z</time>
      </trkpt>
      <trkpt lat="43.96408" lon="3.71103">
        <ele>195</ele>
        <time>2019-01-12T15:31:53Z</time>
      </trkpt>
      <trkpt lat="43.96405" lon="3.71098">
        <ele>195</ele>
        <time>2019-01-12T15:31:54Z</time>
      </trkpt>
      <trkpt lat="43.96402" lon="3.71093">
        <ele>195</ele>
        <time>2019-01-12T15:31:54Z</time>
      </trkpt>
      <trkpt lat="43.96398" lon="3.7109">
        <ele>195</ele>
        <time>2019-01-12T15:31:54Z</time>
      </trkpt>
      <trkpt lat="43.96395" lon="3.71085">
        <ele>195</ele>
        <time>2019-01-12T15:32:09Z</time>
      </trkpt>
      <trkpt lat="43.96392" lon="3.7108">
        <ele>195</ele>
        <time>2019-01-12T15:32:10Z</time>
      </trkpt>
      <trkpt lat="43.96389" lon="3.71077">
        <ele>195</ele>
        <time>2019-01-12T15:32:10Z</time>
      </trkpt>
      <trkpt lat="43.96386" lon="3.71072">
        <ele>195</ele>
        <time>2019-01-12T15:32:10Z</time>
      </trkpt>
      <trkpt lat="43.96382" lon="3.71066">
        <ele>195</ele>
        <time>2019-01-12T15:32:25Z</time>
      </trkpt>
      <trkpt lat="43.96378" lon="3.71061">
        <ele>195</ele>
        <time>2019-01-12T15:32:26Z</time>
      </trkpt>
      <trkpt lat="43.96375" lon="3.71058">
        <ele>227</ele>
        <time>2019-01-12T15:32:26Z</time>
      </trkpt>
      <trkpt lat="43.9637" lon="3.71055">
        <ele>227</ele>
        <time>2019-01-12T15:32:26Z</time>
      </trkpt>
      <trkpt lat="43.96366" lon="3.71052">
        <ele>227</ele>
        <time>2019-01-12T15:32:41Z</time>
      </trkpt>
      <trkpt lat="43.96362" lon="3.71048">
        <ele>227</ele>
        <time>2019-01-12T15:32:42Z</time>
      </trkpt>
      <trkpt lat="43.9636" lon="3.71044">
        <ele>227</ele>
        <time>2019-01-12T15:32:42Z</time>
      </trkpt>
      <trkpt lat="43.96355" lon="3.7104">
        <ele>199</ele>
        <time>2019-01-12T15:32:42Z</time>
      </trkpt>
      <trkpt lat="43.96353" lon="3.71038">
        <ele>199</ele>
        <time>2019-01-12T15:33:09Z</time>
      </trkpt>
      <trkpt lat="43.96352" lon="3.71036">
        <ele>199</ele>
        <time>2019-01-12T15:33:10Z</time>
      </trkpt>
      <trkpt lat="43.96351" lon="3.71036">
        <ele>199</ele>
        <time>2019-01-12T15:33:10Z</time>
      </trkpt>
      <trkpt lat="43.96345" lon="3.71031">
        <ele>199</ele>
        <time>2019-01-12T15:33:10Z</time>
      </trkpt>
      <trkpt lat="43.96341" lon="3.71027">
        <ele>199</ele>
        <time>2019-01-12T15:33:25Z</time>
      </trkpt>
      <trkpt lat="43.96337" lon="3.71024">
        <ele>199</ele>
        <time>2019-01-12T15:33:26Z</time>
      </trkpt>
      <trkpt lat="43.96334" lon="3.7102">
        <ele>199</ele>
        <time>2019-01-12T15:33:26Z</time>
      </trkpt>
      <trkpt lat="43.96331" lon="3.71015">
        <ele>199</ele>
        <time>2019-01-12T15:33:26Z</time>
      </trkpt>
      <trkpt lat="43.96328" lon="3.71009">
        <ele>199</ele>
        <time>2019-01-12T15:33:41Z</time>
      </trkpt>
      <trkpt lat="43.96326" lon="3.71003">
        <ele>199</ele>
        <time>2019-01-12T15:33:42Z</time>
      </trkpt>
      <trkpt lat="43.96323" lon="3.70998">
        <ele>199</ele>
        <time>2019-01-12T15:33:42Z</time>
      </trkpt>
      <trkpt lat="43.96319" lon="3.70995">
        <ele>199</ele>
        <time>2019-01-12T15:33:42Z</time>
      </trkpt>
      <trkpt lat="43.96316" lon="3.70994">
        <ele>199</ele>
        <time>2019-01-12T15:34:25Z</time>
      </trkpt>
      <trkpt lat="43.96309" lon="3.70992">
        <ele>199</ele>
        <time>2019-01-12T15:34:26Z</time>
      </trkpt>
      <trkpt lat="43.96306" lon="3.70989">
        <ele>199</ele>
        <time>2019-01-12T15:34:26Z</time>
      </trkpt>
      <trkpt lat="43.96303" lon="3.70985">
        <ele>199</ele>
        <time>2019-01-12T15:34:26Z</time>
      </trkpt>
      <trkpt lat="43.96299" lon="3.7098">
        <ele>199</ele>
        <time>2019-01-12T15:34:41Z</time>
      </trkpt>
      <trkpt lat="43.96296" lon="3.70976">
        <ele>199</ele>
        <time>2019-01-12T15:34:42Z</time>
      </trkpt>
      <trkpt lat="43.96292" lon="3.70973">
        <ele>199</ele>
        <time>2019-01-12T15:34:42Z</time>
      </trkpt>
      <trkpt lat="43.96289" lon="3.70968">
        <ele>220</ele>
        <time>2019-01-12T15:34:42Z</time>
      </trkpt>
      <trkpt lat="43.96286" lon="3.70963">
        <ele>220</ele>
        <time>2019-01-12T15:34:57Z</time>
      </trkpt>
      <trkpt lat="43.96282" lon="3.70959">
        <ele>220</ele>
        <time>2019-01-12T15:34:58Z</time>
      </trkpt>
      <trkpt lat="43.96278" lon="3.70954">
        <ele>193</ele>
        <time>2019-01-12T15:34:58Z</time>
      </trkpt>
      <trkpt lat="43.96273" lon="3.7095">
        <ele>193</ele>
        <time>2019-01-12T15:34:58Z</time>
      </trkpt>
      <trkpt lat="43.96269" lon="3.70947">
        <ele>193</ele>
        <time>2019-01-12T15:35:14Z</time>
      </trkpt>
      <trkpt lat="43.96266" lon="3.70941">
        <ele>193</ele>
        <time>2019-01-12T15:35:14Z</time>
      </trkpt>
      <trkpt lat="43.96262" lon="3.70937">
        <ele>193</ele>
        <time>2019-01-12T15:35:14Z</time>
      </trkpt>
      <trkpt lat="43.96258" lon="3.70934">
        <ele>193</ele>
        <time>2019-01-12T15:35:14Z</time>
      </trkpt>
      <trkpt lat="43.96254" lon="3.70931">
        <ele>193</ele>
        <time>2019-01-12T15:35:29Z</time>
      </trkpt>
      <trkpt lat="43.96251" lon="3.70927">
        <ele>193</ele>
        <time>2019-01-12T15:35:30Z</time>
      </trkpt>
      <trkpt lat="43.96247" lon="3.70922">
        <ele>193</ele>
        <time>2019-01-12T15:35:30Z</time>
      </trkpt>
      <trkpt lat="43.96243" lon="3.70918">
        <ele>193</ele>
        <time>2019-01-12T15:35:30Z</time>
      </trkpt>
      <trkpt lat="43.96239" lon="3.70913">
        <ele>193</ele>
        <time>2019-01-12T15:35:45Z</time>
      </trkpt>
      <trkpt lat="43.96235" lon="3.70911">
        <ele>193</ele>
        <time>2019-01-12T15:35:46Z</time>
      </trkpt>
      <trkpt lat="43.96232" lon="3.70907">
        <ele>193</ele>
        <time>2019-01-12T15:35:46Z</time>
      </trkpt>
      <trkpt lat="43.96229" lon="3.70905">
        <ele>193</ele>
        <time>2019-01-12T15:35:46Z</time>
      </trkpt>
      <trkpt lat="43.96225" lon="3.70901">
        <ele>193</ele>
        <time>2019-01-12T15:36:01Z</time>
      </trkpt>
      <trkpt lat="43.96222" lon="3.70897">
        <ele>193</ele>
        <time>2019-01-12T15:36:02Z</time>
      </trkpt>
      <trkpt lat="43.96218" lon="3.70892">
        <ele>193</ele>
        <time>2019-01-12T15:36:02Z</time>
      </trkpt>
      <trkpt lat="43.96213" lon="3.70888">
        <ele>193</ele>
        <time>2019-01-12T15:36:02Z</time>
      </trkpt>
      <trkpt lat="43.96208" lon="3.70884">
        <ele>230</ele>
        <time>2019-01-12T15:36:17Z</time>
      </trkpt>
      <trkpt lat="43.96203" lon="3.70881">
        <ele>230</ele>
        <time>2019-01-12T15:36:18Z</time>
      </trkpt>
      <trkpt lat="43.96198" lon="3.70878">
        <ele>230</ele>
        <time>2019-01-12T15:36:18Z</time>
      </trkpt>
      <trkpt lat="43.96193" lon="3.70876">
        <ele>230</ele>
        <time>2019-01-12T15:36:18Z</time>
      </trkpt>
      <trkpt lat="43.96188" lon="3.70873">
        <ele>203</ele>
        <time>2019-01-12T15:36:33Z</time>
      </trkpt>
      <trkpt lat="43.96183" lon="3.70869">
        <ele>203</ele>
        <time>2019-01-12T15:36:34Z</time>
      </trkpt>
      <trkpt lat="43.9618" lon="3.70866">
        <ele>203</ele>
        <time>2019-01-12T15:36:34Z</time>
      </trkpt>
      <trkpt lat="43.96175" lon="3.70865">
        <ele>203</ele>
        <time>2019-01-12T15:36:34Z</time>
      </trkpt>
      <trkpt lat="43.96173" lon="3.70864">
        <ele>203</ele>
        <time>2019-01-12T15:37:57Z</time>
      </trkpt>
      <trkpt lat="43.96076" lon="3.70843">
        <ele>199</ele>
        <time>2019-01-12T15:37:58Z</time>
      </trkpt>
      <trkpt lat="43.96068" lon="3.70841">
        <ele>199</ele>
        <time>2019-01-12T15:37:58Z</time>
      </trkpt>
      <trkpt lat="43.96064" lon="3.70839">
        <ele>199</ele>
        <time>2019-01-12T15:37:58Z</time>
      </trkpt>
      <trkpt lat="43.96062" lon="3.70839">
        <ele>199</ele>
        <time>2019-01-12T15:38:13Z</time>
      </trkpt>
      <trkpt lat="43.96058" lon="3.70841">
        <ele>199</ele>
        <time>2019-01-12T15:38:14Z</time>
      </trkpt>
      <trkpt lat="43.96053" lon="3.70841">
        <ele>199</ele>
        <time>2019-01-12T15:38:14Z</time>
      </trkpt>
      <trkpt lat="43.96049" lon="3.70844">
        <ele>199</ele>
        <time>2019-01-12T15:38:14Z</time>
      </trkpt>
      <trkpt lat="43.96044" lon="3.70846">
        <ele>199</ele>
        <time>2019-01-12T15:38:29Z</time>
      </trkpt>
      <trkpt lat="43.9604" lon="3.70848">
        <ele>187</ele>
        <time>2019-01-12T15:38:30Z</time>
      </trkpt>
      <trkpt lat="43.96036" lon="3.70851">
        <ele>187</ele>
        <time>2019-01-12T15:38:30Z</time>
      </trkpt>
      <trkpt lat="43.96033" lon="3.70853">
        <ele>187</ele>
        <time>2019-01-12T15:38:30Z</time>
      </trkpt>
      <trkpt lat="43.96028" lon="3.70855">
        <ele>187</ele>
        <time>2019-01-12T15:38:45Z</time>
      </trkpt>
      <trkpt lat="43.96022" lon="3.70856">
        <ele>187</ele>
        <time>2019-01-12T15:38:46Z</time>
      </trkpt>
      <trkpt lat="43.96017" lon="3.70858">
        <ele>187</ele>
        <time>2019-01-12T15:38:46Z</time>
      </trkpt>
      <trkpt lat="43.9601" lon="3.70859">
        <ele>187</ele>
        <time>2019-01-12T15:38:46Z</time>
      </trkpt>
      <trkpt lat="43.96006" lon="3.70862">
        <ele>187</ele>
        <time>2019-01-12T15:39:01Z</time>
      </trkpt>
      <trkpt lat="43.96002" lon="3.70861">
        <ele>187</ele>
        <time>2019-01-12T15:39:02Z</time>
      </trkpt>
      <trkpt lat="43.95997" lon="3.70864">
        <ele>187</ele>
        <time>2019-01-12T15:39:02Z</time>
      </trkpt>
      <trkpt lat="43.95993" lon="3.70868">
        <ele>187</ele>
        <time>2019-01-12T15:39:02Z</time>
      </trkpt>
      <trkpt lat="43.95989" lon="3.70873">
        <ele>187</ele>
        <time>2019-01-12T15:39:17Z</time>
      </trkpt>
      <trkpt lat="43.95985" lon="3.70875">
        <ele>187</ele>
        <time>2019-01-12T15:39:18Z</time>
      </trkpt>
      <trkpt lat="43.95981" lon="3.70877">
        <ele>218</ele>
        <time>2019-01-12T15:39:18Z</time>
      </trkpt>
      <trkpt lat="43.95977" lon="3.7088">
        <ele>218</ele>
        <time>2019-01-12T15:39:18Z</time>
      </trkpt>
      <trkpt lat="43.95972" lon="3.70882">
        <ele>218</ele>
        <time>2019-01-12T15:39:34Z</time>
      </trkpt>
      <trkpt lat="43.95967" lon="3.70887">
        <ele>218</ele>
        <time>2019-01-12T15:39:34Z</time>
      </trkpt>
      <trkpt lat="43.95964" lon="3.70893">
        <ele>218</ele>
        <time>2019-01-12T15:39:34Z</time>
      </trkpt>
      <trkpt lat="43.9596" lon="3.70895">
        <ele>218</ele>
        <time>2019-01-12T15:39:34Z</time>
      </trkpt>
      <trkpt lat="43.95955" lon="3.70896">
        <ele>192</ele>
        <time>2019-01-12T15:39:53Z</time>
      </trkpt>
      <trkpt lat="43.95954" lon="3.70895">
        <ele>192</ele>
        <time>2019-01-12T15:39:54Z</time>
      </trkpt>
      <trkpt lat="43.95951" lon="3.70899">
        <ele>192</ele>
        <time>2019-01-12T15:39:54Z</time>
      </trkpt>
      <trkpt lat="43.95946" lon="3.70901">
        <ele>192</ele>
        <time>2019-01-12T15:39:54Z</time>
      </trkpt>
      <trkpt lat="43.95942" lon="3.70904">
        <ele>192</ele>
        <time>2019-01-12T15:40:09Z</time>
      </trkpt>
      <trkpt lat="43.95938" lon="3.70908">
        <ele>192</ele>
        <time>2019-01-12T15:40:10Z</time>
      </trkpt>
      <trkpt lat="43.95933" lon="3.7091">
        <ele>192</ele>
        <time>2019-01-12T15:40:10Z</time>
      </trkpt>
      <trkpt lat="43.95931" lon="3.70913">
        <ele>192</ele>
        <time>2019-01-12T15:40:10Z</time>
      </trkpt>
      <trkpt lat="43.95929" lon="3.70913">
        <ele>192</ele>
        <time>2019-01-12T15:40:49Z</time>
      </trkpt>
      <trkpt lat="43.95924" lon="3.70915">
        <ele>192</ele>
        <time>2019-01-12T15:40:50Z</time>
      </trkpt>
      <trkpt lat="43.95919" lon="3.70917">
        <ele>192</ele>
        <time>2019-01-12T15:40:50Z</time>
      </trkpt>
      <trkpt lat="43.95916" lon="3.70919">
        <ele>192</ele>
        <time>2019-01-12T15:40:50Z</time>
      </trkpt>
      <trkpt lat="43.95913" lon="3.70923">
        <ele>192</ele>
        <time>2019-01-12T15:41:21Z</time>
      </trkpt>
      <trkpt lat="43.95913" lon="3.70926">
        <ele>192</ele>
        <time>2019-01-12T15:41:22Z</time>
      </trkpt>
      <trkpt lat="43.95913" lon="3.70927">
        <ele>192</ele>
        <time>2019-01-12T15:41:22Z</time>
      </trkpt>
      <trkpt lat="43.95905" lon="3.70926">
        <ele>192</ele>
        <time>2019-01-12T15:41:22Z</time>
      </trkpt>
      <trkpt lat="43.95898" lon="3.70928">
        <ele>192</ele>
        <time>2019-01-12T15:41:22Z</time>
      </trkpt>
      <trkpt lat="43.95895" lon="3.70931">
        <ele>192</ele>
        <time>2019-01-12T15:41:37Z</time>
      </trkpt>
      <trkpt lat="43.95892" lon="3.70934">
        <ele>192</ele>
        <time>2019-01-12T15:41:38Z</time>
      </trkpt>
      <trkpt lat="43.95889" lon="3.70938">
        <ele>192</ele>
        <time>2019-01-12T15:41:38Z</time>
      </trkpt>
      <trkpt lat="43.95885" lon="3.70945">
        <ele>192</ele>
        <time>2019-01-12T15:41:38Z</time>
      </trkpt>
      <trkpt lat="43.95884" lon="3.7095">
        <ele>192</ele>
        <time>2019-01-12T15:42:37Z</time>
      </trkpt>
      <trkpt lat="43.95883" lon="3.70951">
        <ele>192</ele>
        <time>2019-01-12T15:42:38Z</time>
      </trkpt>
      <trkpt lat="43.95882" lon="3.70954">
        <ele>192</ele>
        <time>2019-01-12T15:42:38Z</time>
      </trkpt>
      <trkpt lat="43.95877" lon="3.70954">
        <ele>192</ele>
        <time>2019-01-12T15:42:38Z</time>
      </trkpt>
      <trkpt lat="43.95873" lon="3.70956">
        <ele>179</ele>
        <time>2019-01-12T15:42:38Z</time>
      </trkpt>
      <trkpt lat="43.95867" lon="3.70957">
        <ele>179</ele>
        <time>2019-01-12T15:42:53Z</time>
      </trkpt>
      <trkpt lat="43.95863" lon="3.70959">
        <ele>215</ele>
        <time>2019-01-12T15:42:54Z</time>
      </trkpt>
      <trkpt lat="43.95858" lon="3.70961">
        <ele>215</ele>
        <time>2019-01-12T15:42:54Z</time>
      </trkpt>
      <trkpt lat="43.95852" lon="3.70961">
        <ele>215</ele>
        <time>2019-01-12T15:42:54Z</time>
      </trkpt>
      <trkpt lat="43.95847" lon="3.70963">
        <ele>215</ele>
        <time>2019-01-12T15:43:09Z</time>
      </trkpt>
      <trkpt lat="43.95842" lon="3.70962">
        <ele>215</ele>
        <time>2019-01-12T15:43:10Z</time>
      </trkpt>
      <trkpt lat="43.95836" lon="3.70961">
        <ele>215</ele>
        <time>2019-01-12T15:43:10Z</time>
      </trkpt>
      <trkpt lat="43.95831" lon="3.70961">
        <ele>215</ele>
        <time>2019-01-12T15:43:10Z</time>
      </trkpt>
      <trkpt lat="43.95826" lon="3.70961">
        <ele>215</ele>
        <time>2019-01-12T15:43:26Z</time>
      </trkpt>
      <trkpt lat="43.9582" lon="3.70962">
        <ele>215</ele>
        <time>2019-01-12T15:43:26Z</time>
      </trkpt>
      <trkpt lat="43.95814" lon="3.70961">
        <ele>215</ele>
        <time>2019-01-12T15:43:26Z</time>
      </trkpt>
      <trkpt lat="43.95808" lon="3.70962">
        <ele>215</ele>
        <time>2019-01-12T15:43:26Z</time>
      </trkpt>
      <trkpt lat="43.95803" lon="3.70964">
        <ele>215</ele>
        <time>2019-01-12T15:43:42Z</time>
      </trkpt>
      <trkpt lat="43.95798" lon="3.70965">
        <ele>215</ele>
        <time>2019-01-12T15:43:42Z</time>
      </trkpt>
      <trkpt lat="43.95792" lon="3.70965">
        <ele>215</ele>
        <time>2019-01-12T15:43:42Z</time>
      </trkpt>
      <trkpt lat="43.95787" lon="3.70966">
        <ele>215</ele>
        <time>2019-01-12T15:43:42Z</time>
      </trkpt>
      <trkpt lat="43.95782" lon="3.70967">
        <ele>215</ele>
        <time>2019-01-12T15:43:57Z</time>
      </trkpt>
      <trkpt lat="43.95779" lon="3.70968">
        <ele>215</ele>
        <time>2019-01-12T15:43:58Z</time>
      </trkpt>
      <trkpt lat="43.95775" lon="3.70971">
        <ele>215</ele>
        <time>2019-01-12T15:43:58Z</time>
      </trkpt>
      <trkpt lat="43.9577" lon="3.70971">
        <ele>215</ele>
        <time>2019-01-12T15:43:58Z</time>
      </trkpt>
      <trkpt lat="43.95764" lon="3.70969">
        <ele>215</ele>
        <time>2019-01-12T15:44:13Z</time>
      </trkpt>
      <trkpt lat="43.9576" lon="3.70968">
        <ele>215</ele>
        <time>2019-01-12T15:44:14Z</time>
      </trkpt>
      <trkpt lat="43.95754" lon="3.70965">
        <ele>215</ele>
        <time>2019-01-12T15:44:14Z</time>
      </trkpt>
      <trkpt lat="43.95749" lon="3.70964">
        <ele>215</ele>
        <time>2019-01-12T15:44:14Z</time>
      </trkpt>
      <trkpt lat="43.95744" lon="3.70962">
        <ele>215</ele>
        <time>2019-01-12T15:44:30Z</time>
      </trkpt>
      <trkpt lat="43.95738" lon="3.70959">
        <ele>215</ele>
        <time>2019-01-12T15:44:30Z</time>
      </trkpt>
      <trkpt lat="43.95732" lon="3.70958">
        <ele>179</ele>
        <time>2019-01-12T15:44:30Z</time>
      </trkpt>
      <trkpt lat="43.95726" lon="3.70955">
        <ele>179</ele>
        <time>2019-01-12T15:44:30Z</time>
      </trkpt>
      <trkpt lat="43.9572" lon="3.7095">
        <ele>179</ele>
        <time>2019-01-12T15:44:45Z</time>
      </trkpt>
      <trkpt lat="43.95715" lon="3.70947">
        <ele>179</ele>
        <time>2019-01-12T15:44:46Z</time>
      </trkpt>
      <trkpt lat="43.95711" lon="3.70948">
        <ele>179</ele>
        <time>2019-01-12T15:44:46Z</time>
      </trkpt>
      <trkpt lat="43.95711" lon="3.70947">
        <ele>179</ele>
        <time>2019-01-12T15:44:46Z</time>
      </trkpt>
      <trkpt lat="43.95705" lon="3.70948">
        <ele>185</ele>
        <time>2019-01-12T15:45:02Z</time>
      </trkpt>
      <trkpt lat="43.957" lon="3.70949">
        <ele>185</ele>
        <time>2019-01-12T15:45:02Z</time>
      </trkpt>
      <trkpt lat="43.95695" lon="3.70948">
        <ele>185</ele>
        <time>2019-01-12T15:45:02Z</time>
      </trkpt>
      <trkpt lat="43.9569" lon="3.7095">
        <ele>185</ele>
        <time>2019-01-12T15:45:02Z</time>
      </trkpt>
      <trkpt lat="43.95689" lon="3.70953">
        <ele>185</ele>
        <time>2019-01-12T15:45:37Z</time>
      </trkpt>
      <trkpt lat="43.95689" lon="3.70955">
        <ele>185</ele>
        <time>2019-01-12T15:45:38Z</time>
      </trkpt>
      <trkpt lat="43.95684" lon="3.70958">
        <ele>185</ele>
        <time>2019-01-12T15:45:38Z</time>
      </trkpt>
      <trkpt lat="43.95679" lon="3.70957">
        <ele>185</ele>
        <time>2019-01-12T15:45:38Z</time>
      </trkpt>
      <trkpt lat="43.95675" lon="3.70957">
        <ele>185</ele>
        <time>2019-01-12T15:45:53Z</time>
      </trkpt>
      <trkpt lat="43.95671" lon="3.70958">
        <ele>185</ele>
        <time>2019-01-12T15:45:54Z</time>
      </trkpt>
      <trkpt lat="43.95665" lon="3.70957">
        <ele>185</ele>
        <time>2019-01-12T15:45:54Z</time>
      </trkpt>
      <trkpt lat="43.9566" lon="3.70955">
        <ele>185</ele>
        <time>2019-01-12T15:45:54Z</time>
      </trkpt>
      <trkpt lat="43.95656" lon="3.70955">
        <ele>185</ele>
        <time>2019-01-12T15:46:10Z</time>
      </trkpt>
      <trkpt lat="43.9565" lon="3.70954">
        <ele>185</ele>
        <time>2019-01-12T15:46:10Z</time>
      </trkpt>
      <trkpt lat="43.95645" lon="3.70954">
        <ele>185</ele>
        <time>2019-01-12T15:46:10Z</time>
      </trkpt>
      <trkpt lat="43.95639" lon="3.70955">
        <ele>185</ele>
        <time>2019-01-12T15:46:10Z</time>
      </trkpt>
      <trkpt lat="43.95634" lon="3.70955">
        <ele>185</ele>
        <time>2019-01-12T15:46:25Z</time>
      </trkpt>
      <trkpt lat="43.95629" lon="3.70956">
        <ele>185</ele>
        <time>2019-01-12T15:46:26Z</time>
      </trkpt>
      <trkpt lat="43.95623" lon="3.70957">
        <ele>179</ele>
        <time>2019-01-12T15:46:26Z</time>
      </trkpt>
      <trkpt lat="43.95618" lon="3.70958">
        <ele>203</ele>
        <time>2019-01-12T15:46:26Z</time>
      </trkpt>
      <trkpt lat="43.95612" lon="3.7096">
        <ele>203</ele>
        <time>2019-01-12T15:46:41Z</time>
      </trkpt>
      <trkpt lat="43.95607" lon="3.70961">
        <ele>203</ele>
        <time>2019-01-12T15:46:42Z</time>
      </trkpt>
      <trkpt lat="43.95601" lon="3.70965">
        <ele>203</ele>
        <time>2019-01-12T15:46:42Z</time>
      </trkpt>
      <trkpt lat="43.95596" lon="3.7097">
        <ele>203</ele>
        <time>2019-01-12T15:46:42Z</time>
      </trkpt>
      <trkpt lat="43.95592" lon="3.70974">
        <ele>203</ele>
        <time>2019-01-12T15:46:57Z</time>
      </trkpt>
      <trkpt lat="43.95589" lon="3.70979">
        <ele>203</ele>
        <time>2019-01-12T15:46:58Z</time>
      </trkpt>
      <trkpt lat="43.95584" lon="3.70981">
        <ele>203</ele>
        <time>2019-01-12T15:46:58Z</time>
      </trkpt>
      <trkpt lat="43.9558" lon="3.70983">
        <ele>203</ele>
        <time>2019-01-12T15:46:58Z</time>
      </trkpt>
      <trkpt lat="43.95576" lon="3.70986">
        <ele>203</ele>
        <time>2019-01-12T15:47:13Z</time>
      </trkpt>
      <trkpt lat="43.95571" lon="3.70987">
        <ele>203</ele>
        <time>2019-01-12T15:47:14Z</time>
      </trkpt>
      <trkpt lat="43.95566" lon="3.70989">
        <ele>203</ele>
        <time>2019-01-12T15:47:14Z</time>
      </trkpt>
      <trkpt lat="43.95562" lon="3.70992">
        <ele>203</ele>
        <time>2019-01-12T15:47:14Z</time>
      </trkpt>
      <trkpt lat="43.95557" lon="3.70996">
        <ele>203</ele>
        <time>2019-01-12T15:47:29Z</time>
      </trkpt>
      <trkpt lat="43.95553" lon="3.70998">
        <ele>203</ele>
        <time>2019-01-12T15:47:30Z</time>
      </trkpt>
      <trkpt lat="43.95547" lon="3.70999">
        <ele>203</ele>
        <time>2019-01-12T15:47:30Z</time>
      </trkpt>
      <trkpt lat="43.95543" lon="3.71002">
        <ele>203</ele>
        <time>2019-01-12T15:47:30Z</time>
      </trkpt>
      <trkpt lat="43.9554" lon="3.71004">
        <ele>180</ele>
        <time>2019-01-12T15:47:46Z</time>
      </trkpt>
      <trkpt lat="43.95536" lon="3.71007">
        <ele>180</ele>
        <time>2019-01-12T15:47:46Z</time>
      </trkpt>
      <trkpt lat="43.95532" lon="3.7101">
        <ele>180</ele>
        <time>2019-01-12T15:47:46Z</time>
      </trkpt>
      <trkpt lat="43.95528" lon="3.71012">
        <ele>180</ele>
        <time>2019-01-12T15:47:46Z</time>
      </trkpt>
      <trkpt lat="43.95526" lon="3.71013">
        <ele>180</ele>
        <time>2019-01-12T15:48:17Z</time>
      </trkpt>
      <trkpt lat="43.95521" lon="3.71013">
        <ele>180</ele>
        <time>2019-01-12T15:48:18Z</time>
      </trkpt>
      <trkpt lat="43.95517" lon="3.71014">
        <ele>180</ele>
        <time>2019-01-12T15:48:18Z</time>
      </trkpt>
      <trkpt lat="43.95513" lon="3.71015">
        <ele>180</ele>
        <time>2019-01-12T15:48:18Z</time>
      </trkpt>
      <trkpt lat="43.9551" lon="3.7102">
        <ele>180</ele>
        <time>2019-01-12T15:48:33Z</time>
      </trkpt>
      <trkpt lat="43.95505" lon="3.71023">
        <ele>180</ele>
        <time>2019-01-12T15:48:34Z</time>
      </trkpt>
      <trkpt lat="43.95501" lon="3.71026">
        <ele>180</ele>
        <time>2019-01-12T15:48:34Z</time>
      </trkpt>
      <trkpt lat="43.95496" lon="3.71028">
        <ele>180</ele>
        <time>2019-01-12T15:48:34Z</time>
      </trkpt>
      <trkpt lat="43.95491" lon="3.71031">
        <ele>180</ele>
        <time>2019-01-12T15:48:50Z</time>
      </trkpt>
      <trkpt lat="43.95486" lon="3.71033">
        <ele>180</ele>
        <time>2019-01-12T15:48:50Z</time>
      </trkpt>
      <trkpt lat="43.95482" lon="3.71035">
        <ele>180</ele>
        <time>2019-01-12T15:48:50Z</time>
      </trkpt>
      <trkpt lat="43.95478" lon="3.71037">
        <ele>180</ele>
        <time>2019-01-12T15:48:50Z</time>
      </trkpt>
      <trkpt lat="43.95473" lon="3.71039">
        <ele>180</ele>
        <time>2019-01-12T15:49:06Z</time>
      </trkpt>
      <trkpt lat="43.9547" lon="3.71043">
        <ele>217</ele>
        <time>2019-01-12T15:49:06Z</time>
      </trkpt>
      <trkpt lat="43.95465" lon="3.71047">
        <ele>217</ele>
        <time>2019-01-12T15:49:06Z</time>
      </trkpt>
      <trkpt lat="43.95461" lon="3.7105">
        <ele>217</ele>
        <time>2019-01-12T15:49:06Z</time>
      </trkpt>
      <trkpt lat="43.95457" lon="3.71053">
        <ele>203</ele>
        <time>2019-01-12T15:49:21Z</time>
      </trkpt>
      <trkpt lat="43.95452" lon="3.71056">
        <ele>203</ele>
        <time>2019-01-12T15:49:22Z</time>
      </trkpt>
      <trkpt lat="43.95448" lon="3.71059">
        <ele>203</ele>
        <time>2019-01-12T15:49:22Z</time>
      </trkpt>
      <trkpt lat="43.95443" lon="3.71063">
        <ele>203</ele>
        <time>2019-01-12T15:49:22Z</time>
      </trkpt>
      <trkpt lat="43.9544" lon="3.71065">
        <ele>203</ele>
        <time>2019-01-12T15:49:37Z</time>
      </trkpt>
      <trkpt lat="43.95436" lon="3.71068">
        <ele>203</ele>
        <time>2019-01-12T15:49:38Z</time>
      </trkpt>
      <trkpt lat="43.95433" lon="3.7107">
        <ele>203</ele>
        <time>2019-01-12T15:49:38Z</time>
      </trkpt>
      <trkpt lat="43.9543" lon="3.71072">
        <ele>203</ele>
        <time>2019-01-12T15:49:38Z</time>
      </trkpt>
      <trkpt lat="43.95425" lon="3.71074">
        <ele>203</ele>
        <time>2019-01-12T15:49:53Z</time>
      </trkpt>
      <trkpt lat="43.9542" lon="3.71075">
        <ele>203</ele>
        <time>2019-01-12T15:49:54Z</time>
      </trkpt>
      <trkpt lat="43.95414" lon="3.71077">
        <ele>203</ele>
        <time>2019-01-12T15:49:54Z</time>
      </trkpt>
      <trkpt lat="43.95407" lon="3.71074">
        <ele>203</ele>
        <time>2019-01-12T15:49:54Z</time>
      </trkpt>
      <trkpt lat="43.954" lon="3.71076">
        <ele>203</ele>
        <time>2019-01-12T15:50:10Z</time>
      </trkpt>
      <trkpt lat="43.95394" lon="3.71075">
        <ele>203</ele>
        <time>2019-01-12T15:50:10Z</time>
      </trkpt>
      <trkpt lat="43.95389" lon="3.71078">
        <ele>203</ele>
        <time>2019-01-12T15:50:10Z</time>
      </trkpt>
      <trkpt lat="43.95384" lon="3.71082">
        <ele>203</ele>
        <time>2019-01-12T15:50:10Z</time>
      </trkpt>
      <trkpt lat="43.95379" lon="3.71082">
        <ele>203</ele>
        <time>2019-01-12T15:50:25Z</time>
      </trkpt>
      <trkpt lat="43.95374" lon="3.71085">
        <ele>195</ele>
        <time>2019-01-12T15:50:26Z</time>
      </trkpt>
      <trkpt lat="43.95369" lon="3.71089">
        <ele>195</ele>
        <time>2019-01-12T15:50:26Z</time>
      </trkpt>
      <trkpt lat="43.95363" lon="3.71089">
        <ele>195</ele>
        <time>2019-01-12T15:50:26Z</time>
      </trkpt>
      <trkpt lat="43.95358" lon="3.71088">
        <ele>195</ele>
        <time>2019-01-12T15:50:41Z</time>
      </trkpt>
      <trkpt lat="43.95354" lon="3.71088">
        <ele>195</ele>
        <time>2019-01-12T15:50:42Z</time>
      </trkpt>
      <trkpt lat="43.9535" lon="3.71087">
        <ele>195</ele>
        <time>2019-01-12T15:50:42Z</time>
      </trkpt>
      <trkpt lat="43.95346" lon="3.71088">
        <ele>195</ele>
        <time>2019-01-12T15:50:42Z</time>
      </trkpt>
      <trkpt lat="43.95339" lon="3.71089">
        <ele>195</ele>
        <time>2019-01-12T15:50:57Z</time>
      </trkpt>
      <trkpt lat="43.95333" lon="3.71089">
        <ele>195</ele>
        <time>2019-01-12T15:50:58Z</time>
      </trkpt>
      <trkpt lat="43.95328" lon="3.7109">
        <ele>195</ele>
        <time>2019-01-12T15:50:58Z</time>
      </trkpt>
      <trkpt lat="43.95322" lon="3.71089">
        <ele>195</ele>
        <time>2019-01-12T15:50:58Z</time>
      </trkpt>
      <trkpt lat="43.95315" lon="3.71088">
        <ele>195</ele>
        <time>2019-01-12T15:51:14Z</time>
      </trkpt>
      <trkpt lat="43.95309" lon="3.71087">
        <ele>195</ele>
        <time>2019-01-12T15:51:14Z</time>
      </trkpt>
      <trkpt lat="43.95304" lon="3.71087">
        <ele>195</ele>
        <time>2019-01-12T15:51:14Z</time>
      </trkpt>
      <trkpt lat="43.95298" lon="3.71086">
        <ele>195</ele>
        <time>2019-01-12T15:51:14Z</time>
      </trkpt>
      <trkpt lat="43.95294" lon="3.71086">
        <ele>195</ele>
        <time>2019-01-12T15:51:30Z</time>
      </trkpt>
      <trkpt lat="43.95288" lon="3.71084">
        <ele>196</ele>
        <time>2019-01-12T15:51:30Z</time>
      </trkpt>
      <trkpt lat="43.95283" lon="3.71082">
        <ele>196</ele>
        <time>2019-01-12T15:51:30Z</time>
      </trkpt>
      <trkpt lat="43.95279" lon="3.71081">
        <ele>196</ele>
        <time>2019-01-12T15:51:30Z</time>
      </trkpt>
      <trkpt lat="43.95274" lon="3.7108">
        <ele>196</ele>
        <time>2019-01-12T15:51:45Z</time>
      </trkpt>
      <trkpt lat="43.95269" lon="3.71079">
        <ele>196</ele>
        <time>2019-01-12T15:51:46Z</time>
      </trkpt>
      <trkpt lat="43.95264" lon="3.71077">
        <ele>196</ele>
        <time>2019-01-12T15:51:46Z</time>
      </trkpt>
      <trkpt lat="43.95259" lon="3.71076">
        <ele>196</ele>
        <time>2019-01-12T15:51:46Z</time>
      </trkpt>
      <trkpt lat="43.95253" lon="3.71075">
        <ele>196</ele>
        <time>2019-01-12T15:52:01Z</time>
      </trkpt>
      <trkpt lat="43.95248" lon="3.71072">
        <ele>196</ele>
        <time>2019-01-12T15:52:02Z</time>
      </trkpt>
      <trkpt lat="43.95244" lon="3.7107">
        <ele>196</ele>
        <time>2019-01-12T15:52:02Z</time>
      </trkpt>
      <trkpt lat="43.9524" lon="3.71066">
        <ele>196</ele>
        <time>2019-01-12T15:52:02Z</time>
      </trkpt>
      <trkpt lat="43.95235" lon="3.71062">
        <ele>196</ele>
        <time>2019-01-12T15:52:17Z</time>
      </trkpt>
      <trkpt lat="43.95231" lon="3.7106">
        <ele>196</ele>
        <time>2019-01-12T15:52:18Z</time>
      </trkpt>
      <trkpt lat="43.95226" lon="3.71057">
        <ele>196</ele>
        <time>2019-01-12T15:52:18Z</time>
      </trkpt>
      <trkpt lat="43.95222" lon="3.71054">
        <ele>196</ele>
        <time>2019-01-12T15:52:18Z</time>
      </trkpt>
      <trkpt lat="43.95217" lon="3.7105">
        <ele>196</ele>
        <time>2019-01-12T15:52:42Z</time>
      </trkpt>
      <trkpt lat="43.95212" lon="3.71048">
        <ele>196</ele>
        <time>2019-01-12T15:52:42Z</time>
      </trkpt>
      <trkpt lat="43.9521" lon="3.71054">
        <ele>196</ele>
        <time>2019-01-12T15:52:42Z</time>
      </trkpt>
      <trkpt lat="43.95209" lon="3.71055">
        <ele>196</ele>
        <time>2019-01-12T15:52:42Z</time>
      </trkpt>
      <trkpt lat="43.95207" lon="3.71055">
        <ele>228</ele>
        <time>2019-01-12T15:52:42Z</time>
      </trkpt>
      <trkpt lat="43.95205" lon="3.71054">
        <ele>228</ele>
        <time>2019-01-12T15:53:13Z</time>
      </trkpt>
      <trkpt lat="43.952" lon="3.71054">
        <ele>228</ele>
        <time>2019-01-12T15:53:14Z</time>
      </trkpt>
      <trkpt lat="43.95196" lon="3.71052">
        <ele>228</ele>
        <time>2019-01-12T15:53:14Z</time>
      </trkpt>
      <trkpt lat="43.95196" lon="3.71052">
        <ele>228</ele>
        <time>2019-01-12T15:53:14Z</time>
      </trkpt>
      <trkpt lat="43.95193" lon="3.71051">
        <ele>228</ele>
        <time>2019-01-12T15:53:33Z</time>
      </trkpt>
      <trkpt lat="43.95193" lon="3.71051">
        <ele>228</ele>
        <time>2019-01-12T15:53:34Z</time>
      </trkpt>
      <trkpt lat="43.95192" lon="3.7105">
        <ele>228</ele>
        <time>2019-01-12T15:53:34Z</time>
      </trkpt>
      <trkpt lat="43.95186" lon="3.71044">
        <ele>228</ele>
        <time>2019-01-12T15:53:34Z</time>
      </trkpt>
      <trkpt lat="43.95183" lon="3.7104">
        <ele>183</ele>
        <time>2019-01-12T15:53:34Z</time>
      </trkpt>
      <trkpt lat="43.95184" lon="3.71036">
        <ele>183</ele>
        <time>2019-01-12T15:53:49Z</time>
      </trkpt>
      <trkpt lat="43.95181" lon="3.71032">
        <ele>183</ele>
        <time>2019-01-12T15:53:50Z</time>
      </trkpt>
      <trkpt lat="43.95172" lon="3.71013">
        <ele>183</ele>
        <time>2019-01-12T15:53:50Z</time>
      </trkpt>
      <trkpt lat="43.95168" lon="3.71006">
        <ele>183</ele>
        <time>2019-01-12T15:53:50Z</time>
      </trkpt>
      <trkpt lat="43.95165" lon="3.71003">
        <ele>183</ele>
        <time>2019-01-12T15:54:10Z</time>
      </trkpt>
      <trkpt lat="43.95163" lon="3.70999">
        <ele>183</ele>
        <time>2019-01-12T15:54:10Z</time>
      </trkpt>
      <trkpt lat="43.95162" lon="3.70995">
        <ele>183</ele>
        <time>2019-01-12T15:54:10Z</time>
      </trkpt>
      <trkpt lat="43.95159" lon="3.70994">
        <ele>183</ele>
        <time>2019-01-12T15:54:10Z</time>
      </trkpt>
      <trkpt lat="43.95153" lon="3.70993">
        <ele>183</ele>
        <time>2019-01-12T15:54:10Z</time>
      </trkpt>
      <trkpt lat="43.95149" lon="3.7099">
        <ele>183</ele>
        <time>2019-01-12T15:54:25Z</time>
      </trkpt>
      <trkpt lat="43.95145" lon="3.70985">
        <ele>183</ele>
        <time>2019-01-12T15:54:26Z</time>
      </trkpt>
      <trkpt lat="43.95139" lon="3.70982">
        <ele>183</ele>
        <time>2019-01-12T15:54:26Z</time>
      </trkpt>
      <trkpt lat="43.95135" lon="3.7098">
        <ele>183</ele>
        <time>2019-01-12T15:54:26Z</time>
      </trkpt>
      <trkpt lat="43.95133" lon="3.70978">
        <ele>183</ele>
        <time>2019-01-12T15:54:45Z</time>
      </trkpt>
      <trkpt lat="43.95132" lon="3.70975">
        <ele>183</ele>
        <time>2019-01-12T15:54:46Z</time>
      </trkpt>
      <trkpt lat="43.95132" lon="3.70973">
        <ele>183</ele>
        <time>2019-01-12T15:54:46Z</time>
      </trkpt>
      <trkpt lat="43.9513" lon="3.70969">
        <ele>183</ele>
        <time>2019-01-12T15:54:46Z</time>
      </trkpt>
      <trkpt lat="43.95126" lon="3.70966">
        <ele>183</ele>
        <time>2019-01-12T15:54:46Z</time>
      </trkpt>
      <trkpt lat="43.95124" lon="3.70964">
        <ele>219</ele>
        <time>2019-01-12T15:55:01Z</time>
      </trkpt>
      <trkpt lat="43.9512" lon="3.70959">
        <ele>219</ele>
        <time>2019-01-12T15:55:02Z</time>
      </trkpt>
      <trkpt lat="43.95118" lon="3.70954">
        <ele>180</ele>
        <time>2019-01-12T15:55:02Z</time>
      </trkpt>
      <trkpt lat="43.95117" lon="3.70949">
        <ele>180</ele>
        <time>2019-01-12T15:55:02Z</time>
      </trkpt>
      <trkpt lat="43.95117" lon="3.70948">
        <ele>180</ele>
        <time>2019-01-12T15:55:18Z</time>
      </trkpt>
      <trkpt lat="43.95115" lon="3.70943">
        <ele>180</ele>
        <time>2019-01-12T15:55:18Z</time>
      </trkpt>
      <trkpt lat="43.95112" lon="3.70935">
        <ele>180</ele>
        <time>2019-01-12T15:55:18Z</time>
      </trkpt>
      <trkpt lat="43.95108" lon="3.70932">
        <ele>180</ele>
        <time>2019-01-12T15:55:18Z</time>
      </trkpt>
      <trkpt lat="43.95104" lon="3.70927">
        <ele>180</ele>
        <time>2019-01-12T15:56:01Z</time>
      </trkpt>
      <trkpt lat="43.95102" lon="3.70923">
        <ele>180</ele>
        <time>2019-01-12T15:56:02Z</time>
      </trkpt>
      <trkpt lat="43.95101" lon="3.70923">
        <ele>180</ele>
        <time>2019-01-12T15:56:02Z</time>
      </trkpt>
      <trkpt lat="43.95101" lon="3.70922">
        <ele>180</ele>
        <time>2019-01-12T15:56:02Z</time>
      </trkpt>
      <trkpt lat="43.95099" lon="3.7092">
        <ele>180</ele>
        <time>2019-01-12T15:56:02Z</time>
      </trkpt>
      <trkpt lat="43.95098" lon="3.70919">
        <ele>180</ele>
        <time>2019-01-12T15:56:30Z</time>
      </trkpt>
      <trkpt lat="43.95094" lon="3.70914">
        <ele>180</ele>
        <time>2019-01-12T15:56:30Z</time>
      </trkpt>
      <trkpt lat="43.95085" lon="3.709">
        <ele>180</ele>
        <time>2019-01-12T15:56:30Z</time>
      </trkpt>
      <trkpt lat="43.95077" lon="3.70895">
        <ele>180</ele>
        <time>2019-01-12T15:56:30Z</time>
      </trkpt>
      <trkpt lat="43.95072" lon="3.70891">
        <ele>180</ele>
        <time>2019-01-12T15:56:45Z</time>
      </trkpt>
      <trkpt lat="43.95068" lon="3.70888">
        <ele>180</ele>
        <time>2019-01-12T15:56:46Z</time>
      </trkpt>
      <trkpt lat="43.95066" lon="3.70883">
        <ele>180</ele>
        <time>2019-01-12T15:56:46Z</time>
      </trkpt>
      <trkpt lat="43.95064" lon="3.70881">
        <ele>180</ele>
        <time>2019-01-12T15:56:46Z</time>
      </trkpt>
      <trkpt lat="43.9506" lon="3.70876">
        <ele>180</ele>
        <time>2019-01-12T15:57:05Z</time>
      </trkpt>
      <trkpt lat="43.95056" lon="3.70867">
        <ele>176</ele>
        <time>2019-01-12T15:57:06Z</time>
      </trkpt>
      <trkpt lat="43.95057" lon="3.70861">
        <ele>176</ele>
        <time>2019-01-12T15:57:06Z</time>
      </trkpt>
      <trkpt lat="43.95058" lon="3.70858">
        <ele>176</ele>
        <time>2019-01-12T15:57:06Z</time>
      </trkpt>
      <trkpt lat="43.95058" lon="3.70855">
        <ele>176</ele>
        <time>2019-01-12T15:57:21Z</time>
      </trkpt>
      <trkpt lat="43.9506" lon="3.7085">
        <ele>176</ele>
        <time>2019-01-12T15:57:22Z</time>
      </trkpt>
      <trkpt lat="43.95062" lon="3.70845">
        <ele>176</ele>
        <time>2019-01-12T15:57:22Z</time>
      </trkpt>
      <trkpt lat="43.95066" lon="3.70843">
        <ele>176</ele>
        <time>2019-01-12T15:57:22Z</time>
      </trkpt>
      <trkpt lat="43.9507" lon="3.70842">
        <ele>176</ele>
        <time>2019-01-12T15:57:37Z</time>
      </trkpt>
      <trkpt lat="43.95073" lon="3.70843">
        <ele>176</ele>
        <time>2019-01-12T15:57:38Z</time>
      </trkpt>
      <trkpt lat="43.95078" lon="3.70846">
        <ele>176</ele>
        <time>2019-01-12T15:57:38Z</time>
      </trkpt>
      <trkpt lat="43.95083" lon="3.70849">
        <ele>176</ele>
        <time>2019-01-12T15:57:38Z</time>
      </trkpt>
      <trkpt lat="43.95088" lon="3.70852">
        <ele>176</ele>
        <time>2019-01-12T15:57:53Z</time>
      </trkpt>
      <trkpt lat="43.95094" lon="3.70856">
        <ele>176</ele>
        <time>2019-01-12T15:57:54Z</time>
      </trkpt>
      <trkpt lat="43.95098" lon="3.70859">
        <ele>176</ele>
        <time>2019-01-12T15:57:54Z</time>
      </trkpt>
      <trkpt lat="43.95102" lon="3.7086">
        <ele>176</ele>
        <time>2019-01-12T15:57:54Z</time>
      </trkpt>
      <trkpt lat="43.95106" lon="3.70862">
        <ele>176</ele>
        <time>2019-01-12T15:58:09Z</time>
      </trkpt>
      <trkpt lat="43.95108" lon="3.70866">
        <ele>176</ele>
        <time>2019-01-12T15:58:10Z</time>
      </trkpt>
      <trkpt lat="43.9511" lon="3.70869">
        <ele>176</ele>
        <time>2019-01-12T15:58:10Z</time>
      </trkpt>
      <trkpt lat="43.95113" lon="3.70871">
        <ele>176</ele>
        <time>2019-01-12T15:58:10Z</time>
      </trkpt>
      <trkpt lat="43.95115" lon="3.70873">
        <ele>176</ele>
        <time>2019-01-12T15:58:25Z</time>
      </trkpt>
      <trkpt lat="43.95119" lon="3.70875">
        <ele>176</ele>
        <time>2019-01-12T15:58:26Z</time>
      </trkpt>
      <trkpt lat="43.95122" lon="3.70878">
        <ele>180</ele>
        <time>2019-01-12T15:58:26Z</time>
      </trkpt>
      <trkpt lat="43.95126" lon="3.70881">
        <ele>172</ele>
        <time>2019-01-12T15:58:26Z</time>
      </trkpt>
      <trkpt lat="43.9513" lon="3.70882">
        <ele>172</ele>
        <time>2019-01-12T15:58:41Z</time>
      </trkpt>
      <trkpt lat="43.95133" lon="3.70885">
        <ele>172</ele>
        <time>2019-01-12T15:58:42Z</time>
      </trkpt>
      <trkpt lat="43.95138" lon="3.70888">
        <ele>172</ele>
        <time>2019-01-12T15:58:42Z</time>
      </trkpt>
      <trkpt lat="43.95141" lon="3.70894">
        <ele>172</ele>
        <time>2019-01-12T15:58:42Z</time>
      </trkpt>
      <trkpt lat="43.95143" lon="3.70898">
        <ele>172</ele>
        <time>2019-01-12T15:58:57Z</time>
      </trkpt>
      <trkpt lat="43.95147" lon="3.70904">
        <ele>172</ele>
        <time>2019-01-12T15:58:58Z</time>
      </trkpt>
      <trkpt lat="43.95151" lon="3.7091">
        <ele>172</ele>
        <time>2019-01-12T15:58:58Z</time>
      </trkpt>
      <trkpt lat="43.95154" lon="3.70914">
        <ele>172</ele>
        <time>2019-01-12T15:58:58Z</time>
      </trkpt>
      <trkpt lat="43.95158" lon="3.70915">
        <ele>172</ele>
        <time>2019-01-12T15:59:13Z</time>
      </trkpt>
      <trkpt lat="43.95162" lon="3.7092">
        <ele>172</ele>
        <time>2019-01-12T15:59:14Z</time>
      </trkpt>
      <trkpt lat="43.95167" lon="3.70924">
        <ele>172</ele>
        <time>2019-01-12T15:59:14Z</time>
      </trkpt>
      <trkpt lat="43.95171" lon="3.70926">
        <ele>172</ele>
        <time>2019-01-12T15:59:14Z</time>
      </trkpt>
      <trkpt lat="43.95175" lon="3.70927">
        <ele>172</ele>
        <time>2019-01-12T15:59:29Z</time>
      </trkpt>
      <trkpt lat="43.95179" lon="3.70927">
        <ele>172</ele>
        <time>2019-01-12T15:59:30Z</time>
      </trkpt>
      <trkpt lat="43.95185" lon="3.70928">
        <ele>172</ele>
        <time>2019-01-12T15:59:30Z</time>
      </trkpt>
      <trkpt lat="43.9519" lon="3.7093">
        <ele>172</ele>
        <time>2019-01-12T15:59:30Z</time>
      </trkpt>
      <trkpt lat="43.95194" lon="3.70933">
        <ele>172</ele>
        <time>2019-01-12T15:59:45Z</time>
      </trkpt>
      <trkpt lat="43.95197" lon="3.70936">
        <ele>172</ele>
        <time>2019-01-12T15:59:46Z</time>
      </trkpt>
      <trkpt lat="43.952" lon="3.7094">
        <ele>172</ele>
        <time>2019-01-12T15:59:46Z</time>
      </trkpt>
      <trkpt lat="43.95203" lon="3.70941">
        <ele>172</ele>
        <time>2019-01-12T15:59:46Z</time>
      </trkpt>
    </trkseg>
  </trk>
</gpx>